[[{"header":{"parameterUnit":"m.s-1","parameterCategory":1,"la1":30.6,"la2":29.2853,"lo1":-89.7004,"lo2":-87.6739,"dy":0.0162,"dx":0.0183,"nx":112,"ny":82,"refTime":"2026-03-28T12:00:00:Z","depth":0,"parameterNumber":2,"parameterNumberName":"U-component_of_WINDS"},"data":[0.0,0.0,0.0,0.0,0.0,0.0,0.0,0.0,0.0,0.0,0.0,0.0,0.0,0.0,0.0,0.0,0.0,0.0,0.0,0.0,0.0,0.0,0.0,0.0,0.0,0.0,0.0,0.0,0.0,0.0,0.0,0.0,0.0,0.0,0.0,0.0,0.0,0.0,0.0,0.0,0.0,0.0,0.0,0.0,0.0,0.0,0.0,0.0,0.0,0.0,0.0,0.0,0.0,0.0,0.0,0.0,0.0,0.0,0.0,0.0,0.0,0.0,0.0,0.0,0.0,0.0,0.0,0.0,0.0,0.0,0.0,0.0,0.0,0.0,0.0,0.0,0.0,0.0,0.0,0.0,0.0,0.0,0.0,0.0,0.0,0.0,0.0,0.0,0.0,0.0,0.0,-0.647,-0.7292,-0.7834,-0.7814,-0.7658,-0.7136,-0.6132,0.0,0.0,0.0,0.0,0.0,0.0,0.0,0.0,0.0,0.0,0.0,0.0,0.0,0.0,0.0,0.0,0.0,0.0,0.0,0.0,0.0,0.0,0.0,0.0,0.0,0.0,0.0,0.0,0.0,0.0,0.0,0.0,0.0,0.0,0.0,0.0,0.0,0.0,0.0,0.0,0.0,0.0,0.0,0.0,0.0,0.0,0.0,0.0,0.0,0.0,0.0,0.0,0.0,0.0,0.0,0.0,0.0,0.0,0.0,0.0,0.0,0.0,0.0,0.0,0.0,0.0,0.0,0.0,0.0,0.0,0.0,0.0,0.0,0.0,0.0,0.0,0.0,0.0,0.0,0.0,0.0,0.0,0.0,0.0,0.0,0.0,0.0,0.0,0.0,0.0,0.0,0.0,0.0,0.0,0.0,0.0,0.0,0.0,0.0,0.0,0.0,0.0,0.0,0.0,-0.6234,-0.7285,-0.776,-0.7901,-0.7821,-0.7563,-0.7112,-0.6313,0.0,0.0,0.0,0.0,0.0,0.0,0.0,0.0,0.0,0.0,0.0,0.0,0.0,0.0,0.0,0.0,0.0,0.0,0.0,0.0,0.0,0.0,0.0,0.0,0.0,0.0,0.0,0.0,0.0,0.0,0.0,0.0,0.0,0.0,0.0,0.0,0.0,0.0,0.0,0.0,0.0,0.0,0.0,0.0,0.0,0.0,0.0,0.0,0.0,0.0,0.0,0.0,0.0,0.0,0.0,0.0,0.0,0.0,0.0,0.0,0.0,0.0,0.0,0.0,0.0,0.0,0.0,0.0,0.0,0.0,0.0,0.0,0.0,0.0,0.0,0.0,0.0,0.0,0.0,0.0,0.0,0.0,0.0,0.0,0.0,0.0,0.0,0.0,0.0,0.0,0.0,0.0,0.0,0.0,0.0,0.0,0.0,0.0,0.0,0.0,0.0,0.0,0.0,-0.6529,-0.6566,-0.7604,-0.786,-0.7961,-0.7894,-0.7665,-0.7177,-0.6463,-0.6017,0.0,0.0,0.0,0.0,0.0,0.0,0.0,0.0,0.0,0.0,0.0,0.0,0.0,0.0,0.0,0.0,0.0,0.0,0.0,0.0,0.0,0.0,0.0,0.0,0.0,0.0,0.0,0.0,0.0,0.0,0.0,0.0,0.0,0.0,0.0,0.0,0.0,0.0,0.0,0.0,0.0,0.0,0.0,0.0,0.0,0.0,0.0,0.0,0.0,0.0,0.0,0.0,0.0,0.0,0.0,0.0,0.0,0.0,0.0,0.0,0.0,0.0,0.0,0.0,0.0,0.0,0.0,0.0,0.0,0.0,0.0,0.0,0.0,0.0,0.0,0.0,0.0,0.0,0.0,0.0,0.0,0.0,0.0,0.0,0.0,0.0,0.0,0.0,0.0,0.0,0.0,0.0,0.0,0.0,0.0,0.0,0.0,0.0,0.0,0.0,0.0,0.0,-0.7573,-0.7454,-0.8261,-0.8118,-0.7988,-0.7988,-0.7706,-0.7217,-0.6566,-0.6003,0.0,0.0,0.0,0.0,0.0,0.0,0.0,0.0,0.0,0.0,0.0,0.0,0.0,0.0,0.0,0.0,0.0,0.0,0.0,0.0,0.0,0.0,0.0,0.0,0.0,0.0,0.0,0.0,0.0,0.0,0.0,0.0,0.0,0.0,0.0,0.0,0.0,0.0,0.0,0.0,0.0,0.0,0.0,0.0,0.0,0.0,0.0,0.0,0.0,0.0,0.0,0.0,0.0,0.0,0.0,0.0,0.0,0.0,0.0,0.0,0.0,0.0,0.0,0.0,0.0,0.0,0.0,0.0,0.0,0.0,0.0,0.0,0.0,0.0,0.0,0.0,0.0,0.0,0.0,0.0,0.0,0.0,0.0,0.0,0.0,0.0,0.0,0.0,0.0,0.0,0.0,0.0,0.0,0.0,0.0,0.0,0.0,0.0,0.0,0.0,0.0,0.0,-0.9127,-0.9269,-0.9788,-0.8718,-0.7988,-0.7988,-0.7462,-0.6991,-0.6709,-0.5904,0.0,0.0,0.0,0.0,0.0,0.0,0.0,0.0,0.0,0.0,0.0,0.0,0.0,0.0,0.0,0.0,0.0,0.0,0.0,0.0,0.0,0.0,0.0,0.0,0.0,0.0,0.0,0.0,0.0,0.0,0.0,0.0,0.0,0.0,0.0,0.0,0.0,0.0,0.0,0.0,0.0,0.0,0.0,0.0,0.0,0.0,0.0,0.0,0.0,0.0,0.0,0.0,0.0,0.0,0.0,0.0,0.0,0.0,0.0,0.0,0.0,0.0,0.0,0.0,0.0,0.0,0.0,0.0,0.0,0.0,0.0,0.0,0.0,0.0,0.0,0.0,0.0,0.0,0.0,0.0,0.0,0.0,0.0,0.0,0.0,0.0,0.0,0.0,0.0,0.0,0.0,0.0,0.0,0.0,0.0,0.0,0.0,0.0,0.0,0.0,0.0,0.0,-1.0211,-1.0551,0.0,-0.9993,-0.9262,-0.9262,-0.8131,-0.7177,-0.6593,0.0,0.0,0.0,0.0,0.0,0.0,0.0,0.0,0.0,0.0,0.0,0.0,0.0,0.0,0.0,0.0,0.0,0.0,0.0,0.0,0.0,0.0,0.0,0.0,0.0,0.0,0.0,0.0,0.0,0.0,0.0,0.0,0.0,0.0,0.0,0.0,0.0,0.0,0.0,0.0,0.0,0.0,0.0,0.0,0.0,0.0,0.0,0.0,0.0,0.0,0.0,0.0,0.0,0.0,0.0,0.0,0.0,0.0,0.0,0.0,0.0,0.0,0.0,0.0,0.0,0.0,0.0,0.0,0.0,0.0,0.0,0.0,0.0,0.0,0.0,0.0,0.0,0.0,0.0,0.0,0.0,0.0,0.0,0.0,0.0,0.0,0.0,0.0,0.0,0.0,0.0,0.0,0.0,0.0,0.0,0.0,0.0,0.0,0.0,0.0,0.0,0.0,-1.108,-1.1502,-1.1964,0.0,-1.107,-1.0209,-1.0592,-0.8712,-0.7537,-0.7468,0.0,0.0,0.0,0.0,0.0,0.0,0.0,0.0,0.0,0.0,0.0,0.0,0.0,0.0,0.0,0.0,0.0,0.0,0.0,0.0,0.0,0.0,0.0,0.0,0.0,0.0,0.0,0.0,0.0,0.0,0.0,0.0,0.0,0.0,0.0,0.0,0.0,0.0,0.0,0.0,0.0,0.0,0.0,0.0,0.0,0.0,0.0,0.0,0.0,0.0,0.0,0.0,0.0,0.0,0.0,0.0,0.0,0.0,0.0,0.0,0.0,0.0,0.0,0.0,0.0,0.0,0.0,0.0,0.0,0.0,0.0,0.0,0.0,0.0,0.0,0.0,0.0,0.0,0.0,0.0,0.0,0.0,0.0,0.0,0.0,0.0,0.0,0.0,0.0,0.0,0.0,0.0,0.0,0.0,0.0,0.0,0.0,0.0,0.0,0.0,0.0,0.0,-1.2717,-1.3151,-1.3543,-1.3897,-1.1737,-1.0689,-1.1824,-0.9167,-0.8023,0.0,0.0,0.0,0.0,0.0,0.0,0.0,0.0,0.0,0.0,0.0,0.0,0.0,0.0,0.0,0.0,0.0,0.0,0.0,0.0,0.0,0.0,0.0,0.0,0.0,0.0,0.0,0.0,0.0,0.0,0.0,0.0,0.0,0.0,0.0,0.0,0.0,0.0,0.0,0.0,0.0,0.0,0.0,0.0,0.0,0.0,0.0,0.0,0.0,0.0,0.0,0.0,0.0,0.0,0.0,0.0,0.0,0.0,0.0,0.0,0.0,0.0,0.0,0.0,0.0,0.0,0.0,0.0,0.0,0.0,0.0,0.0,0.0,0.0,0.0,0.0,0.0,0.0,0.0,0.0,0.0,0.0,0.0,0.0,0.0,0.0,0.0,0.0,0.0,0.0,0.0,0.0,0.0,0.0,0.0,0.0,0.0,0.0,0.0,0.0,0.0,0.0,0.0,-1.2999,-1.4466,-1.5502,-1.558,-1.4278,-1.3462,-1.3577,-1.166,-1.0187,-0.9656,0.0,0.0,0.0,0.0,0.0,0.0,0.0,0.0,0.0,0.0,0.0,0.0,0.0,0.0,0.0,0.0,0.0,0.0,0.0,0.0,0.0,0.0,0.0,0.0,0.0,0.0,0.0,0.0,0.0,0.0,0.0,0.0,0.0,0.0,0.0,0.0,0.0,0.0,0.0,0.0,0.0,0.0,0.0,0.0,0.0,0.0,0.0,0.0,0.0,0.0,0.0,0.0,0.0,0.0,0.0,0.0,0.0,0.0,0.0,0.0,0.0,0.0,0.0,0.0,0.0,0.0,0.0,0.0,0.0,0.0,0.0,0.0,0.0,0.0,0.0,0.0,0.0,0.0,0.0,0.0,0.0,0.0,0.0,0.0,0.0,0.0,0.0,0.0,0.0,0.0,0.0,0.0,0.0,0.0,0.0,0.0,0.0,0.0,0.0,0.0,0.0,0.0,-1.3307,-1.5177,-1.6446,-1.6446,-1.5369,-1.4841,-1.5233,-1.312,-1.1622,-1.1272,0.0,0.0,0.0,0.0,0.0,0.0,0.0,0.0,0.0,0.0,0.0,0.0,0.0,0.0,0.0,0.0,0.0,0.0,0.0,0.0,0.0,0.0,0.0,0.0,0.0,0.0,0.0,0.0,0.0,0.0,0.0,0.0,0.0,0.0,0.0,0.0,0.0,0.0,0.0,0.0,0.0,0.0,0.0,0.0,0.0,0.0,0.0,0.0,0.0,0.0,0.0,0.0,0.0,0.0,0.0,0.0,0.0,0.0,0.0,0.0,0.0,0.0,0.0,0.0,0.0,0.0,0.0,0.0,0.0,0.0,0.0,0.0,0.0,0.0,0.0,0.0,0.0,0.0,0.0,0.0,0.0,0.0,0.0,0.0,0.0,0.0,0.0,0.0,0.0,0.0,0.0,0.0,0.0,0.0,0.0,0.0,0.0,0.0,0.0,0.0,0.0,0.0,-1.36,-1.5498,-1.674,-1.674,-1.5581,-1.5328,-1.664,-1.4039,-1.2705,-1.3649,0.0,0.0,0.0,0.0,0.0,0.0,0.0,0.0,0.0,0.0,0.0,0.0,0.0,0.0,0.0,0.0,0.0,0.0,0.0,0.0,0.0,0.0,0.0,0.0,0.0,0.0,0.0,0.0,0.0,0.0,0.0,0.0,0.0,0.0,0.0,0.0,0.0,0.0,0.0,0.0,0.0,0.0,0.0,0.0,0.0,0.0,0.0,0.0,0.0,0.0,0.0,0.0,0.0,0.0,0.0,0.0,0.0,0.0,0.0,0.0,-0.8908,0.0,0.0,0.0,0.0,0.0,0.0,0.0,0.0,0.0,0.0,0.0,0.0,0.0,0.0,0.0,0.0,0.0,0.0,0.0,0.0,0.0,0.0,0.0,0.0,0.0,0.0,0.0,0.0,0.0,0.0,0.0,0.0,0.0,0.0,0.0,0.0,0.0,0.0,0.0,0.0,0.0,-1.4202,-1.5925,-1.7099,-1.7099,-1.6989,-1.6977,-1.7074,-1.6212,-1.5265,-1.4386,-1.3015,0.0,0.0,0.0,0.0,0.0,0.0,0.0,0.0,0.0,0.0,0.0,0.0,0.0,0.0,0.0,0.0,0.0,0.0,0.0,0.0,0.0,0.0,0.0,0.0,0.0,0.0,0.0,0.0,0.0,0.0,0.0,0.0,0.0,0.0,0.0,0.0,0.0,0.0,0.0,0.0,0.0,0.0,0.0,0.0,0.0,0.0,0.0,0.0,0.0,0.0,0.0,0.0,0.0,0.0,0.0,0.0,0.0,0.0,0.0,0.0,-0.9963,0.0,0.0,0.0,0.0,0.0,0.0,0.0,0.0,0.0,0.0,0.0,0.0,0.0,0.0,0.0,0.0,0.0,0.0,0.0,0.0,0.0,0.0,0.0,0.0,0.0,0.0,0.0,0.0,0.0,0.0,0.0,0.0,0.0,0.0,0.0,0.0,0.0,0.0,0.0,0.0,-1.4389,-1.6179,-1.7407,-1.7407,-1.742,-1.742,-1.7407,-1.6954,-1.6326,-1.5418,-1.4122,0.0,0.0,0.0,0.0,0.0,0.0,0.0,0.0,0.0,0.0,0.0,0.0,0.0,0.0,0.0,0.0,0.0,0.0,0.0,0.0,0.0,0.0,0.0,0.0,0.0,0.0,0.0,0.0,0.0,0.0,0.0,0.0,0.0,0.0,0.0,0.0,0.0,0.0,0.0,0.0,0.0,0.0,0.0,0.0,0.0,0.0,0.0,0.0,0.0,0.0,0.0,0.0,0.0,-1.3248,-1.3903,-1.4301,-1.5451,-1.5423,-1.4469,-1.3505,-1.2711,-1.199,-1.1657,0.0,0.0,0.0,0.0,0.0,0.0,0.0,0.0,0.0,0.0,0.0,0.0,0.0,0.0,0.0,0.0,0.0,0.0,0.0,0.0,0.0,0.0,0.0,0.0,-1.5538,-1.5458,0.0,0.0,0.0,0.0,0.0,0.0,0.0,0.0,0.0,0.0,0.0,0.0,-1.4629,-1.646,-1.7649,-1.7582,-1.7422,-1.7434,-1.7569,-1.7141,-1.6714,-1.6366,-1.5124,-1.4135,0.0,0.0,0.0,0.0,0.0,0.0,0.0,0.0,0.0,0.0,0.0,0.0,0.0,0.0,0.0,0.0,0.0,0.0,0.0,0.0,0.0,0.0,0.0,0.0,0.0,0.0,0.0,0.0,0.0,0.0,0.0,0.0,-0.5897,-0.7016,0.0,0.0,0.0,0.0,0.0,0.0,0.0,0.0,0.0,0.0,0.0,0.0,0.0,-0.7783,-0.807,-1.0349,-1.1531,-1.1638,-1.5042,-1.6606,-1.6621,-1.814,-1.8783,-1.8612,-1.8682,0.0,-1.4134,-1.482,0.0,0.0,0.0,0.0,0.0,0.0,0.0,0.0,0.0,0.0,0.0,0.0,0.0,0.0,0.0,0.0,0.0,0.0,0.0,0.0,0.0,0.0,-1.7074,-1.6898,-1.6938,-1.6924,0.0,-1.4883,-1.3134,-1.2198,-1.1877,0.0,0.0,0.0,0.0,0.0,0.0,0.0,-1.5511,-1.697,-1.7876,-1.7609,-1.7796,-1.7836,-1.7609,-1.7515,-1.7235,-1.6687,-1.5992,-1.5337,-1.4794,-1.3306,0.0,0.0,0.0,0.0,0.0,0.0,0.0,0.0,0.0,0.0,0.0,0.0,0.0,0.0,0.0,0.0,0.0,0.0,0.0,0.0,0.0,0.0,0.0,0.0,0.0,0.0,0.0,0.0,0.0,-0.6702,-0.7798,-0.7517,-0.8244,-0.8867,0.0,0.0,0.0,0.0,0.0,0.0,0.0,0.0,0.0,-1.2818,-1.2294,-1.2307,-1.3028,-1.437,-1.5598,-1.6715,-1.8542,-1.9568,-1.9822,-2.0526,-2.0748,-2.0676,-2.0895,-1.9845,-1.7909,-1.7318,-1.6504,-1.5671,0.0,0.0,0.0,0.0,-1.5257,-1.5484,-1.6286,-1.6366,0.0,-1.6228,0.0,0.0,0.0,0.0,0.0,0.0,0.0,0.0,0.0,0.0,-1.7876,-1.809,-1.8277,-1.8398,-1.8183,-1.7208,-1.5858,0.0,-1.3828,-1.3347,-1.1792,0.0,0.0,0.0,0.0,-1.5003,-1.6166,-1.7276,-1.8009,-1.809,-1.821,-1.8237,-1.8103,-1.7943,-1.7729,-1.7475,-1.674,-1.6206,-1.5952,-1.4727,-1.3735,0.0,0.0,0.0,0.0,0.0,0.0,0.0,0.0,0.0,0.0,0.0,0.0,0.0,0.0,0.0,0.0,0.0,0.0,0.0,0.0,0.0,0.0,0.0,0.0,0.0,0.0,0.0,0.0,-0.8523,-0.9802,-0.8942,-1.0128,-1.0948,0.0,0.0,0.0,0.0,0.0,0.0,-1.4952,-1.4727,-1.5038,-1.6153,-1.5735,-1.5989,-1.6876,-1.7692,-1.8864,-2.0371,-2.1038,-2.1563,-2.1991,-2.1991,-2.1871,-2.1735,-2.1897,-2.1577,-2.0788,-1.9239,-1.8116,-1.7328,-1.674,-1.6513,-1.6567,-1.6994,-1.7208,-1.7408,-1.8384,-1.8571,-1.8343,-1.813,0.0,-1.6313,-1.5297,0.0,0.0,0.0,0.0,-1.6326,-1.7487,-1.809,-1.8611,-1.9132,-1.9426,-1.9533,-1.9305,-1.8971,-1.8103,0.0,-1.5685,-1.5124,-1.3213,0.0,0.0,0.0,0.0,-1.5805,-1.6914,-1.7716,-1.833,-1.8477,-1.8557,-1.8571,-1.8504,-1.829,-1.8102,-1.8102,-1.7462,-1.7048,-1.7048,-1.5992,-1.507,-1.4335,0.0,0.0,0.0,0.0,0.0,0.0,0.0,0.0,0.0,0.0,0.0,0.0,0.0,0.0,0.0,0.0,0.0,0.0,0.0,0.0,0.0,0.0,0.0,0.0,0.0,0.0,0.0,0.0,0.0,-1.2429,-1.296,0.0,0.0,0.0,0.0,-1.4745,-1.5285,-1.6135,-1.7356,-1.6423,-1.6393,-1.7755,-1.6553,-1.6138,-1.6616,-1.8381,-1.9393,-1.9483,-2.1187,-2.1951,-2.1991,-2.1991,-2.1977,-2.1964,-2.1977,-2.1804,-2.1494,-2.0508,-1.9773,-1.9172,-1.8584,-1.8357,-1.8357,-1.8384,-1.8571,-1.8865,-1.9199,-1.9319,-1.9439,-2.0241,-1.9533,-1.8237,-1.7595,-1.682,0.0,0.0,-1.7448,-1.8062,-1.9025,-1.9479,-1.9786,-2.0094,-2.0174,-2.0187,-2.0113,-1.972,-1.8958,0.0,-1.7007,-1.642,-1.5704,0.0,-1.5458,-1.6053,-1.6393,-1.6954,-1.7809,-1.8448,-1.8784,-1.8517,-1.8731,-1.8784,-1.8517,-1.8477,-1.8464,-1.8464,-1.8102,-1.7929,-1.7929,-1.7101,-1.6473,-1.6152,-1.4442,0.0,0.0,0.0,0.0,0.0,0.0,0.0,0.0,0.0,0.0,0.0,0.0,0.0,0.0,0.0,0.0,0.0,0.0,0.0,0.0,0.0,0.0,0.0,0.0,0.0,0.0,0.0,0.0,-1.3409,-1.4846,0.0,-1.5251,-1.5725,-1.6268,-1.662,-1.7555,-1.8531,-1.9519,-1.9194,-1.9485,-2.0528,-1.99,-1.9714,-2.0084,-2.0712,-2.1196,-2.1376,-2.1991,-2.2472,-2.2846,-2.2846,-2.2846,-2.2846,-2.2846,-2.2565,-2.2084,-2.1764,-2.1189,-2.0468,-2.0254,-2.0174,-2.0174,-2.0174,-2.0361,-2.0628,-2.0797,-2.0837,-2.0797,-2.0468,-1.9907,-1.9225,-1.8624,-1.8357,-1.8358,-1.8573,-1.8865,-1.9292,-1.98,-2.0,-2.0107,-2.0214,-2.0167,-2.0167,-2.0167,-2.0067,-1.98,-1.9372,-1.8517,-1.7609,-1.682,-1.6914,-1.7048,-1.6911,-1.7261,-1.7769,-1.8462,-1.8798,-1.8958,-1.9052,-1.9145,-1.9172,-1.9065,-1.8878,-1.8691,-1.8504,-1.821,-1.7902,-1.7756,-1.7635,-1.7248,-1.6567,-1.5752,-1.4522,0.0,0.0,0.0,0.0,0.0,0.0,0.0,0.0,0.0,0.0,0.0,0.0,0.0,0.0,0.0,0.0,0.0,0.0,0.0,0.0,0.0,0.0,0.0,0.0,0.0,0.0,-1.5835,-1.5094,-1.6756,-1.7648,-1.6807,-1.7528,-1.817,-1.845,-1.9399,-2.0254,-2.0998,-2.0975,-2.1323,-2.2111,-2.2044,-2.2138,-2.2432,-2.3185,-2.366,-2.3788,-2.4452,-2.494,-2.5374,-2.5374,-2.5374,-2.5305,-2.4693,-2.4178,-2.3788,-2.3133,-2.2539,-2.1964,-2.1563,-2.1403,-2.1403,-2.1403,-2.1537,-2.1762,-2.1762,-2.1762,-2.159,-2.0895,-2.0548,-2.0294,-1.9813,-1.98,-1.9973,-2.014,-2.0241,-2.0454,-2.0748,-2.0748,-2.0681,-2.0681,-2.0601,-2.0521,-2.0521,-2.0454,-2.0374,-2.0374,-1.9599,-1.8744,-1.8197,-1.821,-1.8277,-1.8076,-1.8303,-1.8704,-1.9234,-1.9359,-1.9439,-1.9639,-1.9573,-1.9506,-1.9506,-1.9145,-1.8838,-1.8651,-1.8209,-1.7902,-1.7742,-1.7742,-1.7462,-1.6874,-1.6228,-1.5057,-1.3507,0.0,0.0,0.0,0.0,0.0,0.0,0.0,0.0,0.0,0.0,0.0,0.0,0.0,0.0,0.0,0.0,0.0,0.0,0.0,0.0,0.0,0.0,0.0,-1.4549,-1.6326,-1.7622,-1.7649,-1.8747,-1.9185,-1.8624,-1.9345,-1.9973,-2.0193,-2.0815,-2.1269,-2.1628,-2.1655,-2.1923,-2.2499,-2.2862,-2.3171,-2.3467,-2.5589,-2.6698,-2.6698,-2.8535,-2.9442,-2.9458,-2.9458,-2.9458,-2.9305,-2.7462,-2.6698,-2.6559,-2.472,-2.3981,-2.386,-2.2552,-2.2044,-2.2044,-2.2044,-2.2031,-2.2031,-2.2031,-2.2017,-2.1951,-2.1735,-2.1641,-2.1574,-2.1229,-2.1136,-2.1203,-2.1547,-2.1628,-2.1695,-2.1911,-2.1842,-2.1628,-2.1628,-2.1349,-2.1136,-2.1136,-2.0909,-2.0708,-2.0708,-2.0241,-1.984,-1.9813,-1.9345,-1.9158,-1.9733,-1.9573,0.0,-2.016,-2.0167,-2.0167,-2.0167,-1.9987,-1.9813,-1.98,-1.9265,-1.8931,-1.8918,-1.8315,-1.7995,-1.7982,-1.7488,-1.7233,-1.7233,-1.5799,-1.4767,-1.4122,0.0,0.0,0.0,0.0,0.0,0.0,0.0,0.0,0.0,0.0,0.0,0.0,0.0,0.0,0.0,0.0,0.0,0.0,0.0,0.0,0.0,-1.5084,-1.6019,-1.6099,-1.7341,-1.8477,-1.9118,-1.9853,-2.0334,-2.0388,-2.0802,-2.1172,-2.1189,-2.1537,-2.1871,-2.2164,-2.2378,-2.3337,-2.513,-2.5451,-2.6265,-2.772,-2.8365,-2.862,-2.8603,-2.9152,-2.9506,-2.9771,-2.9771,-2.9771,-2.9755,-2.9216,-2.8862,-2.862,-2.8069,-2.7862,-2.7554,-2.4484,-2.3273,-2.3273,-2.3273,-2.314,-2.2953,-2.2953,-2.2672,-2.2285,-2.2205,-2.2044,-2.1857,-2.1764,-2.175,-2.1764,-2.1844,-2.1871,-2.1884,-2.1964,-2.1924,-2.1871,-2.1871,-2.1804,-2.175,-2.175,-2.1523,-2.1373,-2.1373,-2.1002,-2.0615,-2.0187,-1.9973,-1.9933,-2.0094,-2.004,0.0,-2.0153,-2.0167,-2.0167,-2.0167,-2.016,-2.0027,-1.9813,-1.9466,-1.9065,-1.8637,-1.8263,-1.7889,-1.7716,-1.7769,-1.7796,-1.7782,-1.6754,-1.5832,0.0,0.0,0.0,0.0,0.0,0.0,0.0,0.0,0.0,0.0,0.0,0.0,0.0,0.0,0.0,0.0,0.0,0.0,0.0,0.0,0.0,0.0,-1.6727,-1.7716,-1.845,-1.9038,-1.9639,-2.0267,-2.0869,-2.1296,-2.1456,-2.1737,-2.1924,-2.1924,-2.2311,-2.2619,-2.2792,-2.3804,-2.5063,-2.6343,-2.7424,-2.8483,-2.9589,-3.0514,-3.1012,-3.1012,-3.1767,-3.2251,-3.2465,-3.2465,-3.2465,-3.2396,-3.1618,-3.115,-3.0943,-3.0098,-2.9752,0.0,0.0,0.0,0.0,0.0,-2.3661,-2.3514,-2.3514,-2.3287,-2.2966,-2.2846,-2.2686,-2.2525,-2.2392,-2.2352,-2.2352,-2.2352,-2.2352,-2.2352,-2.2352,-2.2258,-2.2164,-2.2164,-2.2071,-2.1991,-2.1991,-2.1857,-2.1802,-2.1802,-2.159,0.0,-2.0869,-2.0588,-2.0454,-2.0575,-2.0494,-2.0454,-2.0588,-2.0601,-2.0601,-2.0601,-2.0494,-2.0347,-2.0187,-1.9679,0.0,0.0,0.0,-1.7849,-1.7474,-1.7569,0.0,0.0,0.0,0.0,0.0,0.0,0.0,0.0,-1.5618,-1.5538,0.0,0.0,0.0,0.0,0.0,0.0,0.0,0.0,0.0,0.0,0.0,0.0,0.0,0.0,0.0,0.0,-1.8016,-1.9074,-2.0922,-2.0989,-2.0975,-2.1229,-2.1724,-2.2044,-2.2084,-2.2352,-2.2525,-2.2525,-2.3046,-2.338,-2.338,0.0,0.0,0.0,0.0,-3.0388,-3.0613,-3.2556,-3.3517,-3.3517,-3.5226,-3.6016,-3.6016,-3.6016,-3.6016,-3.5879,-3.4245,-3.3517,-3.3378,-3.1667,-3.0805,-3.0385,-2.7733,-2.6608,-2.6187,-2.449,-2.3848,-2.3821,-2.3821,0.0,0.0,-2.346,-2.338,-2.3313,-2.3006,-2.2913,-2.2913,-2.2941,-2.2928,-2.2928,-2.2928,-2.2672,-2.2472,-2.2472,-2.2271,-2.2084,-2.2084,-2.2058,-2.2031,-2.2031,-2.2004,-2.1897,-2.1708,-2.1212,-2.0855,-2.1082,-2.0895,-2.0815,-2.1082,-2.1109,-2.1109,-2.1109,0.0,0.0,-2.0681,-1.9933,-1.9345,-1.9038,-1.8448,-1.7956,-1.7474,-1.7487,-1.7487,-1.7447,-1.7487,-1.7689,-1.8142,-1.849,-1.8784,-1.9025,-1.6847,-1.658,0.0,0.0,0.0,0.0,0.0,0.0,0.0,0.0,0.0,0.0,0.0,0.0,0.0,0.0,0.0,-1.6263,-1.7564,-1.8951,-2.1221,-2.1817,-2.2098,-2.2164,-2.2271,-2.2432,-2.2672,-2.2966,-2.3153,-2.3153,-2.3487,-2.3688,-2.3688,-2.5739,-2.7654,-2.9179,-3.1427,-3.327,-3.4819,-3.5256,-3.5451,-3.5451,0.0,0.0,-3.6016,-3.6016,-3.6016,-3.5947,-3.5587,-3.5451,-3.5451,-3.5021,-3.402,-3.2298,-2.8703,-2.6388,-2.4961,-2.4609,-2.4329,-2.4115,-2.4115,-2.3968,-2.3754,-2.3701,-2.3688,-2.3634,-2.3327,-2.3233,0.0,-2.2939,-2.2928,-2.2928,-2.2928,-2.2819,-2.2779,-2.2779,-2.2739,-2.2767,-2.2767,-2.2498,-2.2338,-2.2338,-2.2151,-2.1964,-2.1911,-2.1681,-2.1323,-2.1136,-2.1069,-2.1042,-2.1096,-2.1109,-2.1109,-2.1109,-2.1056,-2.0935,-2.0695,-2.0307,-1.9947,-1.9653,-1.9305,-1.9065,-1.9001,-1.9158,-1.9172,-1.9001,-1.9172,-1.9225,-1.9118,-1.9399,-1.9693,-1.996,-1.9025,-1.8998,0.0,0.0,0.0,0.0,0.0,0.0,0.0,0.0,0.0,0.0,0.0,-1.2767,-1.3013,0.0,-1.4053,-1.7012,-1.8027,-1.9217,-2.1635,-2.2231,-2.2418,-2.2418,-2.2552,-2.2766,-2.306,-2.3233,-2.3394,-2.3541,-2.3821,-2.4399,-2.5371,-2.7469,-2.9553,-3.1461,-3.3564,-3.5021,-3.6016,-3.6016,-3.6016,-3.6016,-3.6016,-3.6016,-3.6016,-3.6016,-3.6016,-3.6016,-3.6016,-3.6016,-3.5947,-3.5021,-3.3448,-3.1456,-2.8629,-2.6939,-2.5932,-2.4991,-2.4543,-2.4422,-2.4422,-2.4329,-2.4182,-2.4035,-2.3981,-2.3928,-2.3634,-2.3554,-2.3514,-2.3354,-2.3313,-2.3313,-2.3313,-2.3207,-2.31,-2.31,-2.2979,-2.2928,-2.2928,-2.2739,-2.2645,-2.2645,-2.2525,-2.2378,-2.2231,-2.2084,-2.1884,-2.159,-2.155,-2.155,-2.155,-2.155,-2.155,-2.155,-2.155,-2.1496,-2.1349,-2.0788,-2.0267,-1.9826,-1.9533,-1.943,-1.943,-1.9506,-1.9653,-1.98,-1.9947,-2.0094,-2.0241,-2.0535,-2.0748,-2.0895,-2.0748,-2.0762,0.0,0.0,0.0,0.0,0.0,0.0,0.0,-1.3574,-1.3746,-1.331,-1.3579,-1.3656,-1.3049,-1.3426,-1.4797,-1.772,-1.8615,-1.9748,-2.2149,-2.2498,-2.2498,-2.2498,-2.2766,-2.3046,-2.33,-2.3434,-2.3594,-2.3834,-2.4476,-2.548,-2.7,-2.9525,-3.1597,-3.317,-3.5021,-3.6016,-3.6016,-3.6016,-3.6016,-3.6016,-3.6016,-3.6016,-3.6016,-3.6113,-3.6152,-3.6152,-3.623,-3.6269,-3.6132,-3.4172,-3.2456,-3.0881,-2.8542,-2.77,-2.7466,-2.54,-2.4636,-2.4636,-2.4636,-2.4636,-2.4596,-2.4369,-2.4289,-2.4235,-2.3941,-2.3848,-2.3848,-2.3781,-2.3768,-2.3768,-2.3768,-2.3594,-2.3407,-2.3407,-2.322,-2.3088,-2.2966,-2.2953,-2.2939,-2.2941,-2.2928,-2.2779,-2.2539,-2.2498,-2.2392,-2.2031,-2.1991,-2.1991,-2.1991,-2.1991,-2.1991,-2.1991,-2.1991,-2.1991,-2.1991,-2.1336,-2.0735,-2.0254,-2.0,-1.9939,-1.9939,-1.9939,-2.0094,-2.0561,-2.0575,-2.0802,-2.1283,-2.1523,-2.1735,-2.1724,-2.2017,-2.2004,-1.2918,-1.2462,-1.2478,-1.3174,-1.3387,-1.4001,0.0,-1.646,-1.6134,-1.5646,-1.4866,-1.3947,-1.2723,-1.3054,-1.4297,-1.6619,-1.8519,-2.0435,-2.2561,-2.2819,-2.2819,-2.2819,-2.3086,-2.3287,-2.3327,-2.3794,-2.4115,-2.4155,-2.5983,-2.7229,-2.7446,-3.0876,-3.2961,-3.317,-3.5021,-3.6016,-3.6016,-3.6016,-3.6016,-3.6016,-3.6016,-3.6016,-3.6035,-3.6426,-3.6601,-3.6621,-3.6992,-3.7148,-3.7008,-3.4931,-3.3983,-3.348,-2.9754,-2.8298,-2.7999,-2.5478,-2.4636,-2.4636,-2.4636,-2.4636,-2.4636,-2.4596,-2.4596,-2.4529,-2.4249,-2.4155,-2.4102,-2.3848,-2.3768,-2.3768,-2.3768,-2.3741,-2.3728,-2.3728,-2.3688,-2.3594,-2.3327,-2.3273,-2.3193,-2.2913,-2.2928,-2.2914,-2.2819,-2.2819,-2.2619,-2.2071,-2.1991,-2.1991,-2.1991,-2.1991,-2.1991,-2.1991,-2.1991,-2.1991,-2.1991,-2.1897,-2.1817,-2.175,-2.171,-2.1697,-2.1697,-2.1697,-2.1724,-2.179,-2.179,-2.1817,-2.1884,-2.1924,-2.2071,-2.2325,-2.2632,-2.2605,-1.4669,-1.4442,-1.4399,-1.4772,-1.5297,-1.5979,-1.7192,-1.7582,-1.7577,-1.6922,-1.668,-1.6135,-1.4817,-1.4959,-1.5998,0.0,-1.9369,-2.0622,-2.2627,-2.2928,-2.2806,-2.2619,-2.3033,-2.3394,-2.3567,-2.3808,-2.4579,-2.5997,-2.6997,-2.8501,-3.068,-3.2316,-3.3674,-3.4815,-3.5587,-3.6016,-3.6016,-3.6269,-3.6406,-3.6406,-3.6641,-3.6758,-3.6777,-3.6953,-3.7031,-3.7051,-3.7226,-3.663,-3.5436,-3.4702,-3.3023,-3.0679,-2.9135,-2.7815,-2.6578,-2.5337,-2.489,-2.4863,-2.469,-2.4636,-2.4636,-2.4636,-2.4636,-2.4609,-2.4489,-2.4449,-2.4436,-2.4302,-2.4275,-2.4275,-2.4275,-2.4155,-2.4022,-2.4022,-2.3888,-2.3741,-2.3607,-2.3581,-2.35,-2.3193,-2.314,-2.3073,-2.2968,-2.2928,-2.2779,-2.2539,-2.2498,-2.2498,-2.2498,-2.2498,-2.2498,-2.2498,-2.2498,-2.2432,-2.2258,-2.2231,-2.2164,-2.1991,-2.1991,-2.1991,-2.1991,-2.1991,-2.2071,-2.2231,-2.2231,-2.2418,-2.2766,-2.2766,-2.2913,-2.3207,-2.334,-2.3327,-1.5712,-1.5832,-1.5992,-1.6152,-1.6927,-1.7716,-1.8009,-1.8544,-1.8698,-1.7805,-1.7866,-1.7714,-1.6343,-1.6782,-1.7879,-1.9481,-2.0367,-2.1321,-2.2722,-2.2792,-2.2659,-2.2445,-2.2739,-2.31,-2.3487,-2.4225,-2.5456,-2.7254,-2.8439,-3.0272,-3.3031,-3.3674,-3.459,-3.5947,-3.6016,-3.6074,-3.6191,-3.6504,-3.6738,-3.6855,-3.7148,-3.7305,-3.7305,-3.7422,-3.7539,-3.7656,-3.7656,-3.6813,-3.5392,-3.4957,-3.3042,-3.0297,-2.9862,-2.8746,-2.7364,-2.646,-2.578,-2.517,-2.4957,-2.4823,-2.4756,-2.4756,-2.4703,-2.4636,-2.4636,-2.4636,-2.4636,-2.4636,-2.4636,-2.4636,-2.4636,-2.4476,-2.4329,-2.4329,-2.4168,-2.3981,-2.3915,-2.3888,-2.3808,-2.3514,-2.3447,-2.338,-2.3153,-2.3182,-2.3182,-2.3182,-2.3046,-2.2953,-2.2941,-2.2928,-2.2928,-2.2928,-2.2928,-2.2779,-2.2565,-2.2539,-2.2445,-2.2245,-2.2231,-2.2231,-2.2231,-2.2231,-2.2365,-2.2659,-2.2672,-2.2926,-2.3447,-2.3447,-2.3554,-2.3768,-2.3848,-2.3888,-1.5404,-1.5832,-1.6442,-1.7018,-1.7996,-1.8945,-1.9252,-1.976,-1.9768,-1.8366,-1.8113,-1.7707,-1.6363,-1.7829,-1.9358,-1.956,-2.1419,-2.2859,-2.2859,-2.2619,-2.2432,-2.2418,-2.2191,-2.2258,0.0,-2.5311,-2.6896,-2.6982,-3.0761,-3.3101,-3.317,-3.4952,-3.5947,-3.6016,-3.6016,-3.623,-3.6641,-3.666,-3.6875,-3.7285,-3.7285,-3.7305,-3.7305,-3.7715,-3.8144,-3.8535,-3.8535,-3.8535,-3.8297,-3.6312,-3.5386,-3.5089,-3.3137,-3.232,-3.2043,-2.9732,-2.7469,-2.5504,-2.5491,-2.5304,-2.5064,-2.5064,-2.4877,-2.4636,-2.4636,-2.4636,-2.4636,-2.4636,-2.4636,-2.4636,-2.4636,-2.4549,-2.4623,-2.4623,-2.4609,-2.4529,-2.4249,-2.4195,-2.4102,-2.3808,-2.3754,-2.3754,-2.3741,-2.3741,-2.3741,-2.3741,-2.35,-2.3207,-2.2899,-2.2928,-2.2928,-2.2928,-2.2928,-2.2928,-2.2914,-2.2846,-2.2914,-2.2832,-2.2832,-2.2832,-2.2832,-2.2832,-2.2979,-2.33,-2.33,-2.3447,-2.3754,-2.3754,-2.3768,-2.3781,-2.4062,-2.4195,-1.6112,-1.6994,-1.7836,-1.8223,-1.9065,-1.9867,-2.0174,-2.0388,-2.0416,-2.0129,-1.9976,-1.9763,-1.9493,-2.0027,-2.0695,-2.1104,-2.1962,-2.2632,-2.2901,-2.2779,-2.2565,-2.2178,-2.3186,0.0,0.0,0.0,0.0,-2.8809,-3.1288,-3.345,-3.5002,-3.5655,-3.6016,-3.6016,-3.6289,-3.6523,-3.668,-3.7226,-3.7578,-3.7715,-3.8008,-3.8144,-3.8144,-3.8301,-3.8437,-3.8574,-3.8574,-3.7805,-3.6571,-3.7272,-3.5979,-3.3549,-3.4244,-3.3641,-3.2413,-3.1598,-3.0801,-2.9732,-2.662,-2.5451,-2.5371,-2.5371,-2.517,-2.493,-2.493,-2.4796,-2.4636,-2.4636,-2.4636,-2.4636,-2.4636,-2.4636,-2.4636,-2.4636,-2.4636,-2.4609,-2.4516,-2.4489,-2.4409,-2.4115,-2.4062,-2.3995,-2.3808,-2.3768,-2.3768,-2.3768,-2.3514,-2.322,-2.2899,-2.2928,-2.2928,-2.2928,-2.3046,-2.3166,-2.3166,-2.3354,-2.346,-2.346,-2.346,-2.346,-2.346,-2.346,-2.3514,-2.3621,-2.3621,-2.3768,-2.4062,-2.4062,-2.4155,-2.4342,-2.4449,-2.4489,-1.7048,-1.7903,-1.8637,-1.9239,-1.9893,-2.0441,-2.0628,-2.0681,-2.0735,-2.0909,-2.0561,-2.0267,-2.0454,-2.0401,-2.0588,-2.139,-2.1764,-2.2164,-2.2779,-2.2686,-2.2445,-2.2178,-2.3088,-2.3534,0.0,0.0,0.0,-2.957,-3.2076,-3.4226,-3.5928,-3.6016,-3.6016,-3.6016,-3.6445,-3.6738,-3.6894,-3.7578,-3.8008,-3.8164,-3.8437,-3.8574,-3.8574,-3.8574,-3.8574,-3.8574,-3.8574,-3.7805,-3.6719,-3.8044,-3.7051,-3.4769,-3.6071,-3.583,-3.4619,-3.385,-3.3566,-3.2969,-2.8435,-2.733,-2.7611,-2.6112,-2.5998,-2.619,-2.5451,-2.5616,-2.5899,-2.5167,-2.5384,-2.5658,-2.4932,-2.4716,-2.4636,-2.4636,-2.4636,-2.4636,-2.4636,-2.4636,-2.4583,-2.4396,-2.4356,-2.4302,-2.4115,-2.4075,-2.4048,-2.3941,-2.3768,-2.3527,-2.322,-2.318,-2.318,-2.318,-2.3367,-2.3487,-2.3487,-2.3661,-2.3768,-2.3768,-2.3768,-2.3768,-2.3768,-2.3768,-2.3821,-2.3928,-2.3928,-2.4062,-2.4356,-2.4356,-2.4449,-2.4562,-2.4743,-2.4796,-1.8116,-1.8557,-1.8865,-1.9973,-2.0481,-2.0695,-2.0681,-2.0681,-2.0668,-2.0615,-1.9933,-1.939,-1.9336,0.0,-1.9305,-2.0441,-2.0909,-2.1537,-2.2699,-2.2378,-2.2124,0.0,0.0,0.0,0.0,0.0,0.0,-2.9375,0.0,-3.5547,-3.5996,-3.6016,-3.6016,-3.6016,-3.6445,-3.6875,-3.7285,-3.7734,-3.8164,-3.8574,-3.8574,-3.8574,-3.8574,-3.8574,-3.8574,-3.8574,-3.8574,-3.8574,-3.8574,-3.8574,-3.8574,-3.8574,-3.8574,-3.8574,-3.8336,-3.6423,-3.5682,-3.5085,-3.1115,-3.068,-3.1227,-2.7403,-2.7205,-2.8131,-2.6281,-2.7089,-2.8192,-2.6177,-2.6861,-2.7644,-2.5616,-2.489,-2.4676,-2.4663,-2.4663,-2.4649,-2.4562,-2.4636,-2.4636,-2.4636,-2.4636,-2.4636,-2.4636,-2.4636,-2.4543,-2.4262,-2.4222,-2.4115,-2.3808,-2.3768,-2.3768,-2.3768,-2.3781,-2.3794,-2.3794,-2.3808,-2.3808,-2.3808,-2.3808,-2.3808,-2.3808,-2.3808,-2.3941,-2.4222,-2.4222,-2.4369,-2.4636,-2.4636,-2.4649,-2.4663,-2.4943,-2.509,-1.8531,-1.9452,-2.0187,-2.0494,-2.0788,-2.0949,-2.0722,-2.0681,-2.0494,-1.9899,-1.9345,-1.8838,-1.8156,-1.8517,-1.9158,-1.9907,-2.0815,0.0,-2.2794,-2.2807,0.0,-2.2432,-2.3532,-2.4099,-2.3527,-2.7358,0.0,0.0,-3.2924,-3.5215,-3.5976,-3.6016,-3.6016,-3.6016,-3.6445,-3.6875,-3.7285,-3.8047,-3.8457,-3.8574,-3.8574,-3.8574,-3.8574,-3.8574,-3.8574,-3.8574,-3.8574,-3.8574,-3.8574,-3.8574,-3.8574,-3.8574,-3.8574,-3.8574,-3.8574,-3.8044,-3.7805,-3.7438,-3.4826,-3.2271,-2.9931,-2.8865,-2.7671,-2.6815,-2.7784,-2.8369,-2.8477,-2.7966,-2.8118,-2.7984,-2.5916,-2.5344,-2.5237,-2.5024,-2.497,-2.4903,-2.469,-2.4636,-2.4636,-2.4636,-2.4636,-2.4636,-2.4636,-2.4636,-2.4609,-2.4529,-2.4529,-2.4342,-2.3834,-2.3768,-2.3768,-2.3768,-2.3968,-2.4088,-2.4088,-2.4289,-2.4422,-2.4422,-2.4422,-2.4422,-2.4422,-2.4422,-2.4449,-2.4529,-2.4529,-2.4569,-2.4636,-2.4636,-2.4756,-2.497,-2.5037,-2.5197,-1.9252,-2.008,-2.0708,-2.0842,-2.0895,-2.0815,-2.0388,-2.0094,-1.9653,-1.8771,-1.8143,-1.7569,-1.6927,-1.7328,-1.8076,-1.9065,-2.0214,0.0,-2.2512,-2.2672,-2.2699,0.0,-2.3638,0.0,-2.5579,-2.829,-3.0638,0.0,-3.3775,-3.5078,-3.5976,-3.6016,-3.6016,-3.6016,-3.6621,-3.7246,-3.7851,-3.834,-3.8574,-3.8574,-3.8574,-3.8574,-3.8574,-3.8574,-3.8574,-3.8574,0.0,-3.8574,-3.8574,-3.8574,-3.8574,-3.8574,-3.8574,-3.8574,-3.8574,-3.8574,-3.8574,-3.8428,-3.7272,-3.4751,-3.1787,-2.9975,-2.9174,-2.8872,-2.9103,-3.0325,-3.143,-3.0545,-3.0884,-3.0756,-2.7792,-2.6946,-2.6578,-2.5531,-2.5277,-2.5224,-2.5064,-2.5024,-2.4983,-2.4863,-2.473,-2.4636,-2.4636,-2.4636,-2.4636,-2.4636,-2.4636,-2.4516,-2.4195,-2.4155,-2.4155,-2.4155,-2.4302,-2.4396,-2.4396,-2.4543,-2.4636,-2.4636,-2.4636,-2.4636,-2.4636,-2.4636,-2.4636,-2.4636,-2.477,-2.4836,-2.4836,-2.4957,-2.5104,-2.5277,-2.5411,-2.5558,-2.0067,-2.0508,-2.0802,-2.1042,-2.0895,-2.0508,-1.988,-1.9252,-1.8531,-1.7555,-1.6714,-1.6059,-1.5712,-1.6032,-1.6807,-1.825,-1.9466,-2.0748,-2.2205,-2.2418,-2.2645,-2.326,-2.3321,-2.4742,-2.8207,-2.8959,-3.0771,-3.445,-3.4555,-3.4871,-3.5908,-3.6016,-3.6035,-3.6094,-3.6875,-3.7676,-3.8476,-3.8555,-3.8574,-3.8574,-3.8574,-3.8574,-3.8574,-3.8574,-3.8574,-3.8574,-3.8574,0.0,-3.8574,-3.8574,-3.8574,-3.8574,-3.8574,-3.8574,-3.8574,-3.8574,-3.8574,-3.8574,-3.8574,-3.7272,-3.49,-3.1344,-3.1268,-3.2201,-3.0669,-3.27,-3.5124,-3.3398,-3.4,-3.4256,-3.0445,-2.9124,-2.822,-2.6399,-2.5801,-2.5558,-2.5518,-2.5518,-2.5438,-2.5184,-2.493,-2.4756,-2.4756,-2.4716,-2.469,-2.469,-2.4663,-2.4636,-2.4636,-2.4636,-2.4636,-2.4636,-2.4636,-2.4636,-2.4636,-2.4636,-2.4636,-2.4636,-2.4636,-2.4649,-2.469,-2.469,-2.4716,-2.4756,-2.501,-2.5144,-2.5144,-2.5384,-2.5531,-2.5585,-2.5838,-2.605,-2.0428,-2.0815,-2.1042,-2.1096,-2.0895,-2.0454,-1.9626,-1.8798,-1.7756,-1.637,-1.5818,-1.5391,-1.4843,-1.5778,-1.7034,-1.829,-1.9466,-2.0748,-2.2205,-2.2418,-2.2645,0.0,-2.4847,-2.572,-2.514,-2.781,0.0,0.0,-3.2271,-3.3792,-3.5928,-3.6016,-3.6191,-3.6543,-3.7031,-3.7539,-3.8027,-3.8398,-3.8574,-3.8574,-3.8574,-3.8574,-3.8574,-3.8574,-3.8574,-3.8574,-3.8574,0.0,-3.8574,-3.8574,-3.8574,-3.8574,-3.8574,-3.8574,-3.8574,-3.8574,-3.8574,-3.8574,-3.8574,-3.7272,-3.5348,-3.4658,-3.3549,-3.2733,-3.4076,-3.4975,-3.5422,-3.505,-3.522,-3.4869,-3.2482,-3.0606,-2.9133,-2.8559,-2.715,-2.5812,-2.5558,-2.5518,-2.5504,-2.5451,-2.5398,-2.5358,-2.5358,-2.5157,-2.4997,-2.4997,-2.4796,-2.4636,-2.4636,-2.4636,-2.4636,-2.4636,-2.4636,-2.4636,-2.4636,-2.4636,-2.4636,-2.4636,-2.4636,-2.4743,-2.4997,-2.4997,-2.5117,-2.5358,-2.5411,-2.5438,-2.5438,-2.5491,-2.5638,-2.5879,-2.601,-2.6092,-2.0374,-2.0775,-2.1069,-2.0922,-2.0548,-1.9907,-1.8704,-1.7756,-1.67,-1.5231,-1.4683,-1.4359,-1.4066,-1.5017,-1.6139,-1.7168,-1.833,-1.9607,-2.1283,-2.1643,-2.2138,-2.3193,-2.5281,-2.6343,-2.5698,-2.9174,-3.1617,-3.179,-3.3335,-3.4812,-3.5928,-3.6016,-3.623,-3.666,-3.709,-3.75,-3.791,-3.8359,-3.8574,-3.8574,-3.8574,-3.8574,-3.8574,-3.8574,-3.8574,-3.8574,-3.8574,0.0,-3.8574,-3.8574,-3.8574,-3.8574,-3.8574,-3.8574,-3.8574,-3.8574,-3.8574,-3.8574,-3.8574,-3.7951,-3.7106,-3.7106,-3.5738,-3.4226,-3.5199,-3.6275,-3.7106,-3.7106,-3.7106,-3.6664,-3.4601,-3.2565,-3.0699,-2.947,-2.7692,-2.6146,-2.5999,-2.5852,-2.5745,-2.5745,-2.5625,-2.5518,-2.5518,-2.5398,-2.5304,-2.5304,-2.5184,-2.509,-2.509,-2.509,-2.5037,-2.489,-2.4863,-2.493,-2.5077,-2.509,-2.509,-2.509,-2.509,-2.5157,-2.5304,-2.5304,-2.5371,-2.5504,-2.5665,-2.5745,-2.5745,-2.5892,-2.6039,-2.6186,-2.6186,-2.6253,-2.0294,-2.0708,-2.1042,-2.0748,-2.0241,-1.9399,-1.7836,-1.6754,-1.5671,-1.4202,-1.3654,-1.3427,-1.3493,-1.4215,-1.5156,-1.6161,-1.7411,-1.8823,-2.0382,-2.1132,-2.1954,-2.306,-2.5571,0.0,-2.7008,-3.0744,0.0,-3.317,-3.4952,0.0,-3.6016,-3.6016,-3.623,-3.666,-3.6992,-3.7402,-3.791,-3.8262,-3.8476,-3.8574,-3.8574,-3.8574,-3.8574,-3.8574,-3.8574,-3.8574,-3.8574,0.0,0.0,-3.8574,-3.8574,-3.8574,-3.8574,-3.8574,-3.8574,-3.8574,-3.8574,-3.8574,-3.8574,-3.8574,-3.8574,-3.8574,-3.7492,-3.6183,-3.6183,-3.7272,-3.8574,-3.8574,-3.8574,-3.819,-3.6571,-3.4301,-3.1896,-2.9371,-2.7541,-2.6386,-2.6386,-2.6213,-2.613,-2.613,-2.5865,-2.5705,-2.5705,-2.5651,-2.5611,-2.5611,-2.5558,-2.5518,-2.5518,-2.5518,-2.5451,-2.5291,-2.5211,-2.5264,-2.5491,-2.5518,-2.5518,-2.5518,-2.5518,-2.5545,-2.5598,-2.5611,-2.5638,-2.5705,-2.5932,-2.613,-2.613,-2.6279,-2.6386,-2.6386,-2.6453,-2.648,-2.0494,-2.0869,-2.1042,-2.0748,-2.0241,-1.9345,-1.7648,-1.6348,-1.5057,-1.3587,-1.3039,-1.2958,-1.32,-1.3761,-1.4629,-1.6094,-1.7896,-1.9358,-2.0166,-2.1788,-2.2936,-2.2957,0.0,0.0,-2.715,-3.0744,-3.317,-3.317,-3.4952,0.0,-3.6016,-3.6016,-3.623,-3.666,-3.6719,-3.7109,-3.791,-3.7969,-3.8184,-3.8574,-3.8574,-3.8574,-3.8574,-3.8574,-3.8574,-3.8574,-3.8574,0.0,0.0,-3.8574,-3.8574,-3.8574,-3.8574,-3.8574,-3.8574,-3.8574,-3.8574,-3.8574,-3.8574,-3.8574,-3.8574,-3.8574,-3.8501,-3.8336,-3.8336,-3.8428,-3.8574,-3.8574,-3.8574,-3.8574,-3.8336,-3.5458,-3.1513,-2.7619,-2.6544,-2.6386,-2.6386,-2.6373,-2.6346,-2.6346,-2.6333,-2.6306,-2.6306,-2.6092,-2.5919,-2.5919,-2.5692,-2.5518,-2.5518,-2.5518,-2.5611,-2.5929,-2.5638,-2.5478,-2.5504,-2.5518,-2.5518,-2.5518,-2.5518,-2.5638,-2.5905,-2.5919,-2.6039,-2.6306,-2.6333,-2.6346,-2.6346,-2.6373,-2.6386,-2.64,-2.6653,-2.6787,-2.0201,-2.0628,-2.0775,-2.0481,-1.9973,-1.9025,-1.7112,-1.5893,-1.4754,-1.328,-1.273,-1.261,-1.2918,-1.3159,-1.3981,-1.5946,-1.6964,-1.8258,-2.0533,-2.1923,-2.3173,-2.4381,-2.7931,0.0,0.0,0.0,-3.4883,-3.4883,0.0,0.0,-3.6016,-3.6016,-3.6094,-3.6269,-3.6543,-3.6953,-3.7539,-3.7793,-3.8144,-3.8574,-3.8574,-3.8574,-3.8574,-3.8574,-3.8574,-3.8574,-3.8574,0.0,0.0,-3.8574,-3.8574,-3.8574,-3.8574,-3.8574,-3.8574,-3.8574,-3.8574,-3.8574,-3.8574,-3.8574,-3.8574,-3.8574,-3.8574,-3.8574,-3.8574,-3.8574,-3.8574,-3.8574,-3.8574,-3.8574,-3.8574,-3.5533,-3.1437,-2.7384,-2.6386,-2.6386,-2.6386,-2.6386,-2.6386,-2.6386,-2.6386,-2.6386,-2.6386,-2.6293,-2.6213,-2.6213,-2.6119,-2.6039,-2.6039,-2.6039,-2.6092,-2.6199,-2.5959,-2.5852,-2.6026,-2.6039,-2.6039,-2.6039,-2.6039,-2.6092,-2.6213,-2.6213,-2.6266,-2.6386,-2.6386,-2.6386,-2.6386,-2.6386,-2.648,-2.6653,-2.6774,-2.6921,-1.9733,-2.0254,-2.0468,-2.0174,-1.9599,-1.8584,-1.6593,-1.5458,-1.4402,-1.2958,-1.2452,-1.2358,-1.261,-1.2982,-1.3871,-1.5711,-1.6849,-1.8378,-2.0817,-2.2272,-2.3535,-2.4935,0.0,-2.9917,0.0,-3.3471,-3.6016,-3.6016,0.0,0.0,-3.6016,-3.6016,-3.6016,-3.6016,-3.6309,-3.668,-3.7109,-3.7539,-3.7949,-3.8379,-3.8516,-3.8574,-3.8574,-3.8574,-3.8574,-3.8574,-3.8574,0.0,0.0,-3.8574,-3.8574,-3.8574,-3.8574,-3.8574,-3.8574,-3.8574,-3.8574,-3.8574,-3.8574,-3.8574,-3.8574,-3.8574,-3.8574,-3.8574,-3.8574,-3.8574,-3.8574,-3.8574,-3.8574,-3.8336,-3.7125,-3.4694,-3.1437,-2.7384,-2.6386,-2.6386,-2.6386,-2.6386,-2.6386,-2.6386,-2.6386,-2.6386,-2.6386,-2.6386,-2.6386,-2.6386,-2.6386,-2.6386,-2.6386,-2.6386,-2.6386,-2.6386,-2.6199,-2.6159,-2.6373,-2.6386,-2.6386,-2.6386,-2.6386,-2.6386,-2.6386,-2.6386,-2.6386,-2.6386,-2.6386,-2.6426,-2.652,-2.652,-2.6667,-2.6961,-2.7041,-2.7241,-1.9132,-1.98,-2.0174,-1.988,-1.9145,-1.8036,-1.6246,-1.5105,-1.4108,-1.2612,-1.2305,-1.2305,-1.2305,-1.3429,-1.4607,-1.5193,-1.8151,-2.0447,-2.0753,-2.2877,-2.4293,0.0,0.0,-2.8731,-3.0041,-3.3719,-3.6016,-3.6016,0.0,0.0,-3.6016,-3.6016,-3.6016,-3.6016,-3.6016,-3.623,-3.668,-3.709,-3.7519,-3.793,-3.8359,-3.8574,-3.8574,-3.8574,-3.8574,0.0,0.0,0.0,0.0,-3.8574,-3.8574,-3.8574,-3.8574,-3.8574,-3.8574,-3.8574,-3.8574,-3.8574,-3.8574,-3.8574,-3.8574,-3.8574,-3.8574,-3.8574,-3.8574,-3.8574,-3.8574,-3.8574,-3.8574,-3.7658,-3.3641,-3.2505,-3.1437,-2.7384,-2.6386,-2.6386,-2.6386,-2.6386,-2.6386,-2.6386,-2.6386,-2.6386,-2.6386,-2.6386,-2.6386,-2.6386,-2.6386,-2.6386,-2.6386,-2.6386,-2.6386,-2.6386,-2.6386,-2.6386,-2.6386,-2.6386,-2.6386,-2.6386,-2.6386,-2.6386,-2.6386,-2.6386,-2.6386,-2.6386,-2.6386,-2.6533,-2.6814,-2.6814,-2.6974,-2.7268,-2.7549,-2.7856,-1.7661,-1.813,-1.8357,-1.8117,-1.7622,-1.686,-1.5297,-1.4563,-1.3854,-1.2572,-1.2305,-1.2305,-1.2305,-1.3169,-1.4774,-1.7408,-1.9274,-2.1071,-2.3,-2.5214,0.0,-2.4961,-2.7029,-2.9426,0.0,0.0,-3.2088,-3.2088,0.0,0.0,-3.4089,-3.5295,-3.6016,-3.6016,-3.6016,-3.623,-3.666,-3.6797,-3.709,-3.75,-3.793,-3.8125,-3.8144,-3.8437,-3.8574,0.0,0.0,0.0,0.0,-3.8574,-3.8574,-3.8574,-3.8574,-3.8574,-3.8574,-3.8574,-3.8574,-3.8574,-3.8574,-3.8574,-3.8574,-3.8574,-3.8574,-3.8574,-3.8574,-3.8574,-3.8574,-3.8574,-3.7566,-3.5905,-3.3171,-3.1437,-2.9681,-2.7004,-2.6386,-2.6386,-2.6386,-2.6386,-2.6386,-2.6386,-2.6386,-2.6386,-2.6386,-2.6386,-2.6386,-2.6386,-2.6386,-2.6386,-2.6386,-2.6386,-2.6386,-2.6386,-2.6386,-2.6386,-2.6386,-2.6386,-2.6386,-2.6386,-2.6386,-2.6386,-2.6386,-2.6386,-2.6386,-2.6386,-2.6587,-2.6734,-2.6827,-2.7028,-2.7268,-2.7562,-2.7869,-2.814,-1.6286,-1.6941,-1.7208,-1.7021,-1.6593,-1.5912,-1.4776,-1.4122,-1.348,-1.2505,-1.2305,-1.2305,-1.2305,-1.3514,-1.5221,-1.7449,-1.9434,-2.14,-2.3407,-2.5063,0.0,-2.5006,0.0,0.0,0.0,-3.0491,-3.031,0.0,0.0,0.0,-3.317,-3.4952,-3.6016,-3.6016,-3.6016,-3.6152,-3.6426,-3.6582,-3.6797,-3.707,-3.748,-3.7676,-3.7695,-3.8125,-3.832,0.0,0.0,0.0,0.0,-3.8574,-3.8574,-3.8574,-3.8574,-3.8574,-3.8574,-3.8574,-3.8574,-3.8574,-3.8574,-3.8574,-3.8574,-3.8574,-3.8574,-3.8574,-3.8574,-3.8574,-3.8574,-3.8574,-3.7106,-3.505,-3.302,-3.0977,-2.8905,-2.6847,-2.6386,-2.6386,-2.6386,-2.6386,-2.6386,-2.6386,-2.6386,-2.6386,-2.6386,-2.6386,-2.6386,-2.6386,-2.6386,-2.6386,-2.6386,-2.6386,-2.6386,-2.6386,-2.6386,-2.6386,-2.6386,-2.6386,-2.6386,-2.6386,-2.6386,-2.6386,-2.6386,-2.6493,-2.6547,-2.6547,-2.6841,-2.7041,-2.7148,-2.7455,-2.7696,-2.7869,-2.814,-2.8221,0.0,-1.6005,-1.6486,-1.646,-1.5845,-1.5097,-1.4522,-1.3748,0.0,-1.2398,-1.2251,-1.2288,-1.2429,-1.4271,-1.583,-1.6141,-1.9058,-2.1559,-2.2392,-2.2884,0.0,0.0,-2.5821,0.0,-2.7784,-2.907,-2.9851,0.0,0.0,0.0,-3.2804,-3.4727,-3.5811,-3.5811,-3.5947,-3.6016,-3.6016,-3.6426,-3.6621,-3.6641,-3.7051,-3.7246,-3.7266,-3.7695,-3.7871,0.0,0.0,0.0,0.0,-3.8535,-3.8555,-3.8574,-3.8574,-3.8574,-3.8574,-3.8574,-3.8574,-3.8574,-3.8574,-3.8574,-3.8574,-3.8574,-3.8574,-3.8574,-3.8428,-3.8336,-3.8336,-3.8336,-3.6811,-3.4676,-3.2717,-3.0746,-2.8764,-2.6847,-2.6386,-2.6386,-2.6386,-2.6386,-2.6386,-2.6386,-2.6386,-2.6386,-2.6386,-2.6386,-2.6386,-2.6386,-2.6386,-2.6386,-2.6386,-2.6386,-2.6386,-2.6386,-2.6386,-2.6386,-2.6386,-2.6386,-2.6386,-2.6386,-2.6413,-2.6426,-2.6426,-2.6694,-2.6854,-2.6854,-2.7148,-2.7442,-2.7736,-2.8003,-2.8221,-2.8221,-2.8221,-2.8221,-1.2703,0.0,-1.4266,-1.4082,-1.3881,-1.3627,0.0,-1.2826,-1.2412,-1.2087,-1.1784,-1.2107,-1.3756,-1.4545,-1.602,-1.9317,-2.1146,-2.2274,-2.241,-2.1989,0.0,-2.613,-2.493,-2.4617,-2.6603,-2.6081,-2.5737,0.0,0.0,-2.8844,-2.8844,-3.2036,-3.3882,-3.3882,-3.5245,-3.6016,-3.6016,-3.6113,-3.6172,-3.6172,-3.6621,-3.6816,-3.6836,-3.7246,-3.7441,0.0,0.0,0.0,-3.8086,-3.8086,-3.8281,-3.8574,-3.8574,-3.8574,-3.8574,-3.8574,-3.8574,-3.8574,-3.8574,-3.8574,-3.8574,-3.8574,-3.8574,-3.8263,-3.6719,-3.6275,-3.6275,-3.6275,-3.3607,-3.0731,-3.0284,-2.8608,-2.7004,-2.6544,-2.6386,-2.6386,-2.6386,-2.6386,-2.6386,-2.6386,-2.6386,-2.6386,-2.6386,-2.6386,-2.6386,-2.6386,-2.6386,-2.6386,-2.6386,-2.6386,-2.6386,-2.6386,-2.6386,-2.6386,-2.6386,-2.6386,-2.6386,-2.6386,-2.66,-2.672,-2.672,-2.7001,-2.7161,-2.7161,-2.7455,-2.7736,-2.8043,-2.8194,-2.8221,-2.8221,-2.8221,-2.8221,-1.1497,-1.2438,-1.336,-1.3253,-1.3106,-1.2998,-1.2824,-1.2342,-1.1864,-1.1703,-1.1543,-1.1923,-1.3699,-1.4692,-1.6049,-1.8388,-2.034,0.0,0.0,0.0,-2.2482,-2.4675,-2.3697,-2.3447,0.0,-2.4501,-2.4262,0.0,0.0,-2.7505,-2.7505,-3.0255,-3.2316,-3.317,-3.4158,-3.5158,-3.6016,-3.6016,-3.6016,-3.6016,-3.625,-3.6367,-3.6387,-3.6816,-3.7012,0.0,0.0,0.0,-3.7656,-3.7851,-3.8066,-3.8301,-3.8496,-3.8024,-3.7179,-3.7179,-3.659,-3.5905,-3.6885,-3.7805,-3.8574,-3.8574,-3.8574,-3.819,-3.6109,-3.4826,-3.4151,-3.4151,-3.1879,-2.9371,-2.9371,-2.7919,-2.6386,-2.6386,-2.6386,-2.6386,-2.6386,-2.6386,-2.6386,-2.6386,-2.6386,-2.6386,-2.6386,-2.6507,-2.6587,-2.6587,-2.6707,-2.6787,-2.6787,-2.6787,-2.6787,-2.6787,-2.6787,-2.6787,-2.6787,-2.6787,-2.6734,-2.66,-2.6867,-2.7028,-2.7028,-2.7308,-2.7522,-2.7752,-2.7829,-2.7976,-2.8221,-2.8221,-2.8221,-2.8221,-2.8221,-2.8221,-1.1089,-1.2118,-1.312,-1.3026,-1.2918,-1.277,-1.273,-1.2064,-1.149,-1.149,-1.1429,-1.1902,-1.3595,-1.5114,-1.6258,-1.6768,-1.8846,0.0,-2.129,-2.1788,-2.2196,-2.2378,-2.2686,0.0,-2.33,-2.3781,0.0,0.0,0.0,-2.6923,-2.6923,-2.8719,-3.058,-3.2228,-3.2856,-3.3951,-3.5587,-3.5879,-3.6016,-3.6016,-3.6016,-3.6016,-3.6035,-3.6406,-3.6562,-3.6601,0.0,0.0,-3.6784,-3.7436,-3.7435,-3.7066,-3.772,-3.6829,-3.505,-3.505,-3.3926,-3.2809,-3.4826,-3.6885,-3.8574,-3.8263,-3.8117,-3.7658,-3.5274,-3.3398,-3.1972,-3.1666,-3.0284,-2.8905,-2.8905,-2.7684,-2.6386,-2.6386,-2.6386,-2.6386,-2.6386,-2.6386,-2.64,-2.6453,-2.6453,-2.6466,-2.652,-2.672,-2.6894,-2.6894,-2.7108,-2.7268,-2.7268,-2.7268,-2.7268,-2.7268,-2.7268,-2.7268,-2.7268,-2.7308,-2.7228,-2.6974,-2.7188,-2.7348,-2.7484,-2.7642,-2.7883,-2.8221,-2.8221,-2.8221,-2.8221,-2.8221,-2.8221,-2.8221,-2.8221,-2.8221,-1.1564,-1.2301,-1.273,-1.2234,-1.2449,-1.2717,-1.2425,-1.2078,-1.1832,-1.1832,-1.1597,-1.248,-1.601,-1.6636,-1.7518,-2.0272,-2.0248,-2.0369,0.0,0.0,-2.1578,-2.2298,0.0,-2.2979,-2.33,-2.3407,0.0,0.0,0.0,-2.4388,-2.4388,-2.6354,-2.7611,-2.7965,-3.1355,-3.3309,-3.3605,-3.5226,-3.6016,-3.6016,-3.6016,-3.6016,-3.6016,-3.6094,-3.6113,-3.6133,0.0,-3.547,-3.4492,-3.6169,-3.5293,-3.3078,-3.4772,-3.4468,-3.2944,-3.2944,-3.2809,-3.2809,-3.4826,-3.6885,-3.8336,-3.6571,-3.5961,-3.5274,-3.1481,-3.013,-2.9526,-2.7841,-2.7083,-2.6847,-2.6847,-2.6623,-2.6386,-2.6386,-2.6386,-2.6386,-2.6386,-2.6386,-2.6466,-2.6707,-2.676,-2.6841,-2.7081,-2.7161,-2.7201,-2.7201,-2.7241,-2.7268,-2.7268,-2.7268,-2.7268,-2.7268,-2.7268,-2.7268,-2.7268,-2.7495,-2.7615,-2.7562,-2.7602,-2.7749,-2.8087,-2.814,-2.8181,-2.8221,-2.8221,-2.8221,-2.8221,-2.8221,-2.8221,-2.8221,-2.8221,-2.8221,-1.1082,-1.1739,-1.2288,-1.2167,-1.2786,-1.3387,-1.3093,-1.2799,-1.2599,-1.2599,-1.2492,-1.313,-1.563,-1.6594,-1.7842,-2.0454,-1.9991,-1.9864,-2.1446,-2.1497,-2.167,0.0,0.0,-2.2926,-2.306,-2.322,0.0,0.0,0.0,0.0,-2.3768,-2.4717,-2.6252,-2.8506,-3.0436,-3.2452,-3.4659,-3.5587,-3.6016,-3.6016,-3.6016,-3.6016,-3.6016,-3.6016,-3.5451,-3.4521,0.0,-3.3487,-3.2014,-3.3162,-3.2802,-3.1546,-3.2833,-3.2209,-3.0496,-2.9544,-3.0592,-3.2657,-3.3549,-3.5979,-3.8263,-3.6183,-3.5497,-3.4751,-3.0654,-2.9371,-2.8983,-2.7004,-2.6386,-2.6386,-2.6386,-2.6386,-2.6386,-2.6386,-2.6386,-2.6426,-2.6587,-2.6627,-2.6707,-2.7001,-2.7068,-2.7108,-2.7241,-2.7402,-2.7495,-2.7495,-2.7642,-2.7819,-2.7819,-2.7819,-2.7819,-2.7819,-2.7819,-2.7819,-2.7819,-2.7869,-2.7936,-2.7936,-2.7936,-2.8003,-2.8221,-2.8221,-2.8221,-2.8221,-2.8221,-2.8221,-2.8221,-2.8221,-2.8221,-2.8221,-2.8221,-2.8221,-1.0948,-1.1497,-1.21,-1.2425,-1.3146,-1.3788,-1.38,-1.3586,-1.3467,-1.3681,-1.3667,-1.4049,-1.5436,-1.7128,-1.8822,-2.0658,-2.0258,-2.0105,-2.1092,-2.147,-2.2016,-2.2766,-2.2928,-2.2928,-2.2928,0.0,0.0,0.0,0.0,0.0,-2.3554,-2.3634,-2.5271,-2.8894,-2.9461,-3.1495,-3.5141,-3.5656,-3.5918,-3.6016,-3.6016,-3.6016,-3.6016,-3.6016,-3.4952,-3.317,-3.317,-3.1808,-2.9702,-3.0535,-3.0339,-2.9701,-3.0766,-2.9988,-2.8197,-2.6922,-2.8997,-3.2505,-3.2505,-3.516,-3.819,-3.5664,-3.4826,-3.4059,-2.9975,-2.8686,-2.8374,-2.6847,-2.6386,-2.6386,-2.6386,-2.6386,-2.6386,-2.6386,-2.644,-2.6547,-2.6774,-2.6881,-2.7014,-2.7308,-2.7362,-2.7388,-2.7455,-2.7655,-2.7802,-2.7802,-2.8003,-2.8221,-2.8221,-2.8221,-2.8221,-2.8221,-2.8221,-2.8221,-2.8221,-2.8221,-2.8221,-2.8221,-2.8221,-2.8221,-2.8221,-2.8221,-2.8221,-2.8221,-2.8221,-2.8221,-2.8221,-2.8221,-2.8221,-2.8221,-2.8221,-2.8221,-1.1957,-1.2225,-1.2412,-1.2999,-1.2986,-1.3159,-1.4215,-1.4229,-1.4255,-1.507,-1.5017,-1.5407,-1.7171,-1.962,-2.1704,-2.263,-2.2502,-2.2072,-2.1646,0.0,-2.2178,-2.2861,-2.2928,-2.2928,-2.2928,0.0,0.0,0.0,0.0,0.0,-2.2926,-2.3207,-2.4247,-2.6223,-2.8216,-3.0412,-3.2748,-3.4518,-3.5625,-3.6016,-3.6016,-3.6016,-3.6016,-3.6016,-3.4952,-3.317,-3.317,-3.1121,-2.7852,-2.9631,-2.8412,-2.5766,-2.7863,-2.7841,-2.6596,-2.6452,-2.8997,-3.2505,-3.2505,-3.516,-3.797,-3.4018,-3.2733,-3.1956,-2.7841,-2.6623,-2.6623,-2.6465,-2.6386,-2.6386,-2.6386,-2.6386,-2.6386,-2.6386,-2.66,-2.68,-2.6814,-2.7041,-2.7321,-2.7615,-2.7669,-2.7749,-2.8114,-2.8181,-2.8194,-2.8194,-2.8207,-2.8221,-2.8221,-2.8221,-2.8221,-2.8221,-2.8221,-2.8221,-2.8221,-2.8221,-2.8221,-2.8221,-2.8221,-2.8221,-2.8221,-2.8221,-2.8221,-2.8221,-2.8221,-2.8221,-2.8221,-2.8221,-2.8221,-2.8221,-2.8221,-2.8221,-1.1396,-1.1891,-1.2452,-1.3053,-1.3534,-1.4015,-1.4656,-1.5271,-1.5858,-1.6429,-1.6442,-1.6875,-1.8572,-1.9959,-2.1168,-2.2133,-2.2374,-2.228,-2.1686,-2.1804,-2.2138,-2.2539,-2.2752,-2.2928,0.0,0.0,0.0,0.0,0.0,0.0,-2.2928,-2.4036,-2.5597,-2.7681,-2.958,-3.1666,-3.3842,-3.4901,-3.5469,-3.5625,-3.5898,-3.6016,-3.5947,-3.4796,-3.324,-3.1316,-3.0184,-2.8141,-2.5786,-2.6488,-2.5988,-2.4924,-2.6136,-2.6438,-2.6146,-2.6319,-2.8997,-3.2505,-3.2505,-3.516,-3.797,-3.3868,-3.2505,-3.1743,-2.7619,-2.6386,-2.6386,-2.6386,-2.6386,-2.6386,-2.6386,-2.6386,-2.6386,-2.6386,-2.6613,-2.6867,-2.7054,-2.7335,-2.7615,-2.7923,-2.7976,-2.8003,-2.8207,-2.8221,-2.8221,-2.8221,-2.8221,-2.8221,-2.8221,-2.8221,-2.8221,-2.8221,-2.8221,-2.8221,-2.8221,-2.8221,-2.8221,-2.8221,-2.8221,-2.8221,-2.8221,-2.8221,-2.8221,-2.8221,-2.8221,-2.8221,-2.8221,-2.8221,-2.8221,-2.8221,-2.8221,-2.8221,-1.1049,-1.157,-1.2305,-1.2919,-1.3801,-1.4643,-1.5124,-1.6072,-1.6981,-1.7527,-1.7541,-1.7918,-1.9354,-2.0367,-2.1156,0.0,-2.2523,-2.281,-2.1737,-2.1789,-2.1951,-2.2245,-2.2539,-2.2726,0.0,0.0,0.0,0.0,0.0,0.0,0.0,-2.4858,-2.6682,-2.9374,-3.0596,-3.2255,-3.4492,-3.4824,-3.4832,-3.448,-3.4765,-3.4956,-3.5089,-3.3812,-3.1825,-2.9329,-2.8068,-2.643,-2.4636,-2.4636,-2.469,-2.4823,-2.5317,-2.6063,-2.6967,-2.7273,-2.9898,-3.3473,-3.3473,-3.5291,-3.7051,-3.3641,-3.2048,-3.09,-2.7462,-2.6386,-2.6386,-2.6386,-2.6386,-2.6386,-2.6386,-2.6386,-2.6386,-2.6386,-2.6613,-2.6907,-2.7201,-2.7495,-2.7789,-2.8167,-2.8221,-2.8221,-2.8221,-2.8221,-2.8221,-2.8221,-2.8221,-2.8221,-2.8221,-2.8221,-2.8221,-2.8221,-2.8221,-2.8221,-2.8221,-2.8221,-2.8221,-2.8221,-2.8221,-2.8221,-2.8221,-2.8221,-2.8221,-2.8221,-2.8221,-2.8221,-2.8221,-2.8221,-2.8221,-2.8221,-2.8221,-2.8221,-1.1156,-1.1423,-1.206,-1.265,-1.3654,-1.4763,-1.5598,-1.6526,-1.746,-1.8303,-1.8237,-1.8358,-1.939,-2.1199,-2.225,-2.1549,-2.3284,-2.3982,-2.1929,-2.1614,-2.1722,-2.1951,-2.2231,0.0,0.0,0.0,0.0,0.0,0.0,0.0,0.0,-2.5517,-2.7156,-3.0707,-3.0836,-3.1893,-3.4062,-3.4082,-3.3557,-3.2489,-3.2489,-3.2705,-3.317,-3.317,-3.1121,-2.7505,-2.7505,-2.6357,-2.4636,-2.4636,-2.481,-2.5104,-2.5398,-2.6954,-2.9,-2.9237,-3.194,-3.5497,-3.5422,-3.5422,-3.5124,-3.3095,-3.1054,-2.8983,-2.7004,-2.6386,-2.6386,-2.6386,-2.6386,-2.6386,-2.6386,-2.6386,-2.6386,-2.6386,-2.6613,-2.6907,-2.7201,-2.7495,-2.7789,-2.8167,-2.8221,-2.8221,-2.8221,-2.8221,-2.8221,-2.8221,-2.8221,-2.8221,-2.8221,-2.8221,-2.8221,-2.8221,-2.8221,-2.8221,-2.8221,-2.8221,-2.8221,-2.8221,-2.8221,-2.8221,-2.8221,-2.8221,-2.8221,-2.8221,-2.8221,-2.8221,-2.8221,-2.8221,-2.8221,-2.8221,-2.8221,-2.8221,-1.0935,-1.1605,-1.2663,-1.3227,-1.4576,-1.5979,-1.686,-1.7422,-1.7956,-1.8651,-1.8718,-1.8932,-2.0067,-2.0963,0.0,-2.3222,-2.4252,-2.4423,-2.3183,-2.3174,-2.29,-2.1865,-2.1937,0.0,0.0,0.0,0.0,0.0,0.0,0.0,0.0,-2.6706,-2.8427,-3.0707,-3.1963,-3.295,-3.3613,-3.3926,-3.3921,-3.3631,-3.2636,-3.1888,-3.1104,-2.9757,-2.8573,-2.7433,-2.6064,-2.5139,-2.4636,-2.4636,-2.469,-2.4796,-2.509,-2.6645,-2.8581,-2.7403,-2.9701,-3.3171,-3.1727,-3.2184,-3.302,-3.0961,-2.9898,-2.8983,-2.7004,-2.6386,-2.6386,-2.6386,-2.6386,-2.6386,-2.6386,-2.6386,-2.6386,-2.6386,-2.6613,-2.6854,-2.6934,-2.7188,-2.7482,-2.7776,-2.7829,-2.7896,-2.8194,-2.8221,-2.8221,-2.8221,-2.8221,-2.8221,-2.8221,-2.8221,-2.8221,-2.8221,-2.8221,-2.8221,-2.8221,-2.8221,-2.8221,-2.8221,-2.8221,-2.8221,-2.8221,-2.8221,-2.8221,-2.8221,-2.8221,-2.8221,-2.8221,-2.8221,-2.8221,-2.8221,-2.8221,-2.8221,-1.1363,-1.2114,-1.3133,-1.3961,-1.5137,-1.642,-1.7662,-1.817,-1.8517,-1.8998,-1.8998,-1.909,-1.9764,-2.0586,0.0,-2.3225,-2.4259,-2.4569,-2.3716,-2.3738,-2.3243,-2.1632,0.0,0.0,0.0,0.0,0.0,0.0,0.0,0.0,0.0,-2.7635,-2.9344,-3.1771,-3.2829,-3.3418,-3.3418,-3.3691,-3.3502,-3.2925,-3.1438,-3.002,-2.8703,-2.7722,-2.6938,-2.6284,-2.5139,-2.4636,-2.4636,-2.5419,-2.5786,-2.5814,-2.6122,-2.8029,-3.0387,-2.8046,-2.9839,-3.3211,-3.1297,-3.09,-3.1054,-2.9821,-2.8827,-2.7997,-2.6768,-2.6386,-2.6386,-2.6386,-2.6386,-2.6386,-2.6386,-2.6386,-2.6386,-2.6386,-2.652,-2.668,-2.68,-2.6961,-2.7215,-2.7615,-2.7602,-2.7615,-2.7909,-2.7963,-2.7963,-2.7963,-2.8154,-2.8221,-2.8221,-2.8221,-2.8221,-2.8221,-2.8221,-2.8221,-2.8221,-2.8221,-2.8221,-2.8221,-2.8221,-2.8221,-2.8221,-2.8221,-2.8221,-2.8221,-2.8221,-2.8221,-2.8221,-2.8221,-2.8221,-2.8221,-2.8221,-2.8221,-1.2078,-1.2746,-1.3561,-1.4754,-1.5538,-1.65,-1.8116,-1.8731,-1.9038,-1.9319,-1.9158,-1.8958,-1.8958,-2.0047,-2.129,-2.2248,-2.3795,-2.4671,-2.3855,-2.3792,-2.3139,0.0,0.0,0.0,0.0,0.0,0.0,0.0,0.0,0.0,0.0,-2.8377,-2.9895,-3.3292,-3.3418,-3.3418,-3.3418,-3.3418,-3.2765,-3.1396,-2.9461,-2.7892,-2.6598,-2.6676,-2.5969,-2.4636,-2.4636,-2.471,-2.4991,-2.6794,-2.7578,-2.7738,-2.8039,-3.0477,-3.3393,-3.0277,-3.1521,-3.4386,-3.2718,-3.0792,-2.9138,-2.9138,-2.7919,-2.6386,-2.6386,-2.6386,-2.6386,-2.6386,-2.6386,-2.6386,-2.6386,-2.6386,-2.6386,-2.6386,-2.6386,-2.6466,-2.672,-2.6787,-2.6947,-2.7509,-2.7402,-2.7321,-2.7602,-2.7655,-2.7669,-2.7696,-2.7949,-2.8221,-2.8221,-2.8221,-2.8221,-2.8221,-2.8221,-2.8221,-2.8221,-2.8221,-2.8221,-2.8221,-2.8221,-2.8221,-2.8221,-2.8221,-2.8221,-2.8221,-2.8221,-2.8221,-2.8221,-2.8221,-2.8221,-2.8221,-2.8221,-2.8221,-1.1637,-1.2732,-1.4122,-1.507,-1.662,-1.8023,-1.8397,-1.8891,-1.9292,-1.9417,-1.9319,-1.9265,-1.9265,-1.9554,-2.0673,-2.3559,-2.4606,-2.506,-2.4951,0.0,0.0,0.0,0.0,0.0,0.0,0.0,0.0,0.0,0.0,0.0,-2.9584,-2.9747,-3.0865,-3.3335,-3.3418,-3.3418,-3.3418,-3.3418,-3.3267,0.0,-2.9809,-2.821,-2.8028,-2.5825,-2.4707,-2.4636,-2.4636,-2.5492,-2.6939,-2.736,-2.8341,-2.9686,-2.9767,-3.1463,-3.3553,-3.1254,-3.1301,-3.2185,-3.0249,-2.8482,-2.7083,-2.7083,-2.6768,-2.6386,-2.6386,-2.6386,-2.6386,-2.6386,-2.6386,-2.6386,-2.6386,-2.6386,-2.6386,-2.6386,-2.6386,-2.6413,-2.6466,-2.648,-2.6587,-2.6947,-2.6961,-2.7014,-2.7308,-2.7362,-2.7442,-2.7669,-2.7949,-2.8221,-2.8221,-2.8221,-2.8221,-2.8221,-2.8221,-2.8221,-2.8221,-2.8221,-2.8221,-2.8221,-2.8221,-2.8221,-2.8221,-2.8221,-2.8221,-2.8221,-2.8221,-2.8221,-2.8221,-2.8221,-2.8221,-2.8221,-2.8221,-2.8221,-1.2091,-1.3267,-1.4603,-1.5912,-1.7261,-1.8277,-1.8277,-1.8731,-1.9158,-1.9158,-1.9265,-1.943,-1.943,-1.943,-2.0528,-2.3918,-2.4704,-2.5177,-2.6319,0.0,0.0,0.0,0.0,0.0,0.0,0.0,0.0,0.0,0.0,-2.5834,-2.9637,-2.9843,-3.0858,-3.3043,-3.3125,-3.3223,-3.3418,-3.3418,-3.2956,-3.2091,-2.9474,-2.7429,-2.604,-2.4773,-2.4289,-2.4436,-2.551,-2.6575,-2.765,-2.9488,-3.0822,-3.1667,-3.1667,-3.2999,-3.4422,-3.0733,-3.0339,-3.1118,-2.8377,-2.6978,-2.6386,-2.6386,-2.6386,-2.6386,-2.6386,-2.6386,-2.6386,-2.6386,-2.6386,-2.6386,-2.6386,-2.6386,-2.6386,-2.6386,-2.6386,-2.6386,-2.6386,-2.6386,-2.648,-2.676,-2.6707,-2.6707,-2.7001,-2.7175,-2.7415,-2.7843,-2.8127,-2.8221,-2.8221,-2.8221,-2.8221,-2.8221,-2.8221,-2.8221,-2.8221,-2.8221,-2.8221,-2.8221,-2.8221,-2.8221,-2.8221,-2.8221,-2.8221,-2.8221,-2.8221,-2.8221,-2.8221,-2.8221,-2.8221,-2.8221,-2.8221,-2.8221,-1.2478,-1.3761,-1.507,-1.6777,-1.7595,-1.7995,-1.7995,-1.8408,-1.8851,-1.8851,-1.9118,-1.943,-1.943,-1.943,-2.0513,-2.3837,-2.4447,-2.5212,0.0,0.0,0.0,0.0,0.0,0.0,0.0,0.0,0.0,0.0,0.0,-2.5971,-2.9676,-2.9552,-3.0451,-3.2614,-3.2754,-3.2969,-3.3301,-3.3379,-3.2556,-3.0771,-2.8755,-2.6139,-2.326,-2.3808,-2.4246,-2.4774,-2.659,-2.7791,-2.8716,-3.1895,-3.3378,-3.3674,-3.3674,-3.4659,-3.5421,-3.0601,-2.9765,-3.0688,-2.7497,-2.6378,-2.6319,-2.6373,-2.6386,-2.6386,-2.6386,-2.6386,-2.6386,-2.6386,-2.6386,-2.6386,-2.6386,-2.6386,-2.6386,-2.6386,-2.6386,-2.6386,-2.6386,-2.6386,-2.6466,-2.6694,-2.656,-2.6466,-2.6707,-2.6987,-2.7348,-2.7843,-2.8047,-2.8073,-2.8073,-2.8127,-2.8154,-2.8154,-2.8194,-2.8221,-2.8221,-2.8221,-2.8221,-2.8221,-2.8221,-2.8221,-2.8221,-2.8221,-2.8207,-2.8154,-2.8154,-2.8181,-2.8221,-2.8181,-2.8181,-2.8221,-2.8221,-2.8221,-1.1463,-1.3427,-1.5578,-1.6884,-1.7595,-1.7995,-1.7995,-1.8303,-1.8544,-1.8544,-1.8985,-1.943,-1.943,-1.943,-2.0385,-2.3384,-2.4225,0.0,0.0,0.0,0.0,0.0,0.0,0.0,0.0,0.0,0.0,0.0,-2.5745,-2.7314,-3.1024,-2.9902,-3.0106,-3.2226,-3.2598,-3.2832,-3.2871,-3.3242,-3.2556,-3.0771,-2.7421,-2.4805,-2.2939,-2.3287,-2.4608,-2.6626,-2.6956,-2.9113,-3.2455,-3.2961,-3.4158,-3.5655,-3.5655,-3.5811,-3.5743,-3.3363,-3.1765,-3.0624,-2.8716,-2.7191,-2.6052,-2.6306,-2.6386,-2.6386,-2.6386,-2.6386,-2.6386,-2.6386,-2.6386,-2.6386,-2.6386,-2.6386,-2.6386,-2.6386,-2.6386,-2.6386,-2.6386,-2.6386,-2.64,-2.644,-2.6413,-2.64,-2.644,-2.6694,-2.6907,-2.6987,-2.7215,-2.7388,-2.7388,-2.7602,-2.7762,-2.7762,-2.8073,-2.8221,-2.8221,-2.8221,-2.8221,-2.8221,-2.8221,-2.8221,-2.8221,-2.8221,-2.8016,-2.7762,-2.7762,-2.7883,-2.8221,-2.7883,-2.7896,-2.8221,-2.8221,-2.8221,-1.2161,-1.3881,-1.5517,-1.6871,-1.7393,-1.7582,-1.7756,-1.8023,-1.8237,-1.8237,-1.8584,-1.8931,-1.9092,-1.9118,-2.0174,-2.3287,0.0,0.0,0.0,0.0,0.0,0.0,0.0,0.0,0.0,0.0,0.0,0.0,-2.5984,-2.7521,-3.0976,-2.9614,-2.9661,-3.1717,-3.1992,-3.2305,-3.2793,-3.1992,-3.0362,-2.7817,-2.5248,-2.3665,-2.2928,-2.3006,-2.4302,-2.6514,-2.7998,-3.0213,-3.2914,-3.4203,-3.5245,-3.6016,-3.6016,-3.6016,-3.5655,-3.2665,-3.1253,-3.0397,-2.7698,-2.646,-2.5999,-2.6293,-2.6386,-2.6386,-2.6386,-2.6386,-2.6386,-2.6386,-2.6386,-2.6386,-2.6386,-2.6386,-2.6386,-2.6386,-2.6386,-2.6386,-2.6386,-2.6386,-2.6386,-2.6386,-2.6386,-2.644,-2.66,-2.6734,-2.6881,-2.7041,-2.7188,-2.7268,-2.7268,-2.7375,-2.7455,-2.7455,-2.7722,-2.7896,-2.7896,-2.8127,-2.8221,-2.8221,-2.8221,-2.8221,-2.8221,-2.7989,-2.7829,-2.7696,-2.7696,-2.7682,-2.7738,-2.7682,-2.7762,-2.7896,-2.8154,-2.8221,-1.2401,-1.3721,-1.4794,-1.6281,-1.6871,-1.7166,-1.7408,-1.7716,-1.7876,0.0,-1.8103,-1.8357,-1.8651,-1.8824,-1.9822,0.0,0.0,0.0,0.0,0.0,0.0,0.0,0.0,0.0,0.0,0.0,0.0,0.0,-2.5984,-2.7452,-3.0704,-2.892,-2.887,-3.1288,-3.1465,-3.1816,-3.2461,-3.0482,-2.819,-2.545,-2.3734,-2.2928,-2.2928,-2.2928,-2.3981,-2.5989,-2.8631,-3.0806,-3.2748,-3.5054,-3.6016,-3.6016,-3.6016,-3.6016,-3.5519,-3.1738,-3.0475,-3.0195,-2.6622,-2.5598,-2.5892,-2.6186,-2.6333,-2.6386,-2.6386,-2.6386,-2.6386,-2.6386,-2.6386,-2.6386,-2.6386,-2.6386,-2.6386,-2.6386,-2.6386,-2.6386,-2.6386,-2.6386,-2.6386,-2.6386,-2.6386,-2.6453,-2.668,-2.6707,-2.6787,-2.7014,-2.7041,-2.7041,-2.7041,-2.7108,-2.7148,-2.7148,-2.7415,-2.7589,-2.7589,-2.7789,-2.8006,-2.8006,-2.8006,-2.8006,-2.8006,-2.7709,-2.7549,-2.7482,-2.7482,-2.7442,-2.7375,-2.7522,-2.7669,-2.7816,-2.8043,-2.8221,-1.1096,-1.2184,-1.3253,-1.4754,-1.5912,-1.6807,-1.7152,-1.7447,-1.7609,-1.7609,-1.7622,-1.7729,-1.7982,-1.8488,-1.9414,0.0,0.0,0.0,0.0,0.0,0.0,0.0,0.0,0.0,0.0,0.0,0.0,0.0,-2.5984,-2.7452,-3.0704,-2.7871,-2.7572,-3.0859,-3.1309,-3.1543,-3.1582,-2.8937,-2.6887,-2.545,-2.3734,-2.2928,-2.2928,-2.2928,-2.387,-2.5644,-2.8261,-3.0703,-3.2884,-3.5054,-3.6016,-3.6016,-3.6016,-3.6016,-3.5519,-3.1738,-3.0326,-2.9822,-2.6298,-2.5291,-2.5585,-2.5879,-2.6159,-2.6386,-2.6386,-2.6386,-2.6386,-2.6386,-2.6386,-2.6386,-2.6386,-2.6386,-2.6386,-2.6386,-2.6386,-2.6386,-2.6386,-2.6386,-2.6386,-2.6386,-2.6386,-2.6386,-2.6413,-2.6413,-2.6413,-2.6426,-2.644,-2.644,-2.644,-2.668,-2.6841,-2.6841,-2.7108,-2.7281,-2.7281,-2.7308,-2.7308,-2.7308,-2.7308,-2.7308,-2.7308,-2.7295,-2.7148,-2.6867,-2.6867,-2.7134,-2.7682,-2.7415,-2.7575,-2.8207,-2.8221,-2.8221,-1.0621,-1.1551,-1.2529,-1.3788,-1.4856,-1.5812,-1.6482,-1.6807,-1.7128,-1.7502,-1.7435,-1.7447,-1.7689,-1.8076,0.0,0.0,0.0,0.0,0.0,0.0,0.0,0.0,0.0,0.0,0.0,0.0,0.0,0.0,0.0,-2.6953,-2.9157,-2.7194,-2.7512,-3.0762,-3.1035,-3.0184,-2.8254,-2.7765,-2.6187,-2.3495,-2.3106,-2.2928,-2.2928,-2.2928,-2.3256,-2.3952,-2.6322,-2.9241,-3.2502,-3.4739,-3.5781,-3.5879,-3.4659,-3.4227,-3.3743,-2.99,-2.8485,-2.8186,-2.5913,-2.5277,-2.5558,-2.5865,-2.6146,-2.6623,-2.7919,-2.8296,-2.8296,-2.8296,-2.8296,-2.7997,-2.6768,-2.6386,-2.6386,-2.6386,-2.6386,-2.6386,-2.6386,-2.6386,-2.6386,-2.6386,-2.6386,-2.6386,-2.6386,-2.6386,-2.6386,-2.6386,-2.6386,-2.6386,-2.6386,-2.648,-2.6547,-2.6547,-2.68,-2.6987,-2.6987,-2.7161,-2.7268,-2.7268,-2.7268,-2.7268,-2.7268,-2.7081,-2.6934,-2.6827,-2.664,-2.664,-2.6854,-2.6947,-2.7188,-2.7671,-2.7776,-2.7963,-1.0007,-1.0787,-1.1779,-1.3026,-1.3868,-1.4754,-1.6027,-1.642,-1.67,-1.7194,-1.734,-1.738,-1.7474,0.0,0.0,0.0,0.0,0.0,0.0,0.0,0.0,0.0,0.0,0.0,0.0,0.0,0.0,0.0,0.0,0.0,-2.8289,-2.6893,-2.7512,-3.0762,-3.0333,-2.8864,-2.6451,-2.6881,-2.5516,-2.2418,-2.3214,-2.3365,-2.2928,-2.2928,-2.2928,-2.301,-2.5077,-2.7848,-3.1149,-3.3543,-3.4989,-3.5617,-3.3895,-3.317,-3.2752,-2.8916,-2.7505,-2.7245,-2.5519,-2.5184,-2.5545,-2.5745,-2.6066,-2.6623,-2.7997,-2.8827,-2.9293,-2.8608,-2.8905,-2.8905,-2.6925,-2.6386,-2.6386,-2.6386,-2.6386,-2.6386,-2.6386,-2.6386,-2.6386,-2.6386,-2.6386,-2.6386,-2.6386,-2.6386,-2.6386,-2.6386,-2.6386,-2.6386,-2.6386,-2.6386,-2.6386,-2.6386,-2.656,-2.668,-2.668,-2.6854,-2.6974,-2.6974,-2.6974,-2.6974,-2.6974,-2.6787,-2.668,-2.668,-2.6493,-2.6386,-2.6386,-2.668,-2.7028,-2.7415,-2.7602,-2.7856,0.0,0.0,0.0,-1.2355,-1.2958,-1.3694,-1.5712,0.0,-1.6273,-1.6607,-1.7114,-1.7435,0.0,0.0,0.0,0.0,0.0,0.0,0.0,0.0,0.0,0.0,0.0,0.0,0.0,0.0,0.0,0.0,-2.4424,-2.6185,-2.8194,-2.6953,-2.7632,-3.0762,-2.9275,-2.7747,-2.6434,-2.6372,-2.4976,-2.2405,-2.4046,-2.4152,-2.2928,-2.2928,-2.2928,-2.2996,-2.4723,-2.6693,-2.901,-3.1605,-3.3748,-3.5229,-3.3716,-3.3101,-3.2665,-2.8844,-2.7433,-2.7143,-2.5286,-2.5024,-2.5518,-2.5518,-2.5905,-2.6386,-2.6465,-2.7919,-2.906,-2.7083,-2.7919,-2.8983,-2.6925,-2.6386,-2.6386,-2.6386,-2.6386,-2.6386,-2.6386,-2.6386,-2.6386,-2.6386,-2.6386,-2.6386,-2.6386,-2.6386,-2.6386,-2.6386,-2.6386,-2.6386,-2.6386,-2.6386,-2.6386,-2.6386,-2.6386,-2.6386,-2.6386,-2.6386,-2.6386,-2.6386,-2.6386,-2.6386,-2.6386,-2.6386,-2.6386,-2.6386,-2.6386,-2.6386,-2.6386,-2.6667,-2.7108,-2.7682,-2.7709,-2.7869,-0.9271,0.0,0.0,0.0,0.0,0.0,0.0,0.0,-1.4442,-1.5792,-1.5872,-1.5973,0.0,0.0,0.0,0.0,0.0,0.0,0.0,0.0,0.0,0.0,0.0,0.0,0.0,0.0,0.0,0.0,-2.3678,-2.5787,-2.6364,-2.84,-2.9962,-3.0879,-2.9275,-2.7667,-2.6116,-2.5156,-2.3814,-2.2111,-2.2779,-2.3038,-2.2928,-2.2928,-2.2928,-2.2928,-2.3393,-2.5442,-2.8577,-3.1216,-3.3505,-3.5075,-3.2227,-3.1087,-3.0664,-2.6852,-2.5419,-2.5359,-2.4784,-2.5024,-2.5518,-2.5518,-2.5905,-2.6689,-2.814,-2.9975,-3.1207,-2.9138,-3.0053,-3.0823,-2.7305,-2.6386,-2.6386,-2.6386,-2.6386,-2.6386,-2.6386,-2.6386,-2.6386,-2.6386,-2.6386,-2.6386,-2.6386,-2.6386,-2.6386,-2.6386,-2.6386,-2.6386,-2.6386,-2.6386,-2.6386,-2.6386,-2.6386,-2.6386,-2.6386,-2.6386,-2.6386,-2.6386,-2.6386,-2.6386,-2.6386,-2.6386,-2.6386,-2.6386,-2.6386,-2.6386,-2.6386,-2.6466,-2.6814,-2.7402,-2.7829,-2.8154,-0.9684,0.0,0.0,0.0,0.0,0.0,0.0,-1.336,0.0,0.0,-1.5578,0.0,0.0,0.0,0.0,0.0,0.0,0.0,0.0,0.0,0.0,0.0,0.0,0.0,0.0,-2.0975,-2.1351,-1.9905,-2.2497,-2.4537,-2.5483,-2.8935,-3.0898,-3.0898,-2.8605,-2.6953,-2.5984,-2.4549,-2.3148,-2.1804,-2.2811,-2.3048,-2.2686,-2.2806,-2.2928,-2.2928,-2.2928,-2.4926,-2.8362,-3.0237,-3.2124,-3.3715,-3.1234,-2.9812,-2.8757,-2.5712,-2.4636,-2.4636,-2.4636,-2.5024,-2.5518,-2.5518,-2.5905,-2.6623,-2.7762,-3.0207,-3.1896,-2.8983,-2.8983,-2.9371,-2.7004,-2.6386,-2.6386,-2.6386,-2.6386,-2.6386,-2.6386,-2.6386,-2.6386,-2.6386,-2.6386,-2.6386,-2.6386,-2.6386,-2.6386,-2.6386,-2.6386,-2.6386,-2.6386,-2.6386,-2.6386,-2.6386,-2.6386,-2.6386,-2.6386,-2.6386,-2.6386,-2.6386,-2.6386,-2.6386,-2.6386,-2.6386,-2.6386,-2.6386,-2.6386,-2.6386,-2.6386,-2.6386,-2.6694,-2.7281,-2.7953,-2.8221,-1.0408,-1.0688,0.0,0.0,0.0,0.0,-1.3307,-1.3587,-1.376,0.0,0.0,0.0,0.0,0.0,0.0,0.0,0.0,0.0,0.0,0.0,0.0,0.0,0.0,0.0,-1.9292,-2.0573,-2.0931,-1.9851,-2.1306,-2.3255,-2.5577,-2.8938,-3.0762,-3.0568,-2.7614,-2.5924,-2.5741,-2.4116,-2.2749,-2.1614,-2.33,-2.3483,-2.2432,-2.2726,-2.2928,-2.2928,-2.3133,-2.5128,-2.8296,-2.9227,-3.0495,-3.1801,-3.073,-2.9115,-2.7288,-2.5359,-2.4636,-2.4636,-2.4636,-2.5024,-2.5518,-2.5518,-2.5905,-2.6386,-2.6386,-2.9075,-3.1437,-2.7762,-2.6544,-2.6386,-2.6386,-2.6386,-2.6386,-2.6386,-2.6386,-2.6386,-2.6386,-2.6386,-2.6386,-2.6386,-2.6386,-2.6386,-2.6386,-2.6386,-2.6386,-2.6386,-2.6386,-2.6386,-2.6386,-2.6386,-2.6386,-2.6386,-2.6386,-2.6386,-2.6386,-2.6386,-2.6386,-2.6386,-2.6386,-2.6386,-2.6386,-2.6386,-2.6386,-2.6386,-2.6386,-2.6386,-2.6386,-2.6453,-2.676,-2.7281,-2.7953,-2.8221,-1.1263,-1.1597,-1.1904,-1.1316,0.0,0.0,-1.1457,-1.1931,-1.2692,0.0,0.0,0.0,0.0,0.0,0.0,0.0,0.0,0.0,0.0,0.0,0.0,0.0,0.0,0.0,-1.8998,-1.9499,-1.972,-1.9511,-2.2276,-2.4835,-2.6849,-2.9088,-2.9738,-2.8443,-2.6859,-2.5375,-2.4054,-2.2404,-2.1574,-2.1628,-2.2171,-2.2456,-2.2432,-2.2726,-2.2928,-2.2996,-2.4385,-2.6172,-2.8345,-3.024,-3.1359,-3.1801,-3.073,-2.9115,-2.7288,-2.5359,-2.4636,-2.4636,-2.4636,-2.5024,-2.5518,-2.5518,-2.5905,-2.6386,-2.6386,-2.8076,-2.9821,-2.906,-2.7619,-2.6386,-2.6386,-2.6386,-2.6386,-2.6386,-2.6386,-2.6386,-2.6386,-2.6386,-2.6386,-2.6386,-2.6386,-2.6386,-2.6386,-2.6386,-2.6386,-2.6386,-2.6386,-2.6386,-2.6386,-2.6386,-2.6386,-2.6386,-2.6386,-2.6386,-2.6386,-2.6386,-2.6386,-2.6386,-2.6386,-2.6386,-2.6386,-2.6386,-2.6386,-2.6386,-2.6386,-2.6386,-2.6386,-2.6867,-2.7148,-2.7281,-2.7953,-2.8221,-1.1984,-1.2184,-1.2489,-1.2171,0.0,0.0,0.0,0.0,-1.2368,0.0,0.0,0.0,0.0,0.0,0.0,0.0,0.0,0.0,0.0,0.0,0.0,0.0,0.0,0.0,-1.8691,-1.8971,-1.9212,-1.9417,-2.259,-2.4906,-2.5834,-2.8614,-2.9489,-2.7831,-2.6645,-2.5253,-2.3636,-2.1915,-2.1189,-2.1336,-2.1777,-2.2058,-2.2218,-2.2659,-2.2928,-2.2928,-2.3788,-2.5181,-2.6937,-2.8292,-2.8974,-2.9218,-2.9761,-2.8402,-2.5932,-2.4991,-2.4636,-2.4636,-2.4636,-2.5024,-2.5518,-2.5518,-2.6589,-2.7919,-2.7919,-2.8608,-2.9371,-2.9371,-2.7919,-2.6386,-2.6386,-2.6386,-2.6386,-2.6386,-2.6386,-2.6386,-2.6386,-2.6386,-2.6386,-2.6386,-2.6386,-2.6386,-2.6386,-2.6386,-2.6386,-2.6386,-2.6386,-2.6386,-2.6386,-2.6386,-2.6386,-2.6386,-2.6386,-2.6386,-2.6386,-2.6386,-2.6386,-2.6386,-2.6386,-2.6386,-2.6386,-2.6386,-2.6386,-2.6386,-2.6386,-2.6466,-2.66,-2.7054,-2.7268,-2.7281,-2.7953,-2.8221,0.0,0.0,0.0,0.0,0.0,-1.2759,0.0,0.0,0.0,0.0,0.0,0.0,0.0,0.0,0.0,0.0,0.0,0.0,0.0,0.0,0.0,0.0,0.0,0.0,-1.8303,-1.8531,-1.8838,-1.9252,-2.2029,-2.3868,-2.4364,-2.7673,-2.8822,-2.7239,-2.6346,-2.5005,-2.3139,-2.179,-2.1109,-2.1122,-2.171,-2.1991,-2.2004,-2.2592,-2.2928,-2.2928,-2.3256,-2.4196,-2.5532,-2.6276,-2.6489,-2.6589,-2.8449,-2.7335,-2.4636,-2.4636,-2.4636,-2.4636,-2.4636,-2.5024,-2.5518,-2.5518,-2.7255,-2.9371,-2.9371,-2.9371,-2.9293,-2.8905,-2.7619,-2.6386,-2.6386,-2.6386,-2.6386,-2.6386,-2.6386,-2.6386,-2.6386,-2.6386,-2.6386,-2.6386,-2.6386,-2.6386,-2.6386,-2.6386,-2.6386,-2.6386,-2.6386,-2.6386,-2.6386,-2.6386,-2.6386,-2.6386,-2.6386,-2.6386,-2.6386,-2.6386,-2.6386,-2.6386,-2.6386,-2.6386,-2.6386,-2.6386,-2.6386,-2.6386,-2.6386,-2.6533,-2.6827,-2.7121,-2.7295,-2.7362,-2.798,-2.8221,0.0,0.0,0.0,0.0,-1.3748,0.0,0.0,0.0,0.0,0.0,0.0,0.0,0.0,0.0,0.0,0.0,0.0,0.0,0.0,0.0,0.0,0.0,0.0,0.0,0.0,-1.7716,-1.8076,-1.8905,-2.0073,-2.1697,-2.3782,-2.5919,-2.6495,-2.5078,-2.5248,-2.4099,-2.1411,-2.1172,-2.1109,-2.1122,-2.171,-2.1991,-2.2004,-2.2592,-2.2928,-2.2996,-2.452,-2.5315,-2.5651,-2.7286,-2.7347,-2.6449,-2.706,-2.62,-2.4636,-2.4636,-2.4636,-2.4636,-2.4636,-2.5024,-2.5518,-2.5518,-2.7255,-2.9371,-2.9371,-2.9371,-2.906,-2.7227,-2.6544,-2.6386,-2.6386,-2.6386,-2.6386,-2.6386,-2.6386,-2.6386,-2.6386,-2.6386,-2.6386,-2.6386,-2.6386,-2.6386,-2.6386,-2.6386,-2.6386,-2.6386,-2.6386,-2.6386,-2.6386,-2.6386,-2.6386,-2.6386,-2.6386,-2.6386,-2.6386,-2.6386,-2.6386,-2.6386,-2.6386,-2.6386,-2.6386,-2.6386,-2.6386,-2.6386,-2.6386,-2.6533,-2.6827,-2.7121,-2.7402,-2.7655,-2.8073,-2.8221,0.0,0.0,0.0,0.0,0.0,0.0,-1.2732,0.0,-1.2462,0.0,0.0,0.0,0.0,0.0,0.0,0.0,0.0,0.0,0.0,0.0,0.0,0.0,0.0,0.0,0.0,0.0,0.0,0.0,-2.0159,-2.1897,-2.3459,-2.6154,-2.716,-2.6111,-2.5595,-2.4416,-2.2591,-2.1601,-2.1109,-2.1122,-2.171,-2.1991,-2.2004,-2.2592,-2.2928,-2.2928,-2.3652,-2.3992,-2.406,-2.4791,-2.5031,-2.4876,-2.5073,-2.4933,-2.4636,-2.4636,-2.4636,-2.4636,-2.4636,-2.5024,-2.5941,-2.8697,-3.0283,-3.1207,-3.1207,-3.1207,-3.0515,-2.7305,-2.6386,-2.6386,-2.6386,-2.6386,-2.6386,-2.6386,-2.6386,-2.6386,-2.6386,-2.6386,-2.6386,-2.6386,-2.6386,-2.6386,-2.6386,-2.6386,-2.6386,-2.6386,-2.6386,-2.6386,-2.6386,-2.6386,-2.6386,-2.6386,-2.6386,-2.6386,-2.6386,-2.6386,-2.6386,-2.6386,-2.6386,-2.6386,-2.6386,-2.6386,-2.6386,-2.6386,-2.6386,-2.6613,-2.7081,-2.7201,-2.7509,-2.7963,-2.8167,-2.8221,-1.4963,0.0,0.0,0.0,0.0,0.0,0.0,0.0,0.0,0.0,0.0,0.0,0.0,0.0,0.0,0.0,0.0,0.0,0.0,0.0,0.0,0.0,0.0,0.0,0.0,0.0,0.0,0.0,0.0,-2.1636,-2.3319,-2.6008,-2.7321,-2.6942,-2.5754,-2.4575,-2.3439,-2.1874,-2.1109,-2.1122,-2.171,-2.1991,-2.2004,-2.2592,-2.2928,-2.2928,-2.2928,-2.2928,-2.2941,-2.2953,-2.33,-2.3781,-2.3861,-2.4195,-2.4636,-2.4636,-2.4636,-2.4636,-2.4636,-2.5024,-2.6274,-3.0985,-3.2125,-3.1743,-3.2353,-3.2125,-3.09,-2.7384,-2.6386,-2.6386,-2.6386,-2.6386,-2.6386,-2.6386,-2.6386,-2.6386,-2.6386,-2.6386,-2.6386,-2.6386,-2.6386,-2.6386,-2.6386,-2.6386,-2.6386,-2.6386,-2.6386,-2.6386,-2.6386,-2.6386,-2.6386,-2.6386,-2.6386,-2.6386,-2.6386,-2.6386,-2.6386,-2.6386,-2.6386,-2.6386,-2.6386,-2.6386,-2.6386,-2.6386,-2.6386,-2.668,-2.7268,-2.7268,-2.7575,-2.8221,-2.8221,-2.8221,0.0,0.0,0.0,-1.4456,0.0,0.0,0.0,0.0,-1.3173,0.0,0.0,0.0,0.0,0.0,0.0,0.0,0.0,0.0,0.0,0.0,0.0,0.0,0.0,0.0,0.0,0.0,0.0,0.0,-1.8116,0.0,-2.3232,-2.4701,-2.5793,-2.6491,-2.5381,-2.4166,-2.2913,-2.17,-2.1109,-2.1122,-2.171,-2.1991,-2.2004,-2.2592,-2.2928,-2.2928,-2.2928,-2.2928,-2.2886,-2.3193,-2.3487,-2.3794,-2.4075,-2.4369,-2.4636,-2.4636,-2.4636,-2.4636,-2.4636,-2.5024,-2.6274,-3.0985,-3.113,-2.9898,-3.1896,-3.113,-2.906,-2.7004,-2.6386,-2.6386,-2.6386,-2.6386,-2.6386,-2.6386,-2.6386,-2.6386,-2.6386,-2.6386,-2.6386,-2.6386,-2.6386,-2.6386,-2.6386,-2.6386,-2.6386,-2.6386,-2.6386,-2.6386,-2.6386,-2.6386,-2.6386,-2.6386,-2.6386,-2.6386,-2.6386,-2.6386,-2.6386,-2.6386,-2.6386,-2.6386,-2.6386,-2.6386,-2.6386,-2.6386,-2.6386,-2.668,-2.7268,-2.7268,-2.7575,-2.8221,-2.8221,-2.8221,0.0,0.0,-1.6603,-1.5271,0.0,0.0,0.0,0.0,0.0,0.0,0.0,0.0,0.0,0.0,0.0,0.0,0.0,0.0,0.0,0.0,0.0,0.0,0.0,0.0,0.0,0.0,0.0,0.0,-1.7308,0.0,-2.2241,-2.3963,-2.5687,-2.7628,-2.5743,-2.4606,-2.4484,-2.2233,-2.1109,-2.1122,-2.171,-2.1991,-2.2004,-2.2592,-2.2928,-2.2928,-2.2928,-2.2928,-2.2886,-2.3193,-2.35,-2.3794,-2.4088,-2.4382,-2.4636,-2.4636,-2.4636,-2.469,-2.5077,-2.5478,-2.6548,-3.1049,-3.113,-2.9821,-3.1896,-3.1054,-2.8983,-2.7004,-2.6386,-2.6702,-2.8076,-2.7384,-2.7083,-2.9759,-2.8388,-2.6768,-2.8076,-2.8374,-2.7997,-2.6702,-2.7462,-2.7997,-2.6623,-2.6386,-2.6386,-2.6386,-2.6386,-2.6386,-2.6386,-2.6386,-2.6386,-2.6386,-2.6386,-2.6386,-2.6386,-2.6386,-2.6386,-2.6386,-2.6386,-2.6386,-2.6386,-2.6386,-2.6386,-2.6386,-2.6386,-2.668,-2.7268,-2.7268,-2.7575,-2.8221,-2.8221,-2.8221,-1.674,-1.6927,0.0,-1.5818,-1.5404,0.0,-1.3921,0.0,0.0,0.0,0.0,0.0,0.0,0.0,0.0,0.0,0.0,0.0,0.0,0.0,0.0,0.0,0.0,0.0,0.0,0.0,-1.4923,-1.5658,-1.6692,0.0,0.0,0.0,-2.5591,-2.8027,-2.5887,-2.4835,-2.5064,-2.2424,-2.1109,-2.1122,-2.171,-2.1991,-2.2004,-2.2592,-2.2928,-2.2928,-2.2928,-2.2928,-2.2968,-2.3313,-2.3594,-2.3808,-2.4209,-2.4476,-2.4636,-2.4636,-2.4703,-2.4863,-2.5344,-2.5705,-2.6607,-3.0253,-2.9975,-2.8764,-3.0746,-2.9975,-2.8076,-2.6768,-2.6386,-2.6847,-2.8905,-2.8452,-2.8296,-3.1666,-3.0515,-2.892,-3.0207,-3.0515,-2.9898,-2.7841,-2.853,-2.8764,-2.6768,-2.6386,-2.6386,-2.6386,-2.6386,-2.6386,-2.6386,-2.6386,-2.6386,-2.6386,-2.6386,-2.6386,-2.6386,-2.6386,-2.6386,-2.6386,-2.6386,-2.6386,-2.6386,-2.6386,-2.6386,-2.6386,-2.6493,-2.6787,-2.7268,-2.7375,-2.7669,-2.8221,-2.8221,-2.8221]},{"header":{"parameterUnit":"m.s-1","parameterCategory":1,"la1":30.6,"la2":29.2853,"lo1":-89.7004,"lo2":-87.6739,"dy":0.0162,"dx":0.0183,"nx":112,"ny":82,"refTime":"2026-03-28T12:00:00:Z","depth":0,"parameterNumber":3,"parameterNumberName":"V-component_of_WINDS"},"data":[0.0,0.0,0.0,0.0,0.0,0.0,0.0,0.0,0.0,0.0,0.0,0.0,0.0,0.0,0.0,0.0,0.0,0.0,0.0,0.0,0.0,0.0,0.0,0.0,0.0,0.0,0.0,0.0,0.0,0.0,0.0,0.0,0.0,0.0,0.0,0.0,0.0,0.0,0.0,0.0,0.0,0.0,0.0,0.0,0.0,0.0,0.0,0.0,0.0,0.0,0.0,0.0,0.0,0.0,0.0,0.0,0.0,0.0,0.0,0.0,0.0,0.0,0.0,0.0,0.0,0.0,0.0,0.0,0.0,0.0,0.0,0.0,0.0,0.0,0.0,0.0,0.0,0.0,0.0,0.0,0.0,0.0,0.0,0.0,0.0,0.0,0.0,0.0,0.0,0.0,0.0,3.6462,4.1354,4.4432,4.4316,4.3431,4.0469,3.4776,0.0,0.0,0.0,0.0,0.0,0.0,0.0,0.0,0.0,0.0,0.0,0.0,0.0,0.0,0.0,0.0,0.0,0.0,0.0,0.0,0.0,0.0,0.0,0.0,0.0,0.0,0.0,0.0,0.0,0.0,0.0,0.0,0.0,0.0,0.0,0.0,0.0,0.0,0.0,0.0,0.0,0.0,0.0,0.0,0.0,0.0,0.0,0.0,0.0,0.0,0.0,0.0,0.0,0.0,0.0,0.0,0.0,0.0,0.0,0.0,0.0,0.0,0.0,0.0,0.0,0.0,0.0,0.0,0.0,0.0,0.0,0.0,0.0,0.0,0.0,0.0,0.0,0.0,0.0,0.0,0.0,0.0,0.0,0.0,0.0,0.0,0.0,0.0,0.0,0.0,0.0,0.0,0.0,0.0,0.0,0.0,0.0,0.0,0.0,0.0,0.0,0.0,0.0,0.0,3.5353,4.1316,4.4008,4.5094,4.4355,4.2893,4.0077,3.5577,0.0,0.0,0.0,0.0,0.0,0.0,0.0,0.0,0.0,0.0,0.0,0.0,0.0,0.0,0.0,0.0,0.0,0.0,0.0,0.0,0.0,0.0,0.0,0.0,0.0,0.0,0.0,0.0,0.0,0.0,0.0,0.0,0.0,0.0,0.0,0.0,0.0,0.0,0.0,0.0,0.0,0.0,0.0,0.0,0.0,0.0,0.0,0.0,0.0,0.0,0.0,0.0,0.0,0.0,0.0,0.0,0.0,0.0,0.0,0.0,0.0,0.0,0.0,0.0,0.0,0.0,0.0,0.0,0.0,0.0,0.0,0.0,0.0,0.0,0.0,0.0,0.0,0.0,0.0,0.0,0.0,0.0,0.0,0.0,0.0,0.0,0.0,0.0,0.0,0.0,0.0,0.0,0.0,0.0,0.0,0.0,0.0,0.0,0.0,0.0,0.0,0.0,0.0,3.4187,3.7238,4.3124,4.4863,4.5441,4.5056,4.347,4.07,3.6423,3.4122,0.0,0.0,0.0,0.0,0.0,0.0,0.0,0.0,0.0,0.0,0.0,0.0,0.0,0.0,0.0,0.0,0.0,0.0,0.0,0.0,0.0,0.0,0.0,0.0,0.0,0.0,0.0,0.0,0.0,0.0,0.0,0.0,0.0,0.0,0.0,0.0,0.0,0.0,0.0,0.0,0.0,0.0,0.0,0.0,0.0,0.0,0.0,0.0,0.0,0.0,0.0,0.0,0.0,0.0,0.0,0.0,0.0,0.0,0.0,0.0,0.0,0.0,0.0,0.0,0.0,0.0,0.0,0.0,0.0,0.0,0.0,0.0,0.0,0.0,0.0,0.0,0.0,0.0,0.0,0.0,0.0,0.0,0.0,0.0,0.0,0.0,0.0,0.0,0.0,0.0,0.0,0.0,0.0,0.0,0.0,0.0,0.0,0.0,0.0,0.0,0.0,0.0,3.7644,3.9736,4.4036,4.5175,4.5594,4.5594,4.3701,4.0931,3.7238,3.4045,0.0,0.0,0.0,0.0,0.0,0.0,0.0,0.0,0.0,0.0,0.0,0.0,0.0,0.0,0.0,0.0,0.0,0.0,0.0,0.0,0.0,0.0,0.0,0.0,0.0,0.0,0.0,0.0,0.0,0.0,0.0,0.0,0.0,0.0,0.0,0.0,0.0,0.0,0.0,0.0,0.0,0.0,0.0,0.0,0.0,0.0,0.0,0.0,0.0,0.0,0.0,0.0,0.0,0.0,0.0,0.0,0.0,0.0,0.0,0.0,0.0,0.0,0.0,0.0,0.0,0.0,0.0,0.0,0.0,0.0,0.0,0.0,0.0,0.0,0.0,0.0,0.0,0.0,0.0,0.0,0.0,0.0,0.0,0.0,0.0,0.0,0.0,0.0,0.0,0.0,0.0,0.0,0.0,0.0,0.0,0.0,0.0,0.0,0.0,0.0,0.0,0.0,3.9145,4.2917,4.4843,4.5381,4.5594,4.5594,4.2593,3.99,3.8046,3.3269,0.0,0.0,0.0,0.0,0.0,0.0,0.0,0.0,0.0,0.0,0.0,0.0,0.0,0.0,0.0,0.0,0.0,0.0,0.0,0.0,0.0,0.0,0.0,0.0,0.0,0.0,0.0,0.0,0.0,0.0,0.0,0.0,0.0,0.0,0.0,0.0,0.0,0.0,0.0,0.0,0.0,0.0,0.0,0.0,0.0,0.0,0.0,0.0,0.0,0.0,0.0,0.0,0.0,0.0,0.0,0.0,0.0,0.0,0.0,0.0,0.0,0.0,0.0,0.0,0.0,0.0,0.0,0.0,0.0,0.0,0.0,0.0,0.0,0.0,0.0,0.0,0.0,0.0,0.0,0.0,0.0,0.0,0.0,0.0,0.0,0.0,0.0,0.0,0.0,0.0,0.0,0.0,0.0,0.0,0.0,0.0,0.0,0.0,0.0,0.0,0.0,0.0,3.8109,4.1734,0.0,4.5077,4.5273,4.5273,4.3345,4.07,3.7392,0.0,0.0,0.0,0.0,0.0,0.0,0.0,0.0,0.0,0.0,0.0,0.0,0.0,0.0,0.0,0.0,0.0,0.0,0.0,0.0,0.0,0.0,0.0,0.0,0.0,0.0,0.0,0.0,0.0,0.0,0.0,0.0,0.0,0.0,0.0,0.0,0.0,0.0,0.0,0.0,0.0,0.0,0.0,0.0,0.0,0.0,0.0,0.0,0.0,0.0,0.0,0.0,0.0,0.0,0.0,0.0,0.0,0.0,0.0,0.0,0.0,0.0,0.0,0.0,0.0,0.0,0.0,0.0,0.0,0.0,0.0,0.0,0.0,0.0,0.0,0.0,0.0,0.0,0.0,0.0,0.0,0.0,0.0,0.0,0.0,0.0,0.0,0.0,0.0,0.0,0.0,0.0,0.0,0.0,0.0,0.0,0.0,0.0,0.0,0.0,0.0,0.0,3.4228,3.8066,4.1554,0.0,4.5026,4.5349,4.4981,4.3551,4.0913,3.6709,0.0,0.0,0.0,0.0,0.0,0.0,0.0,0.0,0.0,0.0,0.0,0.0,0.0,0.0,0.0,0.0,0.0,0.0,0.0,0.0,0.0,0.0,0.0,0.0,0.0,0.0,0.0,0.0,0.0,0.0,0.0,0.0,0.0,0.0,0.0,0.0,0.0,0.0,0.0,0.0,0.0,0.0,0.0,0.0,0.0,0.0,0.0,0.0,0.0,0.0,0.0,0.0,0.0,0.0,0.0,0.0,0.0,0.0,0.0,0.0,0.0,0.0,0.0,0.0,0.0,0.0,0.0,0.0,0.0,0.0,0.0,0.0,0.0,0.0,0.0,0.0,0.0,0.0,0.0,0.0,0.0,0.0,0.0,0.0,0.0,0.0,0.0,0.0,0.0,0.0,0.0,0.0,0.0,0.0,0.0,0.0,0.0,0.0,0.0,0.0,0.0,0.0,3.4821,3.9592,4.3118,4.3908,4.5382,4.5841,4.4713,4.2899,4.0104,0.0,0.0,0.0,0.0,0.0,0.0,0.0,0.0,0.0,0.0,0.0,0.0,0.0,0.0,0.0,0.0,0.0,0.0,0.0,0.0,0.0,0.0,0.0,0.0,0.0,0.0,0.0,0.0,0.0,0.0,0.0,0.0,0.0,0.0,0.0,0.0,0.0,0.0,0.0,0.0,0.0,0.0,0.0,0.0,0.0,0.0,0.0,0.0,0.0,0.0,0.0,0.0,0.0,0.0,0.0,0.0,0.0,0.0,0.0,0.0,0.0,0.0,0.0,0.0,0.0,0.0,0.0,0.0,0.0,0.0,0.0,0.0,0.0,0.0,0.0,0.0,0.0,0.0,0.0,0.0,0.0,0.0,0.0,0.0,0.0,0.0,0.0,0.0,0.0,0.0,0.0,0.0,0.0,0.0,0.0,0.0,0.0,0.0,0.0,0.0,0.0,0.0,0.0,3.5716,4.0709,4.4237,4.4458,4.5631,4.6,4.511,4.3706,4.0858,3.6195,0.0,0.0,0.0,0.0,0.0,0.0,0.0,0.0,0.0,0.0,0.0,0.0,0.0,0.0,0.0,0.0,0.0,0.0,0.0,0.0,0.0,0.0,0.0,0.0,0.0,0.0,0.0,0.0,0.0,0.0,0.0,0.0,0.0,0.0,0.0,0.0,0.0,0.0,0.0,0.0,0.0,0.0,0.0,0.0,0.0,0.0,0.0,0.0,0.0,0.0,0.0,0.0,0.0,0.0,0.0,0.0,0.0,0.0,0.0,0.0,0.0,0.0,0.0,0.0,0.0,0.0,0.0,0.0,0.0,0.0,0.0,0.0,0.0,0.0,0.0,0.0,0.0,0.0,0.0,0.0,0.0,0.0,0.0,0.0,0.0,0.0,0.0,0.0,0.0,0.0,0.0,0.0,0.0,0.0,0.0,0.0,0.0,0.0,0.0,0.0,0.0,0.0,3.656,4.1699,4.5186,4.5186,4.5934,4.619,4.5527,4.4472,4.1732,3.687,0.0,0.0,0.0,0.0,0.0,0.0,0.0,0.0,0.0,0.0,0.0,0.0,0.0,0.0,0.0,0.0,0.0,0.0,0.0,0.0,0.0,0.0,0.0,0.0,0.0,0.0,0.0,0.0,0.0,0.0,0.0,0.0,0.0,0.0,0.0,0.0,0.0,0.0,0.0,0.0,0.0,0.0,0.0,0.0,0.0,0.0,0.0,0.0,0.0,0.0,0.0,0.0,0.0,0.0,0.0,0.0,0.0,0.0,0.0,0.0,0.0,0.0,0.0,0.0,0.0,0.0,0.0,0.0,0.0,0.0,0.0,0.0,0.0,0.0,0.0,0.0,0.0,0.0,0.0,0.0,0.0,0.0,0.0,0.0,0.0,0.0,0.0,0.0,0.0,0.0,0.0,0.0,0.0,0.0,0.0,0.0,0.0,0.0,0.0,0.0,0.0,0.0,3.7492,4.258,4.5993,4.5993,4.6399,4.6483,4.603,4.5214,4.2721,3.8015,0.0,0.0,0.0,0.0,0.0,0.0,0.0,0.0,0.0,0.0,0.0,0.0,0.0,0.0,0.0,0.0,0.0,0.0,0.0,0.0,0.0,0.0,0.0,0.0,0.0,0.0,0.0,0.0,0.0,0.0,0.0,0.0,0.0,0.0,0.0,0.0,0.0,0.0,0.0,0.0,0.0,0.0,0.0,0.0,0.0,0.0,0.0,0.0,0.0,0.0,0.0,0.0,0.0,0.0,0.0,0.0,0.0,0.0,0.0,0.0,3.2958,0.0,0.0,0.0,0.0,0.0,0.0,0.0,0.0,0.0,0.0,0.0,0.0,0.0,0.0,0.0,0.0,0.0,0.0,0.0,0.0,0.0,0.0,0.0,0.0,0.0,0.0,0.0,0.0,0.0,0.0,0.0,0.0,0.0,0.0,0.0,0.0,0.0,0.0,0.0,0.0,0.0,3.9019,4.3754,4.6819,4.6819,4.7482,4.7611,4.6911,4.61,4.3865,3.9659,3.6374,0.0,0.0,0.0,0.0,0.0,0.0,0.0,0.0,0.0,0.0,0.0,0.0,0.0,0.0,0.0,0.0,0.0,0.0,0.0,0.0,0.0,0.0,0.0,0.0,0.0,0.0,0.0,0.0,0.0,0.0,0.0,0.0,0.0,0.0,0.0,0.0,0.0,0.0,0.0,0.0,0.0,0.0,0.0,0.0,0.0,0.0,0.0,0.0,0.0,0.0,0.0,0.0,0.0,0.0,0.0,0.0,0.0,0.0,0.0,0.0,3.5625,0.0,0.0,0.0,0.0,0.0,0.0,0.0,0.0,0.0,0.0,0.0,0.0,0.0,0.0,0.0,0.0,0.0,0.0,0.0,0.0,0.0,0.0,0.0,0.0,0.0,0.0,0.0,0.0,0.0,0.0,0.0,0.0,0.0,0.0,0.0,0.0,0.0,0.0,0.0,0.0,3.9533,4.4452,4.7663,4.7663,4.77,4.77,4.7663,4.6581,4.4856,4.2359,3.8799,0.0,0.0,0.0,0.0,0.0,0.0,0.0,0.0,0.0,0.0,0.0,0.0,0.0,0.0,0.0,0.0,0.0,0.0,0.0,0.0,0.0,0.0,0.0,0.0,0.0,0.0,0.0,0.0,0.0,0.0,0.0,0.0,0.0,0.0,0.0,0.0,0.0,0.0,0.0,0.0,0.0,0.0,0.0,0.0,0.0,0.0,0.0,0.0,0.0,0.0,0.0,0.0,0.0,4.5086,4.6562,4.7707,4.7553,4.7644,4.7697,4.3662,4.174,4.1303,3.9039,0.0,0.0,0.0,0.0,0.0,0.0,0.0,0.0,0.0,0.0,0.0,0.0,0.0,0.0,0.0,0.0,0.0,0.0,0.0,0.0,0.0,0.0,0.0,0.0,4.269,4.247,0.0,0.0,0.0,0.0,0.0,0.0,0.0,0.0,0.0,0.0,0.0,0.0,4.0194,4.5223,4.8489,4.8306,4.7865,4.7736,4.8269,4.7095,4.592,4.4966,4.1552,3.8836,0.0,0.0,0.0,0.0,0.0,0.0,0.0,0.0,0.0,0.0,0.0,0.0,0.0,0.0,0.0,0.0,0.0,0.0,0.0,0.0,0.0,0.0,0.0,0.0,0.0,0.0,0.0,0.0,0.0,0.0,0.0,0.0,3.1245,3.1813,0.0,0.0,0.0,0.0,0.0,0.0,0.0,0.0,0.0,0.0,0.0,0.0,0.0,4.2774,4.435,4.7918,4.9455,4.8948,5.1399,5.2269,5.1731,5.2129,5.2316,5.2377,5.2394,0.0,4.4488,4.3192,0.0,0.0,0.0,0.0,0.0,0.0,0.0,0.0,0.0,0.0,0.0,0.0,0.0,0.0,0.0,0.0,0.0,0.0,0.0,0.0,0.0,0.0,4.6911,4.6269,4.6379,4.6342,0.0,4.0891,3.6207,3.3513,3.2632,0.0,0.0,0.0,0.0,0.0,0.0,0.0,4.2616,4.6783,4.9114,4.8379,4.8893,4.9003,4.8379,4.8122,4.7352,4.5847,4.3938,4.2139,4.0508,3.6435,0.0,0.0,0.0,0.0,0.0,0.0,0.0,0.0,0.0,0.0,0.0,0.0,0.0,0.0,0.0,0.0,0.0,0.0,0.0,0.0,0.0,0.0,0.0,0.0,0.0,0.0,0.0,0.0,0.0,3.1362,3.3278,3.3223,3.3533,3.2807,0.0,0.0,0.0,0.0,0.0,0.0,0.0,0.0,0.0,4.4885,4.5881,4.7373,4.9485,5.2037,5.3515,5.3832,5.5418,5.643,5.6962,5.7169,5.7005,5.6616,5.7409,5.5463,5.1465,4.8235,4.5498,4.3057,0.0,0.0,0.0,0.0,4.1919,4.2543,4.4745,4.4966,0.0,4.4434,0.0,0.0,0.0,0.0,0.0,0.0,0.0,0.0,0.0,0.0,4.9114,4.9701,5.0215,5.0378,4.9958,4.7278,4.3571,0.0,3.7991,3.667,3.2289,0.0,0.0,0.0,0.0,4.1222,4.4415,4.7627,4.9647,4.9701,5.0031,5.0105,4.9738,4.9297,4.871,4.8012,4.5993,4.4525,4.3828,4.0325,3.7609,0.0,0.0,0.0,0.0,0.0,0.0,0.0,0.0,0.0,0.0,0.0,0.0,0.0,0.0,0.0,0.0,0.0,0.0,0.0,0.0,0.0,0.0,0.0,0.0,0.0,0.0,0.0,0.0,3.4027,3.5953,3.5533,3.6674,3.6234,0.0,0.0,0.0,0.0,0.0,0.0,4.389,4.4337,4.6455,5.0651,5.1068,5.2298,5.4559,5.59,5.6998,5.7929,5.8396,5.9245,6.0419,6.0419,6.0089,5.9515,6.0162,5.9281,5.7116,5.2858,4.9774,4.7609,4.5993,4.5369,4.5516,4.6691,4.7278,4.7829,5.0508,5.1022,5.0398,4.9811,0.0,4.4819,4.2029,0.0,0.0,0.0,0.0,4.4856,4.7883,4.9701,5.1132,5.2564,5.3371,5.3665,5.3041,5.2123,4.9738,0.0,4.3094,4.1552,3.6303,0.0,0.0,0.0,0.0,4.3424,4.6471,4.8839,5.0362,5.0765,5.0986,5.1022,5.0839,5.0251,4.9904,4.9904,4.7976,4.6838,4.6838,4.3938,4.1405,3.9386,0.0,0.0,0.0,0.0,0.0,0.0,0.0,0.0,0.0,0.0,0.0,0.0,0.0,0.0,0.0,0.0,0.0,0.0,0.0,0.0,0.0,0.0,0.0,0.0,0.0,0.0,0.0,0.0,0.0,4.0029,4.1418,0.0,0.0,0.0,0.0,4.065,4.2283,4.4634,4.7848,4.9083,5.1599,5.5675,5.7021,5.8438,6.017,6.0594,6.0811,6.0864,6.0457,6.0309,6.0419,6.0419,6.0382,6.0346,6.0382,5.9905,5.8854,5.6345,5.4326,5.2674,5.1059,5.0435,5.0435,5.0508,5.1022,5.183,5.2747,5.3078,5.3408,5.5611,5.3665,5.0105,4.8343,4.6214,0.0,0.0,4.7939,4.9794,5.227,5.3518,5.4363,5.5207,5.5427,5.5464,5.5449,5.4179,5.2087,0.0,4.6728,4.5112,4.3294,0.0,4.247,4.3957,4.5039,4.6581,4.9096,5.0859,5.161,5.0875,5.1463,5.161,5.0875,5.0765,5.0729,5.0729,4.9904,4.9427,4.9427,4.6985,4.5259,4.4378,3.968,0.0,0.0,0.0,0.0,0.0,0.0,0.0,0.0,0.0,0.0,0.0,0.0,0.0,0.0,0.0,0.0,0.0,0.0,0.0,0.0,0.0,0.0,0.0,0.0,0.0,0.0,0.0,0.0,4.189,4.405,0.0,4.2046,4.3204,4.4544,4.5663,4.8233,5.0912,5.3628,5.4202,5.5797,5.8784,5.8835,5.935,6.0462,6.0581,6.0909,6.1426,6.125,6.1741,6.2768,6.2768,6.2768,6.2768,6.2768,6.1998,6.0676,5.9795,5.8217,5.6235,5.5647,5.5427,5.5427,5.5427,5.5941,5.6675,5.6946,5.7056,5.6946,5.6235,5.4693,5.2821,5.1169,5.0435,5.0268,5.0855,5.183,5.3004,5.4399,5.495,5.5244,5.5537,5.5596,5.5596,5.5596,5.5133,5.4399,5.3225,5.0875,4.8379,4.6214,4.6471,4.6838,4.6305,4.7425,4.8986,5.0896,5.1646,5.2087,5.2344,5.2601,5.2674,5.238,5.1867,5.1353,5.0839,5.0031,4.9353,4.8783,4.8453,4.7388,4.5516,4.3277,3.99,0.0,0.0,0.0,0.0,0.0,0.0,0.0,0.0,0.0,0.0,0.0,0.0,0.0,0.0,0.0,0.0,0.0,0.0,0.0,0.0,0.0,0.0,0.0,0.0,0.0,0.0,4.441,4.4626,4.7316,4.8323,4.6177,4.8159,4.9921,5.0692,5.3298,5.5647,5.7496,5.7629,5.8584,6.075,6.0566,6.0823,6.163,6.1601,6.1839,6.2376,6.2076,6.2513,6.3602,6.3602,6.3602,6.3629,6.3911,6.3398,6.2376,6.2705,6.1924,6.0346,5.9245,5.8804,5.8804,5.8804,5.9171,5.9588,5.9588,5.9588,5.9318,5.7409,5.6455,5.5757,5.4436,5.4399,5.4876,5.5148,5.5611,5.6198,5.7005,5.7005,5.6822,5.6822,5.6602,5.6381,5.6381,5.6198,5.5978,5.5978,5.3849,5.1499,4.9828,5.0031,5.0215,4.9664,5.0288,5.1389,5.3025,5.3188,5.3408,5.3959,5.3775,5.3592,5.3592,5.2601,5.1756,5.1242,5.0198,4.9353,4.8746,4.8746,4.7976,4.6361,4.4434,4.1368,3.711,0.0,0.0,0.0,0.0,0.0,0.0,0.0,0.0,0.0,0.0,0.0,0.0,0.0,0.0,0.0,0.0,0.0,0.0,0.0,0.0,0.0,0.0,0.0,3.9974,4.4856,4.8416,4.8489,5.1332,5.2711,5.1169,5.3151,5.4876,5.5669,5.7189,5.8437,5.9221,5.9294,6.0028,6.1606,6.2388,6.3232,6.4039,6.3936,6.3863,6.3863,6.2978,6.2602,6.2637,6.2637,6.2637,6.2666,6.3538,6.3863,6.3921,6.4821,6.5223,6.4893,6.1753,6.0566,6.0566,6.0566,6.0529,6.0529,6.0529,6.0493,6.0309,5.9515,5.9258,5.9074,5.8327,5.807,5.8253,5.9001,5.9221,5.9404,6.0199,5.9808,5.9221,5.9221,5.8657,5.807,5.807,5.7446,5.6895,5.6895,5.5611,5.4509,5.4436,5.3151,5.2637,5.4216,5.3775,0.0,5.539,5.5596,5.5596,5.5596,5.4913,5.4436,5.4399,5.2931,5.2013,5.1977,5.0492,4.961,4.9574,4.8049,4.7186,4.7186,4.326,4.0435,3.8799,0.0,0.0,0.0,0.0,0.0,0.0,0.0,0.0,0.0,0.0,0.0,0.0,0.0,0.0,0.0,0.0,0.0,0.0,0.0,0.0,0.0,4.1442,4.4011,4.4232,4.7645,5.0765,5.2527,5.4546,5.5868,5.6014,5.7152,5.7973,5.8217,5.9171,6.0089,6.0896,6.1484,6.2004,6.2395,6.3192,6.3408,6.2999,6.2968,6.2982,6.2946,6.2694,6.2917,6.3483,6.3483,6.3483,6.3447,6.374,6.3515,6.2982,6.3229,6.3321,6.337,6.3782,6.3943,6.3943,6.3943,6.3576,6.3062,6.3062,6.2291,6.1227,6.1006,6.0566,6.0052,5.9795,5.9758,5.9795,6.0015,6.0089,6.0126,6.0346,6.0236,6.0089,6.0089,5.9905,5.9758,5.9758,5.9134,5.8524,5.8524,5.7703,5.6638,5.5464,5.4876,5.4766,5.5207,5.506,0.0,5.5559,5.5596,5.5596,5.5596,5.539,5.5023,5.4436,5.3482,5.238,5.1206,5.0178,4.9317,4.8673,4.882,4.8893,4.8857,4.603,4.3497,0.0,0.0,0.0,0.0,0.0,0.0,0.0,0.0,0.0,0.0,0.0,0.0,0.0,0.0,0.0,0.0,0.0,0.0,0.0,0.0,0.0,0.0,4.5957,4.8673,5.0692,5.2307,5.3959,5.5684,5.7336,5.851,5.8951,5.9722,6.0236,6.0236,6.13,6.2144,6.2622,6.3038,6.3221,6.3207,6.3639,6.3601,6.3094,6.3086,6.306,6.306,6.2683,6.2787,6.3204,6.3204,6.3204,6.324,6.3589,6.3515,6.3094,6.3458,6.3621,0.0,0.0,0.0,0.0,0.0,6.5007,6.4604,6.4604,6.398,6.3099,6.2768,6.2328,6.1887,6.152,6.141,6.141,6.141,6.141,6.141,6.141,6.1153,6.0896,6.0896,6.0639,6.0419,6.0419,6.0052,5.9698,5.9698,5.9318,0.0,5.7336,5.6565,5.6198,5.6528,5.6308,5.6198,5.6565,5.6602,5.6602,5.6602,5.6308,5.5904,5.5464,5.4069,0.0,0.0,0.0,4.904,4.7846,4.8269,0.0,0.0,0.0,0.0,0.0,0.0,0.0,0.0,4.291,4.269,0.0,0.0,0.0,0.0,0.0,0.0,0.0,0.0,0.0,0.0,0.0,0.0,0.0,0.0,0.0,0.0,5.035,5.3125,5.7483,5.7666,5.7629,5.8327,5.9685,6.0566,6.0676,6.141,6.1887,6.1887,6.3319,6.4237,6.4237,0.0,0.0,0.0,0.0,6.371,6.3645,6.3552,6.3537,6.3537,6.274,6.2381,6.2381,6.2381,6.2381,6.2459,6.3237,6.3537,6.361,6.4392,6.4766,6.4791,6.4357,6.4238,6.4411,6.5284,6.5521,6.5448,6.5448,0.0,0.0,6.4457,6.4237,6.4053,6.3209,6.2952,6.2952,6.2817,6.278,6.278,6.278,6.2291,6.1741,6.1741,6.119,6.0676,6.0676,6.0603,6.0529,6.0529,6.0456,6.0162,5.9441,5.8084,5.7299,5.7923,5.7409,5.7189,5.7923,5.7997,5.7997,5.7997,0.0,0.0,5.6822,5.4766,5.3151,5.2307,5.0859,4.9334,4.7846,4.7883,4.7883,4.7773,4.7883,4.86,5.0014,5.0802,5.161,5.227,4.6287,4.5553,0.0,0.0,0.0,0.0,0.0,0.0,0.0,0.0,0.0,0.0,0.0,0.0,0.0,0.0,0.0,5.119,5.4259,5.6846,5.8704,5.9942,6.0713,6.0896,6.119,6.163,6.2291,6.3099,6.3613,6.3613,6.453,6.5081,6.5081,6.4928,6.4561,6.3843,6.3727,6.3403,6.2654,6.2634,6.2659,6.2659,0.0,0.0,6.2381,6.2381,6.2381,6.242,6.2581,6.2659,6.2659,6.2855,6.3314,6.4078,6.5426,6.6351,6.6985,6.7156,6.6843,6.6256,6.6256,6.5852,6.5264,6.5118,6.5081,6.4934,6.409,6.3833,0.0,6.3025,6.278,6.278,6.278,6.2695,6.2585,6.2585,6.2475,6.234,6.234,6.1814,6.1374,6.1374,6.086,6.0346,6.0199,5.9368,5.8584,5.807,5.7886,5.7813,5.796,5.7997,5.7997,5.7997,5.785,5.7519,5.6859,5.5794,5.4803,5.3995,5.3041,5.238,5.2029,5.2637,5.2674,5.2029,5.2674,5.2821,5.2527,5.3298,5.4106,5.484,5.227,5.2197,0.0,0.0,0.0,0.0,0.0,0.0,0.0,0.0,0.0,0.0,0.0,4.3273,4.6332,0.0,5.2447,5.5212,5.7392,5.9144,6.0257,6.108,6.1594,6.1594,6.1961,6.2548,6.3356,6.3833,6.4273,6.4677,6.5448,6.5693,6.524,6.5107,6.466,6.3797,6.3291,6.2855,6.2381,6.2381,6.2381,6.2381,6.2381,6.2381,6.2381,6.2381,6.2381,6.2381,6.2381,6.2381,6.242,6.2855,6.3574,6.4495,6.5842,6.6677,6.7117,6.7515,6.743,6.71,6.71,6.6843,6.6439,6.6035,6.5888,6.5742,6.4934,6.4714,6.4604,6.4163,6.4053,6.4053,6.4053,6.3759,6.3466,6.3466,6.3135,6.278,6.278,6.2475,6.2218,6.2218,6.1887,6.1484,6.108,6.0676,6.0126,5.9318,5.9208,5.9208,5.9208,5.9208,5.9208,5.9208,5.9208,5.9061,5.8657,5.7116,5.5684,5.4473,5.3665,5.3203,5.3203,5.3592,5.3995,5.4399,5.4803,5.5207,5.5611,5.6418,5.7005,5.7409,5.7005,5.7042,0.0,0.0,0.0,0.0,0.0,0.0,0.0,3.7294,3.9224,4.2864,4.5477,4.8221,5.1618,5.4101,5.6452,5.8876,5.995,6.0778,6.1691,6.1814,6.1814,6.1814,6.2548,6.3319,6.4016,6.4383,6.4824,6.5485,6.6123,6.6161,6.5387,6.4973,6.4427,6.3719,6.2855,6.2381,6.2381,6.2381,6.2381,6.2381,6.2381,6.2381,6.2381,6.255,6.2618,6.2618,6.2753,6.2821,6.29,6.3764,6.4567,6.5292,6.6433,6.6873,6.6927,6.7487,6.7687,6.7687,6.7687,6.7687,6.7577,6.6953,6.6733,6.6586,6.5778,6.5521,6.5521,6.5338,6.5301,6.5301,6.5301,6.4824,6.431,6.431,6.3796,6.322,6.3099,6.3062,6.3025,6.2817,6.278,6.2585,6.1924,6.1814,6.152,6.0529,6.0419,6.0419,6.0419,6.0419,6.0419,6.0419,6.0419,6.0419,6.0419,5.8621,5.6969,5.5647,5.495,5.4598,5.4598,5.4598,5.5207,5.6492,5.6528,5.7152,5.8474,5.9134,5.9515,5.9685,6.0493,6.0456,3.5371,3.4124,3.4284,3.6317,3.6905,3.8469,0.0,4.5223,4.5879,4.9623,5.2059,5.4171,5.6515,5.8282,5.9839,6.1222,6.1776,6.2198,6.2622,6.2695,6.2695,6.2695,6.3429,6.398,6.409,6.5375,6.6256,6.6366,6.6385,6.6349,6.6259,6.4732,6.3827,6.3719,6.2855,6.2381,6.2381,6.2381,6.2381,6.2381,6.2381,6.2381,6.2415,6.3091,6.3396,6.3429,6.4072,6.4343,6.4424,6.5352,6.5806,6.6063,6.7823,6.8528,6.8439,6.7917,6.7687,6.7687,6.7687,6.7687,6.7687,6.7577,6.7577,6.7393,6.6623,6.6366,6.6219,6.5521,6.5301,6.5301,6.5301,6.5228,6.5191,6.5191,6.5081,6.4824,6.409,6.3943,6.3723,6.2952,6.278,6.2743,6.2695,6.2695,6.2144,6.0639,6.0419,6.0419,6.0419,6.0419,6.0419,6.0419,6.0419,6.0419,6.0419,6.0162,5.9942,5.9758,5.9648,5.9612,5.9612,5.9612,5.9685,5.9869,5.9869,5.9942,6.0126,6.0236,6.0639,6.1337,6.2181,6.2108,4.0304,3.968,3.9696,4.0724,4.2029,4.3901,4.7076,4.8306,4.9636,5.2865,5.4987,5.6735,5.8343,5.9999,6.1306,0.0,6.262,6.3,6.2806,6.278,6.2658,6.2144,6.3282,6.4273,6.4751,6.5411,6.596,6.6422,6.6401,6.594,6.4868,6.4113,6.3498,6.2969,6.2581,6.2381,6.2381,6.2821,6.3057,6.3057,6.3463,6.3666,6.37,6.4005,6.414,6.4174,6.4478,6.4909,6.5435,6.5783,6.6598,6.771,6.8431,6.9062,6.9464,6.8678,6.8385,6.8311,6.7834,6.7687,6.7687,6.7687,6.7687,6.7614,6.7283,6.7173,6.7136,6.6769,6.6696,6.6696,6.6696,6.6366,6.5999,6.5999,6.5632,6.5228,6.4861,6.4787,6.4567,6.3723,6.3576,6.3392,6.289,6.278,6.2585,6.1924,6.1814,6.1814,6.1814,6.1814,6.1814,6.1814,6.1814,6.163,6.1153,6.108,6.0896,6.0419,6.0419,6.0419,6.0419,6.0419,6.0639,6.108,6.108,6.1594,6.2548,6.2548,6.2952,6.3759,6.4127,6.409,4.3167,4.3497,4.3938,4.4378,4.6507,4.8673,4.9481,5.0949,5.2803,5.5208,5.6664,5.7938,5.9434,6.0772,6.1842,6.2258,6.2918,6.3262,6.2855,6.2622,6.2254,6.1667,6.2475,6.3466,6.453,6.5008,6.5459,6.6,6.5797,6.5103,6.3791,6.3498,6.3049,6.242,6.2381,6.2482,6.2685,6.3226,6.3632,6.3835,6.4343,6.4613,6.4613,6.4816,6.5019,6.5222,6.5222,6.5567,6.6213,6.6443,6.7373,6.8651,6.8884,6.9399,6.9914,6.9383,6.9181,6.9155,6.8568,6.8201,6.8017,6.8017,6.7871,6.7687,6.7687,6.7687,6.7687,6.7687,6.7687,6.7687,6.7687,6.7247,6.6843,6.6843,6.6402,6.5888,6.5705,6.5632,6.5411,6.4604,6.442,6.4237,6.3613,6.3477,6.3477,6.3477,6.3319,6.3062,6.2817,6.278,6.278,6.278,6.278,6.2585,6.1998,6.1924,6.1667,6.1117,6.108,6.108,6.108,6.108,6.1447,6.2254,6.2291,6.2989,6.442,6.442,6.4714,6.5301,6.5521,6.5632,4.2323,4.3497,4.5021,4.6599,4.9444,5.205,5.2894,5.4289,5.5822,5.7161,5.7446,5.8145,6.0279,6.0921,6.1395,6.2274,6.265,6.2805,6.2805,6.2144,6.163,6.1594,6.097,6.1153,0.0,6.4257,6.5134,6.5141,6.4311,6.3755,6.3719,6.2893,6.242,6.2381,6.2381,6.2753,6.3463,6.3497,6.3869,6.458,6.458,6.4613,6.4613,6.5324,6.6068,6.6745,6.6745,6.6745,6.6837,6.7758,6.8158,6.8312,6.9279,6.9708,6.9706,6.9832,6.9957,7.0073,7.0036,6.9522,6.8862,6.8862,6.8348,6.7687,6.7687,6.7687,6.7687,6.7687,6.7687,6.7687,6.7687,6.7677,6.765,6.765,6.7614,6.7393,6.6623,6.6476,6.6219,6.5411,6.5264,6.5264,6.5228,6.5228,6.5228,6.5228,6.4567,6.3759,6.2915,6.278,6.278,6.278,6.278,6.278,6.2743,6.2768,6.2743,6.2732,6.2732,6.2732,6.2732,6.2732,6.3135,6.4016,6.4016,6.442,6.5264,6.5264,6.5301,6.5338,6.6109,6.6476,4.4268,4.6691,4.9003,5.0068,5.238,5.4583,5.5427,5.6014,5.6669,5.7641,5.7405,5.7396,5.8683,5.8998,5.9471,6.0859,6.1592,6.2181,6.2707,6.2585,6.1998,6.0933,6.0599,0.0,0.0,0.0,0.0,6.414,6.3447,6.291,6.2821,6.2542,6.2381,6.2381,6.2854,6.326,6.3531,6.4478,6.5087,6.5324,6.5831,6.6068,6.6068,6.6339,6.6576,6.6812,6.6812,6.7161,6.7708,6.7414,6.8024,6.9168,6.887,6.9166,6.9708,6.9738,6.9795,6.9832,7.0033,6.9926,6.9706,6.9706,6.9155,6.8495,6.8495,6.8128,6.7687,6.7687,6.7687,6.7687,6.7687,6.7687,6.7687,6.7687,6.7687,6.7614,6.7357,6.7283,6.7063,6.6256,6.6109,6.5925,6.5411,6.5301,6.5301,6.5301,6.4604,6.3796,6.2915,6.278,6.278,6.278,6.3319,6.3649,6.3649,6.4163,6.4457,6.4457,6.4457,6.4457,6.4457,6.4457,6.4604,6.4897,6.4897,6.5301,6.6109,6.6109,6.6366,6.688,6.7173,6.7283,4.6838,4.9187,5.1206,5.2858,5.4656,5.6161,5.6675,5.6822,5.6969,5.7446,5.6492,5.5684,5.6198,5.6051,5.6565,5.8767,5.9795,6.0896,6.2585,6.2328,6.1667,6.0933,6.0343,6.0129,0.0,0.0,0.0,6.3232,6.2614,6.2224,6.2386,6.2381,6.2381,6.2381,6.3125,6.3632,6.3903,6.5087,6.5831,6.6102,6.6576,6.6812,6.6812,6.6812,6.6812,6.6812,6.6812,6.7161,6.7628,6.7071,6.7535,6.8607,6.8019,6.8102,6.8682,6.9021,6.9203,6.9316,7.016,7.0053,6.9648,7.0307,6.9766,6.8901,6.9219,6.8742,6.8134,6.8449,6.8119,6.7724,6.8037,6.7907,6.7687,6.7687,6.7687,6.7687,6.7687,6.7687,6.754,6.7026,6.6916,6.6769,6.6256,6.6145,6.6072,6.5778,6.5301,6.464,6.3796,6.3686,6.3686,6.3686,6.42,6.453,6.453,6.5007,6.5301,6.5301,6.5301,6.5301,6.5301,6.5301,6.5448,6.5742,6.5742,6.6109,6.6916,6.6916,6.7173,6.7714,6.7981,6.8128,4.9774,5.0986,5.183,5.4876,5.6271,5.6859,5.6822,5.6822,5.6785,5.6638,5.4766,5.3093,5.2947,0.0,5.3041,5.6161,5.7446,5.9171,6.2365,6.1484,6.0786,0.0,0.0,0.0,0.0,0.0,0.0,6.2461,0.0,6.1569,6.2347,6.2381,6.2381,6.2381,6.3125,6.3869,6.458,6.5358,6.6102,6.6812,6.6812,6.6812,6.6812,6.6812,6.6812,6.6812,6.6812,6.6812,6.6812,6.6812,6.6812,6.6812,6.6812,6.6812,6.6904,6.7787,6.818,6.8489,7.0297,6.9933,6.8919,7.0695,7.0185,6.8976,6.9827,6.9434,6.8909,6.9783,6.8852,6.7782,6.8742,6.8385,6.7797,6.776,6.776,6.7724,6.7714,6.7687,6.7687,6.7687,6.7687,6.7687,6.7687,6.7687,6.743,6.6659,6.6549,6.6256,6.5411,6.5301,6.5301,6.5301,6.5338,6.5375,6.5375,6.5411,6.5411,6.5411,6.5411,6.5411,6.5411,6.5411,6.5778,6.6549,6.6549,6.6953,6.7687,6.7687,6.7724,6.776,6.8531,6.8935,5.0912,5.3445,5.5464,5.6308,5.7116,5.7556,5.6932,5.6822,5.6308,5.4488,5.3151,5.1756,4.9884,5.0875,5.2637,5.4693,5.7189,0.0,6.2413,6.245,0.0,6.163,6.1303,6.1376,6.2099,6.038,0.0,0.0,6.1597,6.0994,6.2313,6.2381,6.2381,6.2381,6.3125,6.3869,6.458,6.5899,6.6609,6.6812,6.6812,6.6812,6.6812,6.6812,6.6812,6.6812,6.6812,6.6812,6.6812,6.6812,6.6812,6.6812,6.6812,6.6812,6.6812,6.7071,6.7161,6.7366,6.8534,6.9601,7.0512,7.0997,7.0926,7.0544,7.0084,6.9343,6.8749,6.9001,6.8728,6.8614,6.9547,6.9633,6.9339,6.8752,6.8605,6.8421,6.7834,6.7687,6.7687,6.7687,6.7687,6.7687,6.7687,6.7687,6.7614,6.7393,6.7393,6.688,6.5485,6.5301,6.5301,6.5301,6.5852,6.6182,6.6182,6.6733,6.71,6.71,6.71,6.71,6.71,6.71,6.7173,6.7393,6.7393,6.7504,6.7687,6.7687,6.8017,6.8605,6.8788,6.9229,5.2894,5.517,5.6895,5.7262,5.7409,5.7189,5.6014,5.5207,5.3995,5.1573,4.9848,4.8269,4.6507,4.7609,4.9664,5.238,5.5537,0.0,6.1851,6.2291,6.2365,0.0,6.2391,0.0,6.2719,6.1543,6.1283,0.0,6.1089,6.0757,6.2313,6.2381,6.2381,6.2381,6.3429,6.4512,6.5561,6.6406,6.6812,6.6812,6.6812,6.6812,6.6812,6.6812,6.6812,6.6812,0.0,6.6812,6.6812,6.6812,6.6812,6.6812,6.6812,6.6812,6.6812,6.6812,6.6812,6.6896,6.7414,6.8572,6.9952,7.0832,7.087,7.0572,7.0477,6.9534,6.857,6.9011,6.856,6.8275,6.9661,6.9741,6.9464,6.9439,6.9449,6.9302,6.8862,6.8752,6.8641,6.8311,6.7944,6.7687,6.7687,6.7687,6.7687,6.7687,6.7687,6.7357,6.6476,6.6366,6.6366,6.6366,6.6769,6.7026,6.7026,6.743,6.7687,6.7687,6.7687,6.7687,6.7687,6.7687,6.7687,6.7687,6.8054,6.8238,6.8238,6.8568,6.8972,6.9449,6.9816,7.022,5.5133,5.6345,5.7152,5.7813,5.7409,5.6345,5.462,5.2894,5.0912,4.8233,4.592,4.4121,4.3167,4.4048,4.6177,5.0141,5.3482,5.7005,6.1006,6.1594,6.2218,6.3906,6.3427,6.3012,6.3168,6.2998,6.2569,6.1832,6.0921,6.1011,6.2352,6.2381,6.2415,6.2516,6.3869,6.5256,6.6643,6.6779,6.6812,6.6812,6.6812,6.6812,6.6812,6.6812,6.6812,6.6812,6.6812,0.0,6.6812,6.6812,6.6812,6.6812,6.6812,6.6812,6.6812,6.6812,6.6812,6.6812,6.6812,6.7414,6.8496,7.0194,7.0229,6.9849,7.0535,6.953,6.8381,6.9241,6.8381,6.7596,6.9397,6.9453,6.9193,6.9908,7.0172,7.022,7.011,7.011,6.9889,6.9192,6.8495,6.8017,6.8017,6.7907,6.7834,6.7834,6.776,6.7687,6.7687,6.7687,6.7687,6.7687,6.7687,6.7687,6.7687,6.7687,6.7687,6.7687,6.7687,6.7724,6.7834,6.7834,6.7907,6.8017,6.8715,6.9082,6.9082,6.9743,7.0146,7.0293,7.0991,7.1329,5.6124,5.7189,5.7813,5.796,5.7409,5.6198,5.3922,5.1646,4.8949,4.513,4.3461,4.2286,4.0781,4.3351,4.6801,5.0251,5.3482,5.7005,6.1006,6.1594,6.2218,0.0,6.3893,6.4263,6.5706,6.4536,0.0,0.0,6.2996,6.2238,6.2386,6.2381,6.2685,6.3294,6.414,6.5019,6.5865,6.6508,6.6812,6.6812,6.6812,6.6812,6.6812,6.6812,6.6812,6.6812,6.6812,0.0,6.6812,6.6812,6.6812,6.6812,6.6812,6.6812,6.6812,6.6812,6.6812,6.6812,6.6812,6.7414,6.8266,6.8575,6.9168,6.9601,6.891,6.8458,6.8227,6.842,6.82,6.8249,6.946,7.0179,7.055,7.0025,7.0499,7.0917,7.022,7.011,7.0073,6.9926,6.9779,6.9669,6.9669,6.9119,6.8678,6.8678,6.8128,6.7687,6.7687,6.7687,6.7687,6.7687,6.7687,6.7687,6.7687,6.7687,6.7687,6.7687,6.7687,6.7981,6.8678,6.8678,6.9009,6.9669,6.9816,6.9889,6.9889,7.0036,7.044,7.1101,7.1219,7.1688,5.5978,5.7079,5.7886,5.7483,5.6455,5.4693,5.1389,4.8783,4.5883,4.1846,4.0341,3.9585,3.8778,4.1258,4.4342,4.7168,5.0362,5.4054,5.8474,5.9465,6.0823,6.3723,6.3975,6.439,6.5658,6.4575,6.3938,6.4288,6.3192,6.248,6.2386,6.2381,6.2753,6.3497,6.4241,6.4952,6.5662,6.644,6.6812,6.6812,6.6812,6.6812,6.6812,6.6812,6.6812,6.6812,6.6812,0.0,6.6812,6.6812,6.6812,6.6812,6.6812,6.6812,6.6812,6.6812,6.6812,6.6812,6.6812,6.7078,6.7461,6.7461,6.8107,6.8835,6.8343,6.7866,6.7461,6.7461,6.7461,6.7702,6.8648,6.9637,7.0394,7.0494,7.1211,7.1835,7.1431,7.1027,7.0734,7.0734,7.0403,7.011,7.011,6.9779,6.9522,6.9522,6.9192,6.8935,6.8935,6.8935,6.8788,6.8385,6.8311,6.8495,6.8898,6.8935,6.8935,6.8935,6.8935,6.9119,6.9522,6.9522,6.9706,7.0073,7.0513,7.0734,7.0734,7.1138,7.1541,7.1945,7.1945,7.2129,5.5757,5.6895,5.7813,5.7005,5.5611,5.3298,4.9003,4.603,4.3057,3.9019,3.7514,3.7015,3.7199,3.9056,4.1499,4.4251,4.7037,5.068,5.5809,5.7281,5.9309,6.3356,6.3691,0.0,6.5003,6.4276,0.0,6.3719,6.2893,0.0,6.2381,6.2381,6.2753,6.3497,6.4072,6.4783,6.5662,6.6271,6.6643,6.6812,6.6812,6.6812,6.6812,6.6812,6.6812,6.6812,6.6812,0.0,0.0,6.6812,6.6812,6.6812,6.6812,6.6812,6.6812,6.6812,6.6812,6.6812,6.6812,6.6812,6.6812,6.6812,6.7291,6.7871,6.7871,6.7414,6.6812,6.6812,6.6812,6.6988,6.7708,6.8798,6.9989,7.1127,7.1981,7.2496,7.2496,7.2018,7.155,7.155,7.1064,7.0624,7.0624,7.0477,7.0367,7.0367,7.022,7.011,7.011,7.011,6.9926,6.9486,6.9265,6.9412,7.0036,7.011,7.011,7.011,7.011,7.0183,7.033,7.0367,7.044,7.0624,7.1248,7.155,7.155,7.2202,7.2496,7.2496,7.2679,7.2753,5.6308,5.7336,5.7813,5.7005,5.5611,5.3151,4.8323,4.4764,4.1368,3.7331,3.5826,3.5481,3.6266,3.7808,4.0194,4.4067,4.5724,4.8675,5.4847,5.6574,5.8601,6.2437,0.0,0.0,6.4944,6.4276,6.3719,6.3719,6.2893,0.0,6.2381,6.2381,6.2753,6.3497,6.3599,6.4275,6.5662,6.5764,6.6136,6.6812,6.6812,6.6812,6.6812,6.6812,6.6812,6.6812,6.6812,0.0,0.0,6.6812,6.6812,6.6812,6.6812,6.6812,6.6812,6.6812,6.6812,6.6812,6.6812,6.6812,6.6812,6.6812,6.6854,6.6904,6.6904,6.6896,6.6812,6.6812,6.6812,6.6812,6.6904,6.8297,7.0162,7.1951,7.2438,7.2496,7.2496,7.2459,7.2386,7.2386,7.2349,7.2275,7.2275,7.1688,7.1211,7.1211,7.0587,7.011,7.011,7.011,7.0367,7.0999,7.044,7.0,7.0073,7.011,7.011,7.011,7.011,7.044,7.1174,7.1211,7.1541,7.2275,7.2349,7.2386,7.2386,7.2459,7.2496,7.2532,7.323,7.3597,5.55,5.6675,5.7079,5.6271,5.4876,5.227,4.6856,4.3517,4.0398,3.6362,3.4857,3.4527,3.5371,3.6032,3.7519,4.0741,4.1595,4.3808,4.942,5.1335,5.3774,5.8142,5.9729,0.0,0.0,0.0,6.2931,6.2931,0.0,0.0,6.2381,6.2381,6.2516,6.2821,6.3294,6.4005,6.5019,6.5459,6.6068,6.6812,6.6812,6.6812,6.6812,6.6812,6.6812,6.6812,6.6812,0.0,0.0,6.6812,6.6812,6.6812,6.6812,6.6812,6.6812,6.6812,6.6812,6.6812,6.6812,6.6812,6.6812,6.6812,6.6812,6.6812,6.6812,6.6812,6.6812,6.6812,6.6812,6.6812,6.6812,6.8258,7.0196,7.2041,7.2496,7.2496,7.2496,7.2496,7.2496,7.2496,7.2496,7.2496,7.2496,7.2239,7.2018,7.2018,7.1762,7.1541,7.1541,7.1541,7.1688,7.1982,7.1321,7.1027,7.1505,7.1541,7.1541,7.1541,7.1541,7.1688,7.2018,7.2018,7.2165,7.2496,7.2496,7.2496,7.2496,7.2496,7.2753,7.323,7.356,7.3964,5.4216,5.5647,5.6235,5.5427,5.3849,5.1059,4.559,4.247,3.957,3.5481,3.4211,3.3954,3.4527,3.4723,3.5554,3.7929,3.8634,4.0562,4.5546,4.7628,5.0185,5.4401,0.0,5.8716,0.0,6.1968,6.2381,6.2381,0.0,0.0,6.2381,6.2381,6.2381,6.2381,6.2888,6.3531,6.4275,6.5019,6.573,6.6474,6.6711,6.6812,6.6812,6.6812,6.6812,6.6812,6.6812,0.0,0.0,6.6812,6.6812,6.6812,6.6812,6.6812,6.6812,6.6812,6.6812,6.6812,6.6812,6.6812,6.6812,6.6812,6.6812,6.6812,6.6812,6.6812,6.6812,6.6812,6.6812,6.6904,6.7495,6.8645,7.0196,7.2041,7.2496,7.2496,7.2496,7.2496,7.2496,7.2496,7.2496,7.2496,7.2496,7.2496,7.2496,7.2496,7.2496,7.2496,7.2496,7.2496,7.2496,7.2496,7.1982,7.1872,7.2459,7.2496,7.2496,7.2496,7.2496,7.2496,7.2496,7.2496,7.2496,7.2496,7.2496,7.2606,7.2863,7.2863,7.3266,7.4074,7.4294,7.4845,5.2564,5.4399,5.5427,5.462,5.2601,4.9554,4.4635,4.1642,3.8762,3.4651,3.3807,3.3807,3.3807,3.4091,3.4835,3.6453,3.7736,4.013,4.4759,4.6906,4.9126,0.0,0.0,5.5636,5.7862,6.0674,6.2381,6.2381,0.0,0.0,6.2381,6.2381,6.2381,6.2381,6.2381,6.2753,6.3531,6.4241,6.4986,6.5696,6.644,6.6812,6.6812,6.6812,6.6812,0.0,0.0,0.0,0.0,6.6812,6.6812,6.6812,6.6812,6.6812,6.6812,6.6812,6.6812,6.6812,6.6812,6.6812,6.6812,6.6812,6.6812,6.6812,6.6812,6.6812,6.6812,6.6812,6.6812,6.7243,6.9166,6.9708,7.0196,7.2041,7.2496,7.2496,7.2496,7.2496,7.2496,7.2496,7.2496,7.2496,7.2496,7.2496,7.2496,7.2496,7.2496,7.2496,7.2496,7.2496,7.2496,7.2496,7.2496,7.2496,7.2496,7.2496,7.2496,7.2496,7.2496,7.2496,7.2496,7.2496,7.2496,7.2496,7.2496,7.2899,7.367,7.367,7.4111,7.4918,7.5689,7.6533,4.836,4.9811,5.0435,4.9608,4.8416,4.6324,4.2029,4.001,3.8065,3.4541,3.3807,3.3807,3.3807,3.3647,3.4595,3.787,3.8447,3.9629,4.2806,4.596,0.0,4.9928,5.5572,5.9835,0.0,0.0,6.4183,6.4183,0.0,0.0,6.3277,6.2702,6.2381,6.2381,6.2381,6.2753,6.3497,6.3734,6.4241,6.4952,6.5696,6.6034,6.6068,6.6576,6.6812,0.0,0.0,0.0,0.0,6.6812,6.6812,6.6812,6.6812,6.6812,6.6812,6.6812,6.6812,6.6812,6.6812,6.6812,6.6812,6.6812,6.6812,6.6812,6.6812,6.6812,6.6812,6.6812,6.725,6.8063,6.935,7.0196,7.0998,7.2226,7.2496,7.2496,7.2496,7.2496,7.2496,7.2496,7.2496,7.2496,7.2496,7.2496,7.2496,7.2496,7.2496,7.2496,7.2496,7.2496,7.2496,7.2496,7.2496,7.2496,7.2496,7.2496,7.2496,7.2496,7.2496,7.2496,7.2496,7.2496,7.2496,7.2496,7.3046,7.345,7.3707,7.4258,7.4918,7.5726,7.657,7.7053,4.4745,4.6544,4.7278,4.6764,4.559,4.3718,4.0598,3.8799,3.7037,3.4357,3.3807,3.3807,3.3807,3.3553,3.4187,3.6686,3.7532,3.8606,4.0747,4.4524,0.0,5.043,0.0,0.0,0.0,6.3747,6.4999,0.0,0.0,0.0,6.3719,6.2893,6.2381,6.2381,6.2381,6.2618,6.3091,6.3362,6.3734,6.4208,6.4918,6.5256,6.529,6.6034,6.6373,0.0,0.0,0.0,0.0,6.6812,6.6812,6.6812,6.6812,6.6812,6.6812,6.6812,6.6812,6.6812,6.6812,6.6812,6.6812,6.6812,6.6812,6.6812,6.6812,6.6812,6.6812,6.6812,6.7461,6.842,6.9422,7.04,7.1318,7.2285,7.2496,7.2496,7.2496,7.2496,7.2496,7.2496,7.2496,7.2496,7.2496,7.2496,7.2496,7.2496,7.2496,7.2496,7.2496,7.2496,7.2496,7.2496,7.2496,7.2496,7.2496,7.2496,7.2496,7.2496,7.2496,7.2496,7.2496,7.2789,7.2936,7.2936,7.3744,7.4294,7.4588,7.5432,7.6093,7.657,7.7053,7.7273,0.0,4.3975,4.5296,4.5223,4.3534,4.1479,3.99,3.7771,0.0,3.4064,3.366,3.3647,3.3803,3.362,3.3564,3.3935,3.5656,3.753,3.9078,4.3266,0.0,0.0,5.6659,0.0,6.0615,6.3421,6.5125,0.0,0.0,0.0,6.3864,6.2973,6.2498,6.2498,6.242,6.2381,6.2381,6.3091,6.3429,6.3463,6.4174,6.4512,6.4546,6.529,6.5595,0.0,0.0,0.0,0.0,6.6745,6.6779,6.6812,6.6812,6.6812,6.6812,6.6812,6.6812,6.6812,6.6812,6.6812,6.6812,6.6812,6.6812,6.6812,6.6896,6.6904,6.6904,6.6904,6.7622,6.861,6.9566,7.0501,7.1417,7.2285,7.2496,7.2496,7.2496,7.2496,7.2496,7.2496,7.2496,7.2496,7.2496,7.2496,7.2496,7.2496,7.2496,7.2496,7.2496,7.2496,7.2496,7.2496,7.2496,7.2496,7.2496,7.2496,7.2496,7.2496,7.2569,7.2606,7.2606,7.334,7.378,7.378,7.4588,7.5395,7.6203,7.6937,7.7273,7.7273,7.7273,7.7273,3.4784,0.0,3.9328,3.8689,3.8138,3.7441,0.0,3.5238,3.41,3.3096,3.2375,3.2381,3.3834,3.2862,3.3213,3.7505,3.8345,3.937,4.1926,4.7156,0.0,5.6517,5.9817,6.2095,6.3055,6.496,6.6397,0.0,0.0,6.5748,6.5748,6.4253,6.3388,6.3388,6.2774,6.2381,6.2381,6.255,6.2651,6.2651,6.3429,6.3768,6.3802,6.4512,6.485,0.0,0.0,0.0,6.5967,6.5967,6.6305,6.6812,6.6812,6.6812,6.6812,6.6812,6.6812,6.6812,6.6812,6.6812,6.6812,6.6812,6.6812,6.6946,6.7628,6.7866,6.7866,6.7866,6.9096,7.0465,7.0701,7.148,7.2226,7.2438,7.2496,7.2496,7.2496,7.2496,7.2496,7.2496,7.2496,7.2496,7.2496,7.2496,7.2496,7.2496,7.2496,7.2496,7.2496,7.2496,7.2496,7.2496,7.2496,7.2496,7.2496,7.2496,7.2496,7.2496,7.3083,7.3413,7.3413,7.4184,7.4625,7.4625,7.5432,7.6203,7.7047,7.72,7.7273,7.7273,7.7273,7.7273,3.1482,3.4174,3.6831,3.6413,3.6009,3.5591,3.5114,3.3793,3.2596,3.2155,3.1715,3.1783,3.297,3.2711,3.3459,3.6881,3.8558,0.0,0.0,0.0,5.4954,5.9204,6.1532,6.313,0.0,6.553,6.6659,0.0,0.0,6.6404,6.6404,6.5068,6.4113,6.3719,6.324,6.2779,6.2381,6.2381,6.2381,6.2381,6.2787,6.299,6.3024,6.3768,6.4106,0.0,0.0,0.0,6.5222,6.5561,6.5933,6.6339,6.6677,6.7037,6.742,6.742,6.7742,6.8063,6.7582,6.7161,6.6812,6.6812,6.6812,6.6988,6.7911,6.8534,6.8873,6.8873,6.9953,7.1127,7.1127,7.1794,7.2496,7.2496,7.2496,7.2496,7.2496,7.2496,7.2496,7.2496,7.2496,7.2496,7.2496,7.2826,7.3046,7.3046,7.3377,7.3597,7.3597,7.3597,7.3597,7.3597,7.3597,7.3597,7.3597,7.3597,7.345,7.3083,7.3817,7.4258,7.4258,7.5028,7.5616,7.5989,7.646,7.6864,7.7273,7.7273,7.7273,7.7273,7.7273,7.7273,3.0467,3.3293,3.6046,3.5789,3.5371,3.4968,3.4857,3.3146,3.1568,3.1568,3.1507,3.1623,3.2421,3.3164,3.4182,3.5755,3.8963,0.0,5.1558,5.4097,5.6709,6.1068,6.2328,0.0,6.4016,6.5338,0.0,0.0,0.0,6.622,6.622,6.5462,6.4656,6.3939,6.3794,6.3351,6.2581,6.2459,6.2381,6.2381,6.2381,6.2381,6.2415,6.3057,6.3328,6.3396,0.0,0.0,6.4686,6.5169,6.5664,6.6187,6.667,6.7479,6.842,6.842,6.8984,6.9565,6.8534,6.7582,6.6812,6.6946,6.7029,6.7243,6.8305,6.9241,6.9954,7.0093,7.0701,7.1318,7.1318,7.1885,7.2496,7.2496,7.2496,7.2496,7.2496,7.2496,7.2532,7.2679,7.2679,7.2716,7.2863,7.3413,7.3891,7.3891,7.4478,7.4918,7.4918,7.4918,7.4918,7.4918,7.4918,7.4918,7.4918,7.5028,7.4808,7.4111,7.4698,7.5139,7.5255,7.5946,7.6607,7.7273,7.7273,7.7273,7.7273,7.7273,7.7273,7.7273,7.7273,7.7273,3.1665,3.3683,3.4857,3.35,3.4087,3.4821,3.4137,3.3183,3.2399,3.2399,3.1861,3.2197,3.4729,3.4781,3.5917,4.0438,4.4689,4.9023,0.0,0.0,5.849,6.1263,0.0,6.3135,6.4016,6.431,0.0,0.0,0.0,6.5447,6.5447,6.5229,6.5046,6.4895,6.411,6.3647,6.3535,6.274,6.2381,6.2381,6.2381,6.2381,6.2381,6.2516,6.255,6.2584,0.0,6.3499,6.47,6.4092,6.5512,6.8007,6.7333,6.8014,6.9458,6.9458,6.9565,6.9565,6.8534,6.7582,6.6904,6.7708,6.799,6.8305,7.009,7.0767,7.1063,7.1824,7.2197,7.2285,7.2285,7.2409,7.2496,7.2496,7.2496,7.2496,7.2496,7.2496,7.2716,7.3377,7.3523,7.3744,7.4404,7.4625,7.4735,7.4735,7.4845,7.4918,7.4918,7.4918,7.4918,7.4918,7.4918,7.4918,7.4918,7.5542,7.5873,7.5726,7.5836,7.624,7.6907,7.7053,7.7163,7.7273,7.7273,7.7273,7.7273,7.7273,7.7273,7.7273,7.7273,7.7273,3.0344,3.2142,3.3647,3.3316,3.5128,3.678,3.5973,3.5165,3.4614,3.4614,3.4321,3.4542,3.6055,3.7381,4.0075,4.5539,4.8714,5.1916,5.5869,5.7687,5.9538,0.0,0.0,6.2989,6.3356,6.3796,0.0,0.0,0.0,0.0,6.5301,6.524,6.4975,6.4403,6.399,6.3518,6.3011,6.2581,6.2381,6.2381,6.2381,6.2381,6.2381,6.2381,6.2659,6.3087,0.0,6.3818,6.4918,6.491,6.5792,6.7267,6.7692,6.8682,6.9928,7.0887,7.0568,6.9637,6.9168,6.8024,6.6946,6.7871,6.8189,6.8572,7.0499,7.1127,7.1286,7.2226,7.2496,7.2496,7.2496,7.2496,7.2496,7.2496,7.2496,7.2606,7.3046,7.3156,7.3377,7.4184,7.4368,7.4478,7.4845,7.5285,7.5542,7.5542,7.5946,7.6173,7.6173,7.6173,7.6173,7.6173,7.6173,7.6173,7.6173,7.657,7.6754,7.6754,7.6754,7.6937,7.7273,7.7273,7.7273,7.7273,7.7273,7.7273,7.7273,7.7273,7.7273,7.7273,7.7273,7.7273,2.9977,3.1482,3.3133,3.4137,3.6119,3.7881,3.8043,3.7456,3.7,3.7588,3.7551,3.7577,3.8085,4.0597,4.4207,4.9113,5.1427,5.3954,5.7753,5.8988,6.0285,6.2548,6.278,6.278,6.278,0.0,0.0,0.0,0.0,0.0,6.4714,6.4934,6.4567,6.3587,6.3541,6.317,6.2429,6.2227,6.2212,6.2381,6.2381,6.2381,6.2381,6.2381,6.2893,6.3719,6.3719,6.4323,6.5365,6.567,6.619,6.6907,6.8099,6.9382,7.0676,7.2007,7.1323,6.9708,6.9708,6.8451,6.6988,6.8146,6.8534,6.8875,7.0832,7.1448,7.1573,7.2285,7.2496,7.2496,7.2496,7.2496,7.2496,7.2496,7.2642,7.2936,7.356,7.3854,7.4221,7.5028,7.5175,7.5249,7.5432,7.5983,7.6387,7.6387,7.6937,7.7273,7.7273,7.7273,7.7273,7.7273,7.7273,7.7273,7.7273,7.7273,7.7273,7.7273,7.7273,7.7273,7.7273,7.7273,7.7273,7.7273,7.7273,7.7273,7.7273,7.7273,7.7273,7.7273,7.7273,7.7273,3.2852,3.3587,3.41,3.5716,3.5679,3.6032,3.9056,3.9093,3.9166,4.1405,4.1258,4.1072,4.2102,4.4328,4.6944,4.9657,5.2532,5.5499,5.8673,0.0,6.0933,6.2597,6.278,6.278,6.278,0.0,0.0,0.0,0.0,0.0,6.2989,6.3759,6.3789,6.2918,6.2821,6.2701,6.2574,6.1794,6.1704,6.2381,6.2381,6.2381,6.2381,6.2381,6.2893,6.3719,6.3719,6.4701,6.6217,6.5397,6.6531,6.8685,6.8748,7.0229,7.2336,7.243,7.1323,6.9708,6.9708,6.8451,6.7112,6.8982,6.9601,6.9918,7.1824,7.2409,7.2409,7.2467,7.2496,7.2496,7.2496,7.2496,7.2496,7.2496,7.3083,7.3634,7.367,7.4294,7.5065,7.5873,7.6019,7.624,7.698,7.7163,7.72,7.72,7.7237,7.7273,7.7273,7.7273,7.7273,7.7273,7.7273,7.7273,7.7273,7.7273,7.7273,7.7273,7.7273,7.7273,7.7273,7.7273,7.7273,7.7273,7.7273,7.7273,7.7273,7.7273,7.7273,7.7273,7.7273,7.7273,3.1311,3.2669,3.4211,3.5862,3.7184,3.8505,4.0267,4.1956,4.3571,4.4984,4.5021,4.4986,4.5538,4.6737,4.8683,5.167,5.3519,5.5668,5.8783,5.9905,6.0823,6.1924,6.2511,6.278,0.0,0.0,0.0,0.0,0.0,0.0,6.278,6.2615,6.2374,6.1991,6.1498,6.1155,6.1052,6.1219,6.1434,6.1704,6.2178,6.2381,6.242,6.2935,6.3683,6.4564,6.5101,6.6095,6.7174,6.6816,6.7263,6.8247,6.9214,7.0478,7.1835,7.2312,7.1323,6.9708,6.9708,6.8451,6.7112,6.9056,6.9708,7.0058,7.1951,7.2496,7.2496,7.2496,7.2496,7.2496,7.2496,7.2496,7.2496,7.2496,7.312,7.3817,7.4331,7.5102,7.5873,7.6717,7.6864,7.6937,7.7237,7.7273,7.7273,7.7273,7.7273,7.7273,7.7273,7.7273,7.7273,7.7273,7.7273,7.7273,7.7273,7.7273,7.7273,7.7273,7.7273,7.7273,7.7273,7.7273,7.7273,7.7273,7.7273,7.7273,7.7273,7.7273,7.7273,7.7273,7.7273,7.7273,3.0356,3.1788,3.3807,3.5495,3.7918,4.023,4.1552,4.4158,4.6654,4.7993,4.803,4.7765,4.7455,4.7837,4.9241,0.0,5.3711,5.541,5.8723,5.9661,6.0309,6.1117,6.1924,6.2438,0.0,0.0,0.0,0.0,0.0,0.0,0.0,6.1915,6.1364,6.073,6.0211,5.9872,5.9742,6.0317,6.0943,6.1726,6.2237,6.2578,6.2817,6.3425,6.4358,6.549,6.6125,6.6881,6.7687,6.7687,6.7834,6.8201,6.9559,7.0409,7.0946,7.1749,7.0865,6.9205,6.9205,6.8339,6.7535,6.9166,6.9919,7.0434,7.2011,7.2496,7.2496,7.2496,7.2496,7.2496,7.2496,7.2496,7.2496,7.2496,7.312,7.3927,7.4735,7.5542,7.635,7.7127,7.7273,7.7273,7.7273,7.7273,7.7273,7.7273,7.7273,7.7273,7.7273,7.7273,7.7273,7.7273,7.7273,7.7273,7.7273,7.7273,7.7273,7.7273,7.7273,7.7273,7.7273,7.7273,7.7273,7.7273,7.7273,7.7273,7.7273,7.7273,7.7273,7.7273,7.7273,7.7273,3.065,3.1384,3.3023,3.4637,3.7514,4.0561,4.3001,4.5406,4.781,5.0288,5.0105,4.9102,4.7693,4.7474,4.8542,5.1705,5.2916,5.4828,5.8652,5.9184,5.9478,6.0309,6.108,0.0,0.0,0.0,0.0,0.0,0.0,0.0,0.0,6.1604,6.0814,5.9144,5.9077,5.9046,5.8998,5.9032,6.0228,6.2577,6.2577,6.2993,6.3719,6.3719,6.4701,6.6404,6.6404,6.691,6.7687,6.7687,6.8164,6.8972,6.9779,6.9989,7.0013,7.0802,6.9883,6.8189,6.8227,6.8227,6.8381,6.9386,7.0366,7.1286,7.2226,7.2496,7.2496,7.2496,7.2496,7.2496,7.2496,7.2496,7.2496,7.2496,7.312,7.3927,7.4735,7.5542,7.635,7.7127,7.7273,7.7273,7.7273,7.7273,7.7273,7.7273,7.7273,7.7273,7.7273,7.7273,7.7273,7.7273,7.7273,7.7273,7.7273,7.7273,7.7273,7.7273,7.7273,7.7273,7.7273,7.7273,7.7273,7.7273,7.7273,7.7273,7.7273,7.7273,7.7273,7.7273,7.7273,7.7273,2.9941,3.1775,3.4674,3.634,4.0047,4.3901,4.6324,4.7865,4.9334,5.1242,5.1426,5.0806,4.9358,4.9536,0.0,5.2004,5.291,5.4376,5.7199,5.8087,5.8699,5.9467,6.0272,0.0,0.0,0.0,0.0,0.0,0.0,0.0,0.0,6.1055,6.0273,5.9144,5.8564,5.8239,5.822,5.8761,5.9349,6.0052,6.1219,6.2753,6.4666,6.5297,6.5909,6.6434,6.7024,6.746,6.7687,6.7687,6.7834,6.8128,6.8935,6.9187,6.9214,7.0695,7.0397,6.935,7.0022,6.9813,6.9422,7.0364,7.0865,7.1286,7.2226,7.2496,7.2496,7.2496,7.2496,7.2496,7.2496,7.2496,7.2496,7.2496,7.312,7.378,7.4001,7.4698,7.5506,7.6313,7.646,7.6644,7.72,7.7273,7.7273,7.7273,7.7273,7.7273,7.7273,7.7273,7.7273,7.7273,7.7273,7.7273,7.7273,7.7273,7.7273,7.7273,7.7273,7.7273,7.7273,7.7273,7.7273,7.7273,7.7273,7.7273,7.7273,7.7273,7.7273,7.7273,7.7273,7.7273,3.1115,3.317,3.6083,3.8358,4.1589,4.5112,4.8526,4.9921,5.0875,5.2197,5.2197,5.1747,5.0823,5.0791,0.0,5.2472,5.3078,5.4225,5.6557,5.7309,5.7891,5.8637,0.0,0.0,0.0,0.0,0.0,0.0,0.0,0.0,0.0,6.064,5.9832,5.8668,5.8173,5.7881,5.7881,5.8355,5.8914,5.9551,6.0877,6.2587,6.4657,6.5508,6.6257,6.6939,6.746,6.7687,6.7687,6.7314,6.7174,6.7247,6.8049,6.7878,6.7456,6.9854,6.9872,6.8854,7.0087,7.0434,7.0366,7.0898,7.135,7.1763,7.2314,7.2496,7.2496,7.2496,7.2496,7.2496,7.2496,7.2496,7.2496,7.2496,7.2863,7.3303,7.3634,7.4074,7.4771,7.5873,7.5836,7.5873,7.668,7.6827,7.6827,7.6827,7.709,7.7273,7.7273,7.7273,7.7273,7.7273,7.7273,7.7273,7.7273,7.7273,7.7273,7.7273,7.7273,7.7273,7.7273,7.7273,7.7273,7.7273,7.7273,7.7273,7.7273,7.7273,7.7273,7.7273,7.7273,7.7273,3.3183,3.5018,3.7257,4.0398,4.269,4.5333,4.9774,5.1463,5.2307,5.3078,5.2637,5.2087,5.2087,5.1552,5.1558,5.2894,5.3288,5.4135,5.6371,5.6737,5.7091,0.0,0.0,0.0,0.0,0.0,0.0,0.0,0.0,0.0,0.0,6.0167,5.9471,5.7954,5.7881,5.7881,5.7881,5.7881,5.8656,6.0151,6.1078,6.2281,6.382,6.4802,6.6139,6.7687,6.7687,6.766,6.7515,6.6736,6.6374,6.6349,6.707,6.6299,6.5186,6.8404,6.8571,6.7487,6.9176,7.0396,7.1223,7.1223,7.1794,7.2496,7.2496,7.2496,7.2496,7.2496,7.2496,7.2496,7.2496,7.2496,7.2496,7.2496,7.2496,7.2716,7.3413,7.3597,7.4037,7.5579,7.5285,7.5065,7.5836,7.5983,7.6019,7.6093,7.679,7.7273,7.7273,7.7273,7.7273,7.7273,7.7273,7.7273,7.7273,7.7273,7.7273,7.7273,7.7273,7.7273,7.7273,7.7273,7.7273,7.7273,7.7273,7.7273,7.7273,7.7273,7.7273,7.7273,7.7273,7.7273,3.1971,3.4981,3.8799,4.1405,4.5663,4.9517,5.0545,5.1903,5.3004,5.3167,5.3078,5.2931,5.2931,5.2825,5.2649,5.2452,5.2918,5.3741,5.4909,0.0,0.0,0.0,0.0,0.0,0.0,0.0,0.0,0.0,0.0,0.0,5.8534,5.8539,5.8356,5.7884,5.7881,5.7881,5.7881,5.7881,5.8058,0.0,5.9951,6.1193,6.222,6.4936,6.6746,6.7687,6.7687,6.7286,6.6677,6.6464,6.5966,6.5329,6.5507,6.523,6.4973,6.6455,6.751,6.8434,6.9567,7.0941,7.2197,7.2197,7.2314,7.2496,7.2496,7.2496,7.2496,7.2496,7.2496,7.2496,7.2496,7.2496,7.2496,7.2496,7.2496,7.2569,7.2716,7.2753,7.3046,7.4037,7.4074,7.4221,7.5028,7.5175,7.5395,7.6019,7.679,7.7273,7.7273,7.7273,7.7273,7.7273,7.7273,7.7273,7.7273,7.7273,7.7273,7.7273,7.7273,7.7273,7.7273,7.7273,7.7273,7.7273,7.7273,7.7273,7.7273,7.7273,7.7273,7.7273,7.7273,7.7273,3.322,3.645,4.012,4.3718,4.7425,5.0215,5.0215,5.1463,5.2637,5.2637,5.2931,5.3203,5.3203,5.3203,5.2957,5.2332,5.2528,5.3082,5.3963,0.0,0.0,0.0,0.0,0.0,0.0,0.0,0.0,0.0,0.0,5.8366,5.7543,5.748,5.743,5.7376,5.7374,5.7543,5.7881,5.7881,5.8101,5.8494,5.9768,6.1248,6.2867,6.5386,6.6733,6.7136,6.7112,6.6823,6.6344,6.5462,6.4801,6.4392,6.4392,6.4072,6.3896,6.6095,6.7349,6.8282,7.0015,7.1443,7.2496,7.2496,7.2496,7.2496,7.2496,7.2496,7.2496,7.2496,7.2496,7.2496,7.2496,7.2496,7.2496,7.2496,7.2496,7.2496,7.2496,7.2496,7.2753,7.3523,7.3377,7.3377,7.4184,7.4661,7.5322,7.6497,7.7017,7.7273,7.7273,7.7273,7.7273,7.7273,7.7273,7.7273,7.7273,7.7273,7.7273,7.7273,7.7273,7.7273,7.7273,7.7273,7.7273,7.7273,7.7273,7.7273,7.7273,7.7273,7.7273,7.7273,7.7273,7.7273,3.4284,3.7808,4.1405,4.5938,4.8343,4.961,4.961,5.0749,5.1793,5.1793,5.2527,5.3203,5.3203,5.3203,5.2921,5.2154,5.213,5.2416,0.0,0.0,0.0,0.0,0.0,0.0,0.0,0.0,0.0,0.0,0.0,5.732,5.6554,5.6619,5.6673,5.6632,5.6731,5.7103,5.7679,5.7814,5.8281,5.9111,6.0117,6.1767,6.3906,6.5411,6.6166,6.6262,6.6229,6.6073,6.5846,6.4323,6.361,6.3498,6.3498,6.3011,6.2765,6.5811,6.7049,6.7534,7.0029,7.15,7.2312,7.2459,7.2496,7.2496,7.2496,7.2496,7.2496,7.2496,7.2496,7.2496,7.2496,7.2496,7.2496,7.2496,7.2496,7.2496,7.2496,7.2496,7.2716,7.334,7.2973,7.2716,7.3377,7.4147,7.5139,7.6497,7.6796,7.687,7.687,7.7017,7.709,7.709,7.72,7.7273,7.7273,7.7273,7.7273,7.7273,7.7273,7.7273,7.7273,7.7273,7.7237,7.709,7.709,7.7163,7.7273,7.7163,7.7163,7.7273,7.7273,7.7273,3.1494,3.689,4.28,4.6232,4.8343,4.961,4.961,5.0288,5.0949,5.0949,5.216,5.3203,5.3203,5.3203,5.2761,5.146,5.1803,0.0,0.0,0.0,0.0,0.0,0.0,0.0,0.0,0.0,0.0,0.0,5.6007,5.5694,5.4975,5.5505,5.5883,5.5818,5.6461,5.6867,5.6934,5.7577,5.8281,5.9111,6.0695,6.1978,6.3025,6.398,6.4738,6.5287,6.5278,6.4817,6.4042,6.3827,6.324,6.2542,6.2542,6.2498,6.2537,6.375,6.5127,6.6619,6.848,7.0149,7.1578,7.2275,7.2496,7.2496,7.2496,7.2496,7.2496,7.2496,7.2496,7.2496,7.2496,7.2496,7.2496,7.2496,7.2496,7.2496,7.2496,7.2496,7.2532,7.2642,7.2569,7.2532,7.2642,7.334,7.3927,7.4147,7.4771,7.5249,7.5249,7.5836,7.6276,7.6276,7.687,7.7273,7.7273,7.7273,7.7273,7.7273,7.7273,7.7273,7.7273,7.7273,7.6974,7.6276,7.6276,7.6607,7.7273,7.6607,7.6644,7.7273,7.7273,7.7273,3.3526,3.8138,4.2489,4.6195,4.7626,4.8306,4.8783,4.9517,5.0105,5.0105,5.1059,5.2013,5.2454,5.2527,5.2215,5.1246,0.0,0.0,0.0,0.0,0.0,0.0,0.0,0.0,0.0,0.0,0.0,0.0,5.5724,5.5199,5.4059,5.4684,5.5058,5.5074,5.5412,5.5953,5.6799,5.7567,5.8795,6.0514,6.1715,6.2464,6.278,6.3209,6.3517,6.3812,6.4199,6.3879,6.306,6.2993,6.2774,6.2381,6.2381,6.2381,6.2542,6.3936,6.5158,6.6508,6.8772,7.0302,7.1431,7.2239,7.2496,7.2496,7.2496,7.2496,7.2496,7.2496,7.2496,7.2496,7.2496,7.2496,7.2496,7.2496,7.2496,7.2496,7.2496,7.2496,7.2496,7.2496,7.2496,7.2642,7.3083,7.345,7.3854,7.4294,7.4698,7.4918,7.4918,7.5212,7.5432,7.5432,7.6166,7.6644,7.6644,7.7017,7.7273,7.7273,7.7273,7.7273,7.7273,7.69,7.646,7.6093,7.6093,7.6056,7.5953,7.6056,7.6276,7.6644,7.709,7.7273,3.4187,3.7698,4.0508,4.4581,4.6195,4.7003,4.7829,4.8673,4.928,0.0,4.9738,5.0435,5.1242,5.172,5.1806,0.0,0.0,0.0,0.0,0.0,0.0,0.0,0.0,0.0,0.0,0.0,0.0,0.0,5.5724,5.5059,5.3584,5.4391,5.4727,5.433,5.4499,5.5108,5.6224,5.7631,5.9435,6.1632,6.2438,6.278,6.278,6.278,6.2678,6.255,6.3191,6.3161,6.2574,6.2434,6.2381,6.2381,6.2381,6.2381,6.262,6.4357,6.5353,6.6256,6.8903,7.033,7.1138,7.1945,7.2349,7.2496,7.2496,7.2496,7.2496,7.2496,7.2496,7.2496,7.2496,7.2496,7.2496,7.2496,7.2496,7.2496,7.2496,7.2496,7.2496,7.2496,7.2496,7.2679,7.3303,7.3377,7.3597,7.4221,7.4294,7.4294,7.4294,7.4478,7.4588,7.4588,7.5322,7.5799,7.5799,7.635,7.6686,7.6686,7.6686,7.6686,7.6686,7.613,7.5689,7.5506,7.5506,7.5395,7.5212,7.5616,7.6019,7.6423,7.7047,7.7273,3.0589,3.3476,3.6288,4.0398,4.3718,4.6177,4.6966,4.7773,4.8379,4.8379,4.8416,4.871,4.9574,5.0969,5.1752,0.0,0.0,0.0,0.0,0.0,0.0,0.0,0.0,0.0,0.0,0.0,0.0,0.0,5.5724,5.5059,5.3584,5.4848,5.4999,5.3585,5.4228,5.4634,5.4702,5.7723,6.0036,6.1632,6.2438,6.278,6.278,6.278,6.2386,6.172,6.2373,6.2603,6.2502,6.2434,6.2381,6.2381,6.2381,6.2381,6.262,6.4357,6.5035,6.5439,6.8065,6.9486,7.0293,7.1101,7.1872,7.2496,7.2496,7.2496,7.2496,7.2496,7.2496,7.2496,7.2496,7.2496,7.2496,7.2496,7.2496,7.2496,7.2496,7.2496,7.2496,7.2496,7.2496,7.2496,7.2569,7.2569,7.2569,7.2606,7.2642,7.2642,7.2642,7.3303,7.3744,7.3744,7.4478,7.4955,7.4955,7.5028,7.5028,7.5028,7.5028,7.5028,7.5028,7.4992,7.4588,7.3817,7.3817,7.4551,7.6056,7.5322,7.5763,7.7237,7.7273,7.7273,2.9182,3.1629,3.4307,3.7881,4.0818,4.3297,4.5131,4.6177,4.7058,4.8086,4.7902,4.7773,4.86,4.9664,0.0,0.0,0.0,0.0,0.0,0.0,0.0,0.0,0.0,0.0,0.0,0.0,0.0,0.0,0.0,5.5262,5.4264,5.5144,5.5029,5.3551,5.3754,5.4594,5.6055,5.821,6.0046,6.1609,6.2423,6.278,6.278,6.278,6.2618,6.2397,6.258,6.2351,6.1776,6.1715,6.1975,6.2459,6.3011,6.3202,6.3462,6.5232,6.5904,6.6202,6.8171,6.9449,7.022,7.1064,7.1835,7.2409,7.1794,7.1604,7.1604,7.1604,7.1604,7.1763,7.2314,7.2496,7.2496,7.2496,7.2496,7.2496,7.2496,7.2496,7.2496,7.2496,7.2496,7.2496,7.2496,7.2496,7.2496,7.2496,7.2496,7.2496,7.2496,7.2753,7.2936,7.2936,7.3634,7.4147,7.4147,7.4625,7.4918,7.4918,7.4918,7.4918,7.4918,7.4404,7.4001,7.3707,7.3193,7.3193,7.378,7.4037,7.4698,7.5769,7.6313,7.6827,2.7493,2.9537,3.2252,3.5789,3.8102,4.0398,4.3884,4.5112,4.5883,4.7241,4.748,4.759,4.7846,0.0,0.0,0.0,0.0,0.0,0.0,0.0,0.0,0.0,0.0,0.0,0.0,0.0,0.0,0.0,0.0,0.0,5.4634,5.5291,5.5029,5.3551,5.375,5.4862,5.6885,5.7977,5.957,6.1594,6.1883,6.2285,6.278,6.278,6.278,6.2792,6.2459,6.2002,6.1464,6.1618,6.1843,6.2159,6.3248,6.3719,6.3935,6.5716,6.6404,6.6595,6.8027,6.9192,7.0183,7.0734,7.1615,7.2409,7.1763,7.135,7.1159,7.148,7.1318,7.1318,7.2255,7.2496,7.2496,7.2496,7.2496,7.2496,7.2496,7.2496,7.2496,7.2496,7.2496,7.2496,7.2496,7.2496,7.2496,7.2496,7.2496,7.2496,7.2496,7.2496,7.2496,7.2496,7.2973,7.3303,7.3303,7.378,7.4111,7.4111,7.4111,7.4111,7.4111,7.3597,7.3303,7.3303,7.2789,7.2496,7.2496,7.3303,7.4258,7.5322,7.5836,7.6533,0.0,0.0,0.0,3.383,3.5481,3.7624,4.3167,0.0,4.4709,4.5626,4.7021,4.7902,0.0,0.0,0.0,0.0,0.0,0.0,0.0,0.0,0.0,0.0,0.0,0.0,0.0,0.0,0.0,0.0,5.5018,5.4592,5.4595,5.5262,5.4969,5.3551,5.42,5.5348,5.685,5.6879,5.8484,6.1557,6.0851,6.1313,6.278,6.278,6.278,6.2755,6.1969,6.1572,6.151,6.2196,6.1995,6.1481,6.3078,6.3755,6.3936,6.5748,6.6434,6.6553,6.7405,6.8752,7.011,7.011,7.1174,7.2496,7.2467,7.1794,7.1255,7.2197,7.1794,7.1286,7.2255,7.2496,7.2496,7.2496,7.2496,7.2496,7.2496,7.2496,7.2496,7.2496,7.2496,7.2496,7.2496,7.2496,7.2496,7.2496,7.2496,7.2496,7.2496,7.2496,7.2496,7.2496,7.2496,7.2496,7.2496,7.2496,7.2496,7.2496,7.2496,7.2496,7.2496,7.2496,7.2496,7.2496,7.2496,7.2496,7.2496,7.3266,7.4478,7.6056,7.613,7.657,2.5558,0.0,0.0,0.0,0.0,0.0,0.0,0.0,3.968,4.3387,4.3608,4.3737,0.0,0.0,0.0,0.0,0.0,0.0,0.0,0.0,0.0,0.0,0.0,0.0,0.0,0.0,0.0,0.0,5.4619,5.4522,5.4506,5.4267,5.3913,5.3484,5.42,5.5039,5.6007,5.7171,5.8756,6.075,6.1128,6.1823,6.278,6.278,6.278,6.278,6.2567,6.1804,6.0764,6.143,6.1549,6.1524,6.3764,6.4631,6.4833,6.6671,6.7314,6.7378,6.7633,6.8752,7.011,7.011,7.1174,7.2343,7.1665,7.0832,7.0298,7.1223,7.08,7.0468,7.2071,7.2496,7.2496,7.2496,7.2496,7.2496,7.2496,7.2496,7.2496,7.2496,7.2496,7.2496,7.2496,7.2496,7.2496,7.2496,7.2496,7.2496,7.2496,7.2496,7.2496,7.2496,7.2496,7.2496,7.2496,7.2496,7.2496,7.2496,7.2496,7.2496,7.2496,7.2496,7.2496,7.2496,7.2496,7.2496,7.2496,7.2716,7.367,7.5285,7.646,7.709,2.6696,0.0,0.0,0.0,0.0,0.0,0.0,3.6707,0.0,0.0,4.28,0.0,0.0,0.0,0.0,0.0,0.0,0.0,0.0,0.0,0.0,0.0,0.0,0.0,0.0,5.2908,5.3179,5.4319,5.4145,5.4154,5.4492,5.3851,5.3518,5.3518,5.4513,5.5262,5.5724,5.6967,5.8391,5.9905,6.0407,6.1236,6.2328,6.2658,6.278,6.278,6.278,6.1888,6.0477,6.1483,6.1709,6.1613,6.4039,6.5229,6.5743,6.7202,6.7687,6.7687,6.7687,6.8752,7.011,7.011,7.1174,7.2409,7.1854,7.0734,6.9989,7.1286,7.1286,7.1127,7.2226,7.2496,7.2496,7.2496,7.2496,7.2496,7.2496,7.2496,7.2496,7.2496,7.2496,7.2496,7.2496,7.2496,7.2496,7.2496,7.2496,7.2496,7.2496,7.2496,7.2496,7.2496,7.2496,7.2496,7.2496,7.2496,7.2496,7.2496,7.2496,7.2496,7.2496,7.2496,7.2496,7.2496,7.2496,7.2496,7.2496,7.2496,7.334,7.4955,7.654,7.7273,2.8594,2.9365,0.0,0.0,0.0,0.0,3.656,3.7331,3.7933,0.0,0.0,0.0,0.0,0.0,0.0,0.0,0.0,0.0,0.0,0.0,0.0,0.0,0.0,0.0,5.3004,5.2563,5.2799,5.4173,5.3575,5.3483,5.4232,5.3716,5.3416,5.3482,5.4934,5.5752,5.5836,5.6642,5.7751,5.9184,5.9339,6.0191,6.163,6.2438,6.278,6.278,6.2705,6.1806,6.0508,6.1796,6.2008,6.1745,6.4066,6.5586,6.6493,6.7378,6.7687,6.7687,6.7687,6.8752,7.011,7.011,7.1174,7.2496,7.2496,7.1291,7.0196,7.1854,7.2438,7.2496,7.2496,7.2496,7.2496,7.2496,7.2496,7.2496,7.2496,7.2496,7.2496,7.2496,7.2496,7.2496,7.2496,7.2496,7.2496,7.2496,7.2496,7.2496,7.2496,7.2496,7.2496,7.2496,7.2496,7.2496,7.2496,7.2496,7.2496,7.2496,7.2496,7.2496,7.2496,7.2496,7.2496,7.2496,7.2496,7.2496,7.2496,7.2679,7.3523,7.4955,7.654,7.7273,3.0944,3.1861,3.2706,3.1091,0.0,0.0,3.1372,3.2779,3.4871,0.0,0.0,0.0,0.0,0.0,0.0,0.0,0.0,0.0,0.0,0.0,0.0,0.0,0.0,0.0,5.2197,5.2679,5.3097,5.3424,5.2798,5.2509,5.2695,5.2611,5.283,5.3494,5.4916,5.6004,5.6668,5.7425,5.8283,5.9221,5.9895,6.0665,6.163,6.2438,6.278,6.2755,6.2103,6.1286,6.0441,6.0653,6.105,6.1745,6.4066,6.5586,6.6493,6.7378,6.7687,6.7687,6.7687,6.8752,7.011,7.011,7.1174,7.2496,7.2496,7.1732,7.0898,7.1255,7.1951,7.2496,7.2496,7.2496,7.2496,7.2496,7.2496,7.2496,7.2496,7.2496,7.2496,7.2496,7.2496,7.2496,7.2496,7.2496,7.2496,7.2496,7.2496,7.2496,7.2496,7.2496,7.2496,7.2496,7.2496,7.2496,7.2496,7.2496,7.2496,7.2496,7.2496,7.2496,7.2496,7.2496,7.2496,7.2496,7.2496,7.2496,7.2496,7.3817,7.4588,7.4955,7.654,7.7273,3.2926,3.3476,3.4197,3.344,0.0,0.0,0.0,0.0,3.3867,0.0,0.0,0.0,0.0,0.0,0.0,0.0,0.0,0.0,0.0,0.0,0.0,0.0,0.0,0.0,5.1353,5.2123,5.2784,5.3167,5.2579,5.2216,5.2243,5.2292,5.2656,5.3463,5.4934,5.6059,5.6887,5.7655,5.8217,5.8621,5.9832,6.0603,6.1043,6.2254,6.278,6.278,6.2376,6.1742,6.1039,6.137,6.1958,6.2836,6.4005,6.5515,6.7117,6.7515,6.7687,6.7687,6.7687,6.8752,7.011,7.011,7.088,7.1794,7.1794,7.148,7.1127,7.1127,7.1794,7.2496,7.2496,7.2496,7.2496,7.2496,7.2496,7.2496,7.2496,7.2496,7.2496,7.2496,7.2496,7.2496,7.2496,7.2496,7.2496,7.2496,7.2496,7.2496,7.2496,7.2496,7.2496,7.2496,7.2496,7.2496,7.2496,7.2496,7.2496,7.2496,7.2496,7.2496,7.2496,7.2496,7.2496,7.2496,7.2496,7.2716,7.3083,7.4331,7.4918,7.4955,7.654,7.7273,0.0,0.0,0.0,0.0,0.0,3.5055,0.0,0.0,0.0,0.0,0.0,0.0,0.0,0.0,0.0,0.0,0.0,0.0,0.0,0.0,0.0,0.0,0.0,0.0,5.0288,5.0912,5.1756,5.2894,5.2054,5.1625,5.1953,5.2046,5.2535,5.346,5.4774,5.5999,5.7091,5.7703,5.7997,5.8033,5.9648,6.0419,6.0456,6.2071,6.278,6.278,6.2618,6.2219,6.164,6.2091,6.2976,6.3993,6.4086,6.5586,6.7687,6.7687,6.7687,6.7687,6.7687,6.8752,7.011,7.011,7.0543,7.1127,7.1127,7.1127,7.1159,7.1318,7.1951,7.2496,7.2496,7.2496,7.2496,7.2496,7.2496,7.2496,7.2496,7.2496,7.2496,7.2496,7.2496,7.2496,7.2496,7.2496,7.2496,7.2496,7.2496,7.2496,7.2496,7.2496,7.2496,7.2496,7.2496,7.2496,7.2496,7.2496,7.2496,7.2496,7.2496,7.2496,7.2496,7.2496,7.2496,7.2496,7.2496,7.2899,7.3707,7.4515,7.4992,7.5175,7.6613,7.7273,0.0,0.0,0.0,0.0,3.7771,0.0,0.0,0.0,0.0,0.0,0.0,0.0,0.0,0.0,0.0,0.0,0.0,0.0,0.0,0.0,0.0,0.0,0.0,0.0,0.0,4.8673,4.9664,5.194,5.0156,4.9603,5.1147,5.1283,5.1998,5.3474,5.43,5.5757,5.7844,5.7973,5.7997,5.8033,5.9648,6.0419,6.0456,6.2071,6.278,6.2755,6.2049,6.1687,6.1548,6.0927,6.1968,6.4051,6.4728,6.609,6.7687,6.7687,6.7687,6.7687,6.7687,6.8752,7.011,7.011,7.0543,7.1127,7.1127,7.1127,7.1255,7.2101,7.2438,7.2496,7.2496,7.2496,7.2496,7.2496,7.2496,7.2496,7.2496,7.2496,7.2496,7.2496,7.2496,7.2496,7.2496,7.2496,7.2496,7.2496,7.2496,7.2496,7.2496,7.2496,7.2496,7.2496,7.2496,7.2496,7.2496,7.2496,7.2496,7.2496,7.2496,7.2496,7.2496,7.2496,7.2496,7.2496,7.2496,7.2899,7.3707,7.4515,7.5285,7.5983,7.687,7.7273,0.0,0.0,0.0,0.0,0.0,0.0,3.4981,0.0,3.4124,0.0,0.0,0.0,0.0,0.0,0.0,0.0,0.0,0.0,0.0,0.0,0.0,0.0,0.0,0.0,0.0,0.0,0.0,0.0,4.8518,4.8188,5.0307,5.0108,5.0814,5.2803,5.3964,5.5491,5.7351,5.7774,5.7997,5.8033,5.9648,6.0419,6.0456,6.2071,6.278,6.278,6.2427,6.2298,6.2271,6.1942,6.294,6.4803,6.5104,6.6244,6.7687,6.7687,6.7687,6.7687,6.7687,6.8752,7.0079,6.9926,7.0064,7.0298,7.0298,7.0298,7.0601,7.2071,7.2496,7.2496,7.2496,7.2496,7.2496,7.2496,7.2496,7.2496,7.2496,7.2496,7.2496,7.2496,7.2496,7.2496,7.2496,7.2496,7.2496,7.2496,7.2496,7.2496,7.2496,7.2496,7.2496,7.2496,7.2496,7.2496,7.2496,7.2496,7.2496,7.2496,7.2496,7.2496,7.2496,7.2496,7.2496,7.2496,7.2496,7.312,7.4404,7.4735,7.5579,7.6827,7.7127,7.7273,4.1111,0.0,0.0,0.0,0.0,0.0,0.0,0.0,0.0,0.0,0.0,0.0,0.0,0.0,0.0,0.0,0.0,0.0,0.0,0.0,0.0,0.0,0.0,0.0,0.0,0.0,0.0,0.0,0.0,4.6932,4.9725,4.9303,4.9928,5.2032,5.3542,5.5036,5.6587,5.7545,5.7997,5.8033,5.9648,6.0419,6.0456,6.2071,6.278,6.278,6.278,6.278,6.2817,6.3062,6.4016,6.5338,6.5558,6.6476,6.7687,6.7687,6.7687,6.7687,6.7687,6.8752,7.0039,6.9799,6.9884,7.0058,6.9778,6.9884,7.0434,7.2041,7.2496,7.2496,7.2496,7.2496,7.2496,7.2496,7.2496,7.2496,7.2496,7.2496,7.2496,7.2496,7.2496,7.2496,7.2496,7.2496,7.2496,7.2496,7.2496,7.2496,7.2496,7.2496,7.2496,7.2496,7.2496,7.2496,7.2496,7.2496,7.2496,7.2496,7.2496,7.2496,7.2496,7.2496,7.2496,7.2496,7.2496,7.3303,7.4918,7.4918,7.5763,7.7273,7.7273,7.7273,0.0,0.0,0.0,3.9717,0.0,0.0,0.0,0.0,3.6193,0.0,0.0,0.0,0.0,0.0,0.0,0.0,0.0,0.0,0.0,0.0,0.0,0.0,0.0,0.0,0.0,0.0,0.0,0.0,4.5553,0.0,4.968,4.9272,4.968,5.1298,5.2768,5.4277,5.5833,5.7277,5.7997,5.8033,5.9648,6.0419,6.0456,6.2071,6.278,6.278,6.278,6.278,6.2879,6.3723,6.453,6.5375,6.6145,6.6953,6.7687,6.7687,6.7687,6.7687,6.7687,6.8752,7.0039,6.9799,7.0332,7.0865,6.9989,7.0332,7.1255,7.2226,7.2496,7.2496,7.2496,7.2496,7.2496,7.2496,7.2496,7.2496,7.2496,7.2496,7.2496,7.2496,7.2496,7.2496,7.2496,7.2496,7.2496,7.2496,7.2496,7.2496,7.2496,7.2496,7.2496,7.2496,7.2496,7.2496,7.2496,7.2496,7.2496,7.2496,7.2496,7.2496,7.2496,7.2496,7.2496,7.2496,7.2496,7.3303,7.4918,7.4918,7.5763,7.7273,7.7273,7.7273,0.0,0.0,4.5461,4.1956,0.0,0.0,0.0,0.0,0.0,0.0,0.0,0.0,0.0,0.0,0.0,0.0,0.0,0.0,0.0,0.0,0.0,0.0,0.0,0.0,0.0,0.0,0.0,0.0,4.352,0.0,4.7426,4.7413,4.8058,4.9714,5.2201,5.3993,5.4991,5.6988,5.7997,5.8033,5.9648,6.0419,6.0456,6.2071,6.278,6.278,6.278,6.278,6.2879,6.3723,6.4567,6.5375,6.6182,6.699,6.7687,6.7687,6.7687,6.7834,6.8898,7.0,7.077,6.9941,7.0332,7.0898,6.9989,7.0366,7.1286,7.2226,7.2496,7.238,7.1732,7.2041,7.2197,7.0966,7.1609,7.2314,7.1732,7.1573,7.1763,7.238,7.2011,7.1763,7.2409,7.2496,7.2496,7.2496,7.2496,7.2496,7.2496,7.2496,7.2496,7.2496,7.2496,7.2496,7.2496,7.2496,7.2496,7.2496,7.2496,7.2496,7.2496,7.2496,7.2496,7.2496,7.2496,7.3303,7.4918,7.4918,7.5763,7.7273,7.7273,7.7273,4.5993,4.6507,0.0,4.3461,4.2323,0.0,3.8248,0.0,0.0,0.0,0.0,0.0,0.0,0.0,0.0,0.0,0.0,0.0,0.0,0.0,0.0,0.0,0.0,0.0,0.0,0.0,4.1001,4.302,4.1706,0.0,0.0,0.0,4.7133,4.8545,5.178,5.3716,5.4213,5.6745,5.7997,5.8033,5.9648,6.0419,6.0456,6.2071,6.278,6.278,6.278,6.278,6.289,6.4053,6.4824,6.5411,6.6512,6.7247,6.7687,6.7687,6.7871,6.8311,6.9633,7.0624,7.1165,7.0417,7.0832,7.1417,7.0501,7.0832,7.1732,7.2314,7.2496,7.2285,7.1318,7.1542,7.1604,7.0093,7.0601,7.1354,7.0734,7.0601,7.0865,7.1824,7.1511,7.1417,7.2314,7.2496,7.2496,7.2496,7.2496,7.2496,7.2496,7.2496,7.2496,7.2496,7.2496,7.2496,7.2496,7.2496,7.2496,7.2496,7.2496,7.2496,7.2496,7.2496,7.2496,7.2496,7.2789,7.3597,7.4918,7.5212,7.6019,7.7273,7.7273,7.7273]}]]